<?xml version='1.0' encoding='UTF-8'?><gpx version="1.1" creator="JPX - https://github.com/jenetics/jpx" xmlns="http://www.topografix.com/GPX/1/1"><trk><trkseg><trkpt lat="47.727800616008444" lon="-1.7296547536508073"><ele>57.0</ele><time>2026-04-23T15:10:10.999Z</time></trkpt><trkpt lat="47.72787356848024" lon="-1.7296878141495573"><ele>57.0</ele><time>2026-04-23T15:10:11.999Z</time></trkpt><trkpt lat="47.727972459382904" lon="-1.729605142456248"><ele>57.0</ele><time>2026-04-23T15:10:31.999Z</time></trkpt><trkpt lat="47.728093928006054" lon="-1.7295831911753614"><ele>57.0</ele><time>2026-04-23T15:10:33.999Z</time></trkpt><trkpt lat="47.72816300656097" lon="-1.729571643752587"><ele>57.0</ele><time>2026-04-23T15:10:34.999Z</time></trkpt><trkpt lat="47.72826301443068" lon="-1.7295526360898037"><ele>57.0</ele><time>2026-04-23T15:10:36.999Z</time></trkpt><trkpt lat="47.72837171157795" lon="-1.7296395462447733"><ele>57.0</ele><time>2026-04-23T15:10:38.999Z</time></trkpt><trkpt lat="47.72839248468177" lon="-1.7297325337182474"><ele>57.0</ele><time>2026-04-23T15:10:39.999Z</time></trkpt><trkpt lat="47.728401941511535" lon="-1.7298277351559284"><ele>57.0</ele><time>2026-04-23T15:10:40.999Z</time></trkpt><trkpt lat="47.72844369807114" lon="-1.7299028398704301"><ele>57.0</ele><time>2026-04-23T15:10:41.999Z</time></trkpt><trkpt lat="47.72860193035148" lon="-1.7299101472866445"><ele>57.0</ele><time>2026-04-23T15:10:44.999Z</time></trkpt><trkpt lat="47.72866724767291" lon="-1.7299053151942994"><ele>57.0</ele><time>2026-04-23T15:10:45.999Z</time></trkpt><trkpt lat="47.72873127637783" lon="-1.729883719799481"><ele>57.0</ele><time>2026-04-23T15:10:46.999Z</time></trkpt><trkpt lat="47.72881030195739" lon="-1.7298567280777908"><ele>57.0</ele><time>2026-04-23T15:10:47.999Z</time></trkpt><trkpt lat="47.728902446715075" lon="-1.729837545408298"><ele>57.0</ele><time>2026-04-23T15:10:48.999Z</time></trkpt><trkpt lat="47.729008800437434" lon="-1.7298349689487365"><ele>57.0</ele><time>2026-04-23T15:10:49.999Z</time></trkpt><trkpt lat="47.72910826530583" lon="-1.729868495000098"><ele>57.0</ele><time>2026-04-23T15:10:50.999Z</time></trkpt><trkpt lat="47.729240931889166" lon="-1.7298823803885066"><ele>57.0</ele><time>2026-04-23T15:10:51.999Z</time></trkpt><trkpt lat="47.72936079987866" lon="-1.7299044660938412"><ele>57.0</ele><time>2026-04-23T15:10:52.999Z</time></trkpt><trkpt lat="47.729491169240255" lon="-1.7299073313505595"><ele>57.0</ele><time>2026-04-23T15:10:53.999Z</time></trkpt><trkpt lat="47.729613204429114" lon="-1.7299264823407046"><ele>57.5</ele><time>2026-04-23T15:10:54.999Z</time></trkpt><trkpt lat="47.72974430031048" lon="-1.7299087868119536"><ele>58.0</ele><time>2026-04-23T15:10:55.999Z</time></trkpt><trkpt lat="47.72987264088451" lon="-1.729888618105766"><ele>58.5</ele><time>2026-04-23T15:10:56.999Z</time></trkpt><trkpt lat="47.72999490838825" lon="-1.7298574977591679"><ele>59.0</ele><time>2026-04-23T15:10:57.999Z</time></trkpt><trkpt lat="47.73014296956353" lon="-1.729815442275414"><ele>58.5</ele><time>2026-04-23T15:10:58.999Z</time></trkpt><trkpt lat="47.730268587118054" lon="-1.7297370306534399"><ele>58.0</ele><time>2026-04-23T15:10:59.999Z</time></trkpt><trkpt lat="47.730396599994485" lon="-1.7296721620694564"><ele>57.5</ele><time>2026-04-23T15:11:00.999Z</time></trkpt><trkpt lat="47.73052751142263" lon="-1.729583719298468"><ele>57.0</ele><time>2026-04-23T15:11:01.999Z</time></trkpt><trkpt lat="47.73065641786384" lon="-1.7294802673233995"><ele>57.0</ele><time>2026-04-23T15:11:02.999Z</time></trkpt><trkpt lat="47.73078701909293" lon="-1.7293935694390317"><ele>57.0</ele><time>2026-04-23T15:11:03.999Z</time></trkpt><trkpt lat="47.73090137206943" lon="-1.7293043491128701"><ele>57.0</ele><time>2026-04-23T15:11:04.999Z</time></trkpt><trkpt lat="47.73102836179814" lon="-1.7292299525637556"><ele>57.0</ele><time>2026-04-23T15:11:05.999Z</time></trkpt><trkpt lat="47.73115190140309" lon="-1.7291419476379222"><ele>58.33333333333333</ele><time>2026-04-23T15:11:06.999Z</time></trkpt><trkpt lat="47.73127828842723" lon="-1.729051484449197"><ele>59.666666666666664</ele><time>2026-04-23T15:11:07.999Z</time></trkpt><trkpt lat="47.73142233041024" lon="-1.7289586678416888"><ele>61.0</ele><time>2026-04-23T15:11:08.999Z</time></trkpt><trkpt lat="47.731562817844924" lon="-1.7288589105291423"><ele>61.0</ele><time>2026-04-23T15:11:09.999Z</time></trkpt><trkpt lat="47.73170852379713" lon="-1.7287553760178058"><ele>61.0</ele><time>2026-04-23T15:11:10.999Z</time></trkpt><trkpt lat="47.731859032665746" lon="-1.7286503909983244"><ele>61.0</ele><time>2026-04-23T15:11:11.999Z</time></trkpt><trkpt lat="47.732011119786804" lon="-1.7285462773872486"><ele>62.666666666666664</ele><time>2026-04-23T15:11:12.999Z</time></trkpt><trkpt lat="47.732164165851366" lon="-1.7284393595931236"><ele>64.33333333333333</ele><time>2026-04-23T15:11:13.999Z</time></trkpt><trkpt lat="47.73232686943562" lon="-1.728334373394351"><ele>66.0</ele><time>2026-04-23T15:11:14.999Z</time></trkpt><trkpt lat="47.732480359322" lon="-1.7282245627312383"><ele>66.0</ele><time>2026-04-23T15:11:15.999Z</time></trkpt><trkpt lat="47.732642614662744" lon="-1.7281146186438108"><ele>66.0</ele><time>2026-04-23T15:11:16.999Z</time></trkpt><trkpt lat="47.73280763554308" lon="-1.7280091052445385"><ele>66.0</ele><time>2026-04-23T15:11:17.999Z</time></trkpt><trkpt lat="47.73297871000975" lon="-1.727909255990653"><ele>65.66666666666667</ele><time>2026-04-23T15:11:18.999Z</time></trkpt><trkpt lat="47.733153944921966" lon="-1.7278108703678585"><ele>65.33333333333334</ele><time>2026-04-23T15:11:19.999Z</time></trkpt><trkpt lat="47.73331898782057" lon="-1.7277135528217828"><ele>65.0</ele><time>2026-04-23T15:11:20.999Z</time></trkpt><trkpt lat="47.73349323286908" lon="-1.7276296722181856"><ele>65.66666666666667</ele><time>2026-04-23T15:11:21.999Z</time></trkpt><trkpt lat="47.73366634799797" lon="-1.7275563744693965"><ele>66.33333333333333</ele><time>2026-04-23T15:11:22.999Z</time></trkpt><trkpt lat="47.733853898408114" lon="-1.727473896794278"><ele>67.0</ele><time>2026-04-23T15:11:23.999Z</time></trkpt><trkpt lat="47.734028495272256" lon="-1.7273889674167155"><ele>67.0</ele><time>2026-04-23T15:11:24.999Z</time></trkpt><trkpt lat="47.73421507320024" lon="-1.7272969123197863"><ele>67.0</ele><time>2026-04-23T15:11:25.999Z</time></trkpt><trkpt lat="47.73440238101543" lon="-1.727200442891341"><ele>67.0</ele><time>2026-04-23T15:11:26.999Z</time></trkpt><trkpt lat="47.734591736363114" lon="-1.7271119607212486"><ele>66.33333333333333</ele><time>2026-04-23T15:11:27.999Z</time></trkpt><trkpt lat="47.734784692908825" lon="-1.727024816090314"><ele>65.66666666666667</ele><time>2026-04-23T15:11:28.999Z</time></trkpt><trkpt lat="47.73498437122319" lon="-1.7269679485827352"><ele>65.0</ele><time>2026-04-23T15:11:29.999Z</time></trkpt><trkpt lat="47.7351862686843" lon="-1.7269138986644597"><ele>66.0</ele><time>2026-04-23T15:11:30.999Z</time></trkpt><trkpt lat="47.7353967620431" lon="-1.726870258492348"><ele>67.0</ele><time>2026-04-23T15:11:31.999Z</time></trkpt><trkpt lat="47.73559745083785" lon="-1.726828850203791"><ele>68.0</ele><time>2026-04-23T15:11:32.999Z</time></trkpt><trkpt lat="47.73580219512346" lon="-1.7267827838412477"><ele>68.0</ele><time>2026-04-23T15:11:33.999Z</time></trkpt><trkpt lat="47.73600780342392" lon="-1.7267509432689911"><ele>68.0</ele><time>2026-04-23T15:11:34.999Z</time></trkpt><trkpt lat="47.736216238668135" lon="-1.7267197194180637"><ele>68.0</ele><time>2026-04-23T15:11:35.999Z</time></trkpt><trkpt lat="47.73643084733305" lon="-1.7266833486587196"><ele>69.0</ele><time>2026-04-23T15:11:36.999Z</time></trkpt><trkpt lat="47.73665125511898" lon="-1.7266348332258743"><ele>70.0</ele><time>2026-04-23T15:11:37.998Z</time></trkpt><trkpt lat="47.7368677323155" lon="-1.7265863375798118"><ele>71.0</ele><time>2026-04-23T15:11:38.998Z</time></trkpt><trkpt lat="47.73706988556104" lon="-1.726539836665396"><ele>71.0</ele><time>2026-04-23T15:11:39.998Z</time></trkpt><trkpt lat="47.73727128624162" lon="-1.7264963859210845"><ele>71.0</ele><time>2026-04-23T15:11:40.998Z</time></trkpt><trkpt lat="47.7374696273699" lon="-1.7264625453944515"><ele>71.0</ele><time>2026-04-23T15:11:41.998Z</time></trkpt><trkpt lat="47.737677372420855" lon="-1.7264198878025394"><ele>71.33333333333334</ele><time>2026-04-23T15:11:42.998Z</time></trkpt><trkpt lat="47.73787709223289" lon="-1.7263729494370437"><ele>71.66666666666667</ele><time>2026-04-23T15:11:43.998Z</time></trkpt><trkpt lat="47.7380744350491" lon="-1.726327102898697"><ele>72.0</ele><time>2026-04-23T15:11:44.998Z</time></trkpt><trkpt lat="47.73824332749515" lon="-1.726305809031725"><ele>72.0</ele><time>2026-04-23T15:11:45.998Z</time></trkpt><trkpt lat="47.73843824000008" lon="-1.7262699281116507"><ele>72.0</ele><time>2026-04-23T15:11:46.998Z</time></trkpt><trkpt lat="47.73862265768308" lon="-1.7262381397660205"><ele>72.0</ele><time>2026-04-23T15:11:47.998Z</time></trkpt><trkpt lat="47.738820577718855" lon="-1.7261965599265496"><ele>72.33333333333333</ele><time>2026-04-23T15:11:48.998Z</time></trkpt><trkpt lat="47.73901743226053" lon="-1.7261330837688458"><ele>72.66666666666666</ele><time>2026-04-23T15:11:49.998Z</time></trkpt><trkpt lat="47.7392204438012" lon="-1.7261116813315014"><ele>73.0</ele><time>2026-04-23T15:11:50.998Z</time></trkpt><trkpt lat="47.73942343491633" lon="-1.7260676352239586"><ele>72.0</ele><time>2026-04-23T15:11:51.998Z</time></trkpt><trkpt lat="47.73963668305413" lon="-1.7260259231128534"><ele>71.0</ele><time>2026-04-23T15:11:52.998Z</time></trkpt><trkpt lat="47.73984131479995" lon="-1.7259810951289258"><ele>70.0</ele><time>2026-04-23T15:11:53.998Z</time></trkpt><trkpt lat="47.7400512383239" lon="-1.7259432707297806"><ele>70.66666666666666</ele><time>2026-04-23T15:11:54.998Z</time></trkpt><trkpt lat="47.740258864908725" lon="-1.7258978594288215"><ele>71.33333333333333</ele><time>2026-04-23T15:11:55.998Z</time></trkpt><trkpt lat="47.74047407283518" lon="-1.7258540360899697"><ele>72.0</ele><time>2026-04-23T15:11:56.998Z</time></trkpt><trkpt lat="47.74067399869854" lon="-1.7258124316570815"><ele>72.0</ele><time>2026-04-23T15:11:57.998Z</time></trkpt><trkpt lat="47.74089120564078" lon="-1.7257727469762745"><ele>72.0</ele><time>2026-04-23T15:11:58.998Z</time></trkpt><trkpt lat="47.74108694829042" lon="-1.7257311088104137"><ele>72.0</ele><time>2026-04-23T15:11:59.999Z</time></trkpt><trkpt lat="47.74129510446075" lon="-1.7256634957605888"><ele>72.33333333333333</ele><time>2026-04-23T15:12:00.999Z</time></trkpt><trkpt lat="47.74151149722995" lon="-1.7256188714892091"><ele>72.66666666666666</ele><time>2026-04-23T15:12:01.999Z</time></trkpt><trkpt lat="47.7417162569571" lon="-1.725577209683954"><ele>73.0</ele><time>2026-04-23T15:12:02.999Z</time></trkpt><trkpt lat="47.741922233135774" lon="-1.7255345333551229"><ele>72.33333333333333</ele><time>2026-04-23T15:12:03.999Z</time></trkpt><trkpt lat="47.7421309634109" lon="-1.725504645359956"><ele>71.66666666666667</ele><time>2026-04-23T15:12:04.999Z</time></trkpt><trkpt lat="47.742340000005626" lon="-1.7254538374069417"><ele>71.0</ele><time>2026-04-23T15:12:05.999Z</time></trkpt><trkpt lat="47.74254297762412" lon="-1.725416769435305"><ele>70.66666666666667</ele><time>2026-04-23T15:12:06.999Z</time></trkpt><trkpt lat="47.7427465482266" lon="-1.7253803981776412"><ele>70.33333333333333</ele><time>2026-04-23T15:12:07.999Z</time></trkpt><trkpt lat="47.74293045832941" lon="-1.7253489334788281"><ele>70.0</ele><time>2026-04-23T15:12:08.999Z</time></trkpt><trkpt lat="47.74312694277708" lon="-1.7253434178616085"><ele>70.0</ele><time>2026-04-23T15:12:09.999Z</time></trkpt><trkpt lat="47.74335313962973" lon="-1.7253148132357492"><ele>70.0</ele><time>2026-04-23T15:12:10.999Z</time></trkpt><trkpt lat="47.74358997271534" lon="-1.7253008561104601"><ele>71.0</ele><time>2026-04-23T15:12:11.999Z</time></trkpt><trkpt lat="47.7438072836054" lon="-1.7252901159820762"><ele>72.0</ele><time>2026-04-23T15:12:12.999Z</time></trkpt><trkpt lat="47.744033116952274" lon="-1.7252669228572024"><ele>73.0</ele><time>2026-04-23T15:12:13.999Z</time></trkpt><trkpt lat="47.7442536312196" lon="-1.7252501531784972"><ele>71.66666666666666</ele><time>2026-04-23T15:12:14.999Z</time></trkpt><trkpt lat="47.744473755439046" lon="-1.7252388363585967"><ele>70.33333333333333</ele><time>2026-04-23T15:12:15.999Z</time></trkpt><trkpt lat="47.74469609028365" lon="-1.7252225976333433"><ele>69.0</ele><time>2026-04-23T15:12:16.999Z</time></trkpt><trkpt lat="47.74491631230055" lon="-1.7252082243502815"><ele>69.0</ele><time>2026-04-23T15:12:17.999Z</time></trkpt><trkpt lat="47.74513040391337" lon="-1.7251909120988596"><ele>69.0</ele><time>2026-04-23T15:12:18.999Z</time></trkpt><trkpt lat="47.74533992189155" lon="-1.7251824625672634"><ele>69.0</ele><time>2026-04-23T15:12:19.999Z</time></trkpt><trkpt lat="47.74555458648413" lon="-1.72517136643577"><ele>69.33333333333333</ele><time>2026-04-23T15:12:20.999Z</time></trkpt><trkpt lat="47.74576962714983" lon="-1.7251636646047206"><ele>69.66666666666666</ele><time>2026-04-23T15:12:21.999Z</time></trkpt><trkpt lat="47.74598847300419" lon="-1.725153611069911"><ele>70.0</ele><time>2026-04-23T15:12:22.999Z</time></trkpt><trkpt lat="47.74620713302387" lon="-1.7251437922897652"><ele>70.0</ele><time>2026-04-23T15:12:23.999Z</time></trkpt><trkpt lat="47.74642238430814" lon="-1.7251340685822127"><ele>70.0</ele><time>2026-04-23T15:12:24.999Z</time></trkpt><trkpt lat="47.74664025568838" lon="-1.7251105925520922"><ele>70.0</ele><time>2026-04-23T15:12:25.999Z</time></trkpt><trkpt lat="47.746853508112316" lon="-1.7250990054320003"><ele>69.66666666666666</ele><time>2026-04-23T15:12:26.999Z</time></trkpt><trkpt lat="47.747070194762685" lon="-1.7250896570109524"><ele>69.33333333333333</ele><time>2026-04-23T15:12:27.999Z</time></trkpt><trkpt lat="47.74728493327657" lon="-1.7250810649232902"><ele>69.0</ele><time>2026-04-23T15:12:28.999Z</time></trkpt><trkpt lat="47.74749972963753" lon="-1.7250704501518803"><ele>69.0</ele><time>2026-04-23T15:12:29.999Z</time></trkpt><trkpt lat="47.747718085350186" lon="-1.7250601220645259"><ele>69.0</ele><time>2026-04-23T15:12:30.999Z</time></trkpt><trkpt lat="47.74792987872372" lon="-1.725051161945891"><ele>69.0</ele><time>2026-04-23T15:12:31.999Z</time></trkpt><trkpt lat="47.74814425418296" lon="-1.72503174644416"><ele>69.0</ele><time>2026-04-23T15:12:32.999Z</time></trkpt><trkpt lat="47.748355944265" lon="-1.7250257340462885"><ele>69.0</ele><time>2026-04-23T15:12:33.999Z</time></trkpt><trkpt lat="47.748564768266576" lon="-1.7250146875116097"><ele>69.0</ele><time>2026-04-23T15:12:34.999Z</time></trkpt><trkpt lat="47.748770096098944" lon="-1.7249975014339067"><ele>70.0</ele><time>2026-04-23T15:12:35.999Z</time></trkpt><trkpt lat="47.74897724938332" lon="-1.7249846884265234"><ele>71.0</ele><time>2026-04-23T15:12:36.999Z</time></trkpt><trkpt lat="47.74917670025025" lon="-1.7249746702950195"><ele>72.0</ele><time>2026-04-23T15:12:37.999Z</time></trkpt><trkpt lat="47.7493836932401" lon="-1.724961971165208"><ele>73.33333333333333</ele><time>2026-04-23T15:12:38.999Z</time></trkpt><trkpt lat="47.74959615490263" lon="-1.7249517806268788"><ele>74.66666666666666</ele><time>2026-04-23T15:12:39.999Z</time></trkpt><trkpt lat="47.7498018217317" lon="-1.7249344928688022"><ele>76.0</ele><time>2026-04-23T15:12:40.999Z</time></trkpt><trkpt lat="47.7500080692081" lon="-1.7249299469851458"><ele>76.33333333333333</ele><time>2026-04-23T15:12:41.999Z</time></trkpt><trkpt lat="47.75022214726524" lon="-1.724932129099621"><ele>76.66666666666667</ele><time>2026-04-23T15:12:42.999Z</time></trkpt><trkpt lat="47.750433417663686" lon="-1.724968831522182"><ele>77.0</ele><time>2026-04-23T15:12:43.999Z</time></trkpt><trkpt lat="47.75063727961502" lon="-1.7250334772787463"><ele>77.0</ele><time>2026-04-23T15:12:44.999Z</time></trkpt><trkpt lat="47.7508421085747" lon="-1.7251077364149618"><ele>77.0</ele><time>2026-04-23T15:12:45.999Z</time></trkpt><trkpt lat="47.75104145094201" lon="-1.7252101144880332"><ele>77.0</ele><time>2026-04-23T15:12:46.999Z</time></trkpt><trkpt lat="47.751245501154756" lon="-1.7252852758618908"><ele>77.0</ele><time>2026-04-23T15:12:47.999Z</time></trkpt><trkpt lat="47.75146174298425" lon="-1.7253573849476933"><ele>77.0</ele><time>2026-04-23T15:12:48.999Z</time></trkpt><trkpt lat="47.751668956414" lon="-1.7254371182136754"><ele>77.0</ele><time>2026-04-23T15:12:49.999Z</time></trkpt><trkpt lat="47.75187571518065" lon="-1.7255221417364575"><ele>75.0</ele><time>2026-04-23T15:12:50.999Z</time></trkpt><trkpt lat="47.75207690392209" lon="-1.7255999775448247"><ele>73.0</ele><time>2026-04-23T15:12:51.999Z</time></trkpt><trkpt lat="47.75228304982016" lon="-1.7256856079220153"><ele>71.0</ele><time>2026-04-23T15:12:52.999Z</time></trkpt><trkpt lat="47.75249027412639" lon="-1.7257469909191767"><ele>71.66666666666667</ele><time>2026-04-23T15:12:53.999Z</time></trkpt><trkpt lat="47.75270646145055" lon="-1.7257801513564748"><ele>72.33333333333333</ele><time>2026-04-23T15:12:54.999Z</time></trkpt><trkpt lat="47.75292544244528" lon="-1.7257862391124488"><ele>73.0</ele><time>2026-04-23T15:12:55.999Z</time></trkpt><trkpt lat="47.75313514927869" lon="-1.725775822795285"><ele>73.0</ele><time>2026-04-23T15:12:56.999Z</time></trkpt><trkpt lat="47.7533507058613" lon="-1.7257654892034453"><ele>73.0</ele><time>2026-04-23T15:12:57.999Z</time></trkpt><trkpt lat="47.75355948014185" lon="-1.7257599763399032"><ele>73.0</ele><time>2026-04-23T15:12:58.999Z</time></trkpt><trkpt lat="47.75375131059392" lon="-1.7257626037834477"><ele>72.0</ele><time>2026-04-23T15:12:59.999Z</time></trkpt><trkpt lat="47.7539233301791" lon="-1.7257805962066808"><ele>71.0</ele><time>2026-04-23T15:13:00.999Z</time></trkpt><trkpt lat="47.754094082529186" lon="-1.7258261118954055"><ele>70.0</ele><time>2026-04-23T15:13:01.999Z</time></trkpt><trkpt lat="47.75424852696566" lon="-1.725897705288925"><ele>67.66666666666666</ele><time>2026-04-23T15:13:02.999Z</time></trkpt><trkpt lat="47.75441082476241" lon="-1.7260053445812404"><ele>65.33333333333333</ele><time>2026-04-23T15:13:03.999Z</time></trkpt><trkpt lat="47.75458559900854" lon="-1.7261473360667587"><ele>63.0</ele><time>2026-04-23T15:13:04.999Z</time></trkpt><trkpt lat="47.75476095429966" lon="-1.7263010147627986"><ele>63.0</ele><time>2026-04-23T15:13:05.999Z</time></trkpt><trkpt lat="47.754942608070195" lon="-1.7264403603205323"><ele>63.0</ele><time>2026-04-23T15:13:06.999Z</time></trkpt><trkpt lat="47.75511878921951" lon="-1.7265799504459418"><ele>63.0</ele><time>2026-04-23T15:13:07.999Z</time></trkpt><trkpt lat="47.755305224296364" lon="-1.7267192760496892"><ele>60.33333333333333</ele><time>2026-04-23T15:13:08.999Z</time></trkpt><trkpt lat="47.75550818057476" lon="-1.7268450548917964"><ele>57.666666666666664</ele><time>2026-04-23T15:13:09.999Z</time></trkpt><trkpt lat="47.75570310111437" lon="-1.7269609866920612"><ele>55.0</ele><time>2026-04-23T15:13:10.999Z</time></trkpt><trkpt lat="47.755903846352574" lon="-1.7270592197352985"><ele>52.33333333333333</ele><time>2026-04-23T15:13:11.999Z</time></trkpt><trkpt lat="47.75611473771071" lon="-1.7271551839173283"><ele>49.666666666666664</ele><time>2026-04-23T15:13:12.999Z</time></trkpt><trkpt lat="47.756325927569115" lon="-1.727246259187896"><ele>47.0</ele><time>2026-04-23T15:13:13.999Z</time></trkpt><trkpt lat="47.756532162470855" lon="-1.7273435080806985"><ele>47.0</ele><time>2026-04-23T15:13:14.999Z</time></trkpt><trkpt lat="47.756734419345456" lon="-1.7274346541535155"><ele>47.0</ele><time>2026-04-23T15:13:15.999Z</time></trkpt><trkpt lat="47.756937692365604" lon="-1.727532998797452"><ele>47.0</ele><time>2026-04-23T15:13:16.999Z</time></trkpt><trkpt lat="47.75714845174192" lon="-1.7276386765944236"><ele>46.0</ele><time>2026-04-23T15:13:17.999Z</time></trkpt><trkpt lat="47.757356825867305" lon="-1.7277395800945032"><ele>45.0</ele><time>2026-04-23T15:13:18.999Z</time></trkpt><trkpt lat="47.757559757056235" lon="-1.727828961884855"><ele>44.0</ele><time>2026-04-23T15:13:19.999Z</time></trkpt><trkpt lat="47.75775749182191" lon="-1.7279195417504911"><ele>41.666666666666664</ele><time>2026-04-23T15:13:20.999Z</time></trkpt><trkpt lat="47.757961073813625" lon="-1.7280095239221622"><ele>39.333333333333336</ele><time>2026-04-23T15:13:21.999Z</time></trkpt><trkpt lat="47.758156266512515" lon="-1.7280898281185586"><ele>37.0</ele><time>2026-04-23T15:13:22.999Z</time></trkpt><trkpt lat="47.75835618362588" lon="-1.7281610469006408"><ele>36.0</ele><time>2026-04-23T15:13:23.999Z</time></trkpt><trkpt lat="47.75856287142044" lon="-1.728223899234553"><ele>35.0</ele><time>2026-04-23T15:13:24.999Z</time></trkpt><trkpt lat="47.758765495177066" lon="-1.7282909541061449"><ele>34.0</ele><time>2026-04-23T15:13:25.999Z</time></trkpt><trkpt lat="47.75895789849176" lon="-1.7283570324024542"><ele>34.0</ele><time>2026-04-23T15:13:26.999Z</time></trkpt><trkpt lat="47.75915571017928" lon="-1.728422879715989"><ele>34.0</ele><time>2026-04-23T15:13:27.999Z</time></trkpt><trkpt lat="47.75934758021723" lon="-1.7284881236128684"><ele>34.0</ele><time>2026-04-23T15:13:28.999Z</time></trkpt><trkpt lat="47.75954397027879" lon="-1.7285562402228936"><ele>33.0</ele><time>2026-04-23T15:13:29.999Z</time></trkpt><trkpt lat="47.75973438416867" lon="-1.7286277870583604"><ele>32.0</ele><time>2026-04-23T15:13:30.999Z</time></trkpt><trkpt lat="47.759927560619104" lon="-1.7287022571050465"><ele>31.0</ele><time>2026-04-23T15:13:31.999Z</time></trkpt><trkpt lat="47.76012625727052" lon="-1.7287734144688331"><ele>30.333333333333336</ele><time>2026-04-23T15:13:32.999Z</time></trkpt><trkpt lat="47.76033798796455" lon="-1.7288379965894407"><ele>29.666666666666664</ele><time>2026-04-23T15:13:33.999Z</time></trkpt><trkpt lat="47.76053609483848" lon="-1.7289057382433937"><ele>29.0</ele><time>2026-04-23T15:13:34.999Z</time></trkpt><trkpt lat="47.76074081800213" lon="-1.7289663077996116"><ele>29.0</ele><time>2026-04-23T15:13:35.999Z</time></trkpt><trkpt lat="47.76094133848113" lon="-1.729043049695239"><ele>29.0</ele><time>2026-04-23T15:13:36.999Z</time></trkpt><trkpt lat="47.76115045142234" lon="-1.7290982335370384"><ele>29.0</ele><time>2026-04-23T15:13:37.999Z</time></trkpt><trkpt lat="47.76137040707606" lon="-1.7291414339108755"><ele>29.666666666666664</ele><time>2026-04-23T15:13:38.999Z</time></trkpt><trkpt lat="47.76157958129097" lon="-1.7291932921907363"><ele>30.333333333333336</ele><time>2026-04-23T15:13:39.999Z</time></trkpt><trkpt lat="47.76178625811442" lon="-1.7292541639237924"><ele>31.0</ele><time>2026-04-23T15:13:40.999Z</time></trkpt><trkpt lat="47.761989988024844" lon="-1.7293373862044852"><ele>32.66666666666667</ele><time>2026-04-23T15:13:41.999Z</time></trkpt><trkpt lat="47.76218151099304" lon="-1.7294523250163203"><ele>34.333333333333336</ele><time>2026-04-23T15:13:42.999Z</time></trkpt><trkpt lat="47.76236103655715" lon="-1.7295933638560677"><ele>36.0</ele><time>2026-04-23T15:13:43.999Z</time></trkpt><trkpt lat="47.76254063674782" lon="-1.7297417817162124"><ele>37.666666666666664</ele><time>2026-04-23T15:13:44.999Z</time></trkpt><trkpt lat="47.76272112498763" lon="-1.7298843834142865"><ele>39.33333333333333</ele><time>2026-04-23T15:13:45.999Z</time></trkpt><trkpt lat="47.762901367419424" lon="-1.730030660988061"><ele>41.0</ele><time>2026-04-23T15:13:46.999Z</time></trkpt><trkpt lat="47.76308963937326" lon="-1.7301693320016474"><ele>41.666666666666664</ele><time>2026-04-23T15:13:47.999Z</time></trkpt><trkpt lat="47.76326578815126" lon="-1.7302963890503584"><ele>42.333333333333336</ele><time>2026-04-23T15:13:48.999Z</time></trkpt><trkpt lat="47.76344909490775" lon="-1.7304361876906835"><ele>43.0</ele><time>2026-04-23T15:13:49.998Z</time></trkpt><trkpt lat="47.76362875129375" lon="-1.730573505308396"><ele>45.66666666666667</ele><time>2026-04-23T15:13:50.998Z</time></trkpt><trkpt lat="47.76381316669987" lon="-1.7307164784002935"><ele>48.333333333333336</ele><time>2026-04-23T15:13:51.998Z</time></trkpt><trkpt lat="47.76399333017946" lon="-1.7308569079185043"><ele>51.0</ele><time>2026-04-23T15:13:52.998Z</time></trkpt><trkpt lat="47.76417742776613" lon="-1.730999407073774"><ele>53.66666666666667</ele><time>2026-04-23T15:13:53.998Z</time></trkpt><trkpt lat="47.76436461884143" lon="-1.7311426980951656"><ele>56.333333333333336</ele><time>2026-04-23T15:13:54.998Z</time></trkpt><trkpt lat="47.76455668650713" lon="-1.7312920303467312"><ele>59.0</ele><time>2026-04-23T15:13:55.998Z</time></trkpt><trkpt lat="47.7647473268378" lon="-1.7314404475027685"><ele>59.0</ele><time>2026-04-23T15:13:56.998Z</time></trkpt><trkpt lat="47.76493362556922" lon="-1.7315783946921048"><ele>59.0</ele><time>2026-04-23T15:13:57.998Z</time></trkpt><trkpt lat="47.76513022439803" lon="-1.731669327132836"><ele>59.0</ele><time>2026-04-23T15:13:58.998Z</time></trkpt><trkpt lat="47.76532704124655" lon="-1.7318028866981903"><ele>60.333333333333336</ele><time>2026-04-23T15:13:59.998Z</time></trkpt><trkpt lat="47.765533799710944" lon="-1.731885599283933"><ele>61.66666666666667</ele><time>2026-04-23T15:14:00.998Z</time></trkpt><trkpt lat="47.76573489556643" lon="-1.7319832188214246"><ele>63.0</ele><time>2026-04-23T15:14:01.998Z</time></trkpt><trkpt lat="47.76594053841928" lon="-1.7320891008687491"><ele>65.33333333333333</ele><time>2026-04-23T15:14:02.998Z</time></trkpt><trkpt lat="47.766142727592104" lon="-1.7322025844869218"><ele>67.66666666666666</ele><time>2026-04-23T15:14:03.998Z</time></trkpt><trkpt lat="47.766345786062054" lon="-1.7322987969825239"><ele>70.0</ele><time>2026-04-23T15:14:04.998Z</time></trkpt><trkpt lat="47.766547345270546" lon="-1.7323825356299174"><ele>70.0</ele><time>2026-04-23T15:14:05.999Z</time></trkpt><trkpt lat="47.76674362813415" lon="-1.7324912743659024"><ele>70.0</ele><time>2026-04-23T15:14:06.999Z</time></trkpt><trkpt lat="47.766937488492644" lon="-1.732611414633031"><ele>70.0</ele><time>2026-04-23T15:14:07.999Z</time></trkpt><trkpt lat="47.76710005529051" lon="-1.732743346762393"><ele>71.33333333333333</ele><time>2026-04-23T15:14:08.999Z</time></trkpt><trkpt lat="47.76724725517962" lon="-1.7328698782474976"><ele>72.66666666666667</ele><time>2026-04-23T15:14:09.999Z</time></trkpt><trkpt lat="47.76735274592787" lon="-1.7330049264097531"><ele>74.0</ele><time>2026-04-23T15:14:10.999Z</time></trkpt><trkpt lat="47.767435369577925" lon="-1.733175457432187"><ele>74.0</ele><time>2026-04-23T15:14:11.999Z</time></trkpt><trkpt lat="47.76752759126585" lon="-1.7333760770675486"><ele>74.0</ele><time>2026-04-23T15:14:12.999Z</time></trkpt><trkpt lat="47.767626897576356" lon="-1.7335877213390902"><ele>74.0</ele><time>2026-04-23T15:14:13.999Z</time></trkpt><trkpt lat="47.76772318805552" lon="-1.7338611777528052"><ele>75.66666666666667</ele><time>2026-04-23T15:14:14.999Z</time></trkpt><trkpt lat="47.7678474415752" lon="-1.7340843692450718"><ele>77.33333333333333</ele><time>2026-04-23T15:14:15.999Z</time></trkpt><trkpt lat="47.76799945430381" lon="-1.734314308672402"><ele>79.0</ele><time>2026-04-23T15:14:16.999Z</time></trkpt><trkpt lat="47.768130974654774" lon="-1.7345343267207698"><ele>78.66666666666666</ele><time>2026-04-23T15:14:17.999Z</time></trkpt><trkpt lat="47.76828603231461" lon="-1.734726668502835"><ele>78.33333333333333</ele><time>2026-04-23T15:14:19Z</time></trkpt><trkpt lat="47.76843472901035" lon="-1.734934052378597"><ele>78.0</ele><time>2026-04-23T15:14:20Z</time></trkpt><trkpt lat="47.76857813449431" lon="-1.7351329884679045"><ele>78.33333333333333</ele><time>2026-04-23T15:14:21Z</time></trkpt><trkpt lat="47.76871930277731" lon="-1.735344845348748"><ele>78.66666666666666</ele><time>2026-04-23T15:14:22Z</time></trkpt><trkpt lat="47.768852284391855" lon="-1.735556202526293"><ele>79.0</ele><time>2026-04-23T15:14:23Z</time></trkpt><trkpt lat="47.7689882504561" lon="-1.7357829310298307"><ele>79.0</ele><time>2026-04-23T15:14:24Z</time></trkpt><trkpt lat="47.76910910757997" lon="-1.7360021538923314"><ele>79.0</ele><time>2026-04-23T15:14:25Z</time></trkpt><trkpt lat="47.7692324717438" lon="-1.7362030468202179"><ele>79.0</ele><time>2026-04-23T15:14:26Z</time></trkpt><trkpt lat="47.76934577054841" lon="-1.7363796063343304"><ele>76.66666666666666</ele><time>2026-04-23T15:14:27Z</time></trkpt><trkpt lat="47.76944690805487" lon="-1.7365595590602143"><ele>74.33333333333333</ele><time>2026-04-23T15:14:28Z</time></trkpt><trkpt lat="47.769536912627956" lon="-1.7367674974500762"><ele>72.0</ele><time>2026-04-23T15:14:29Z</time></trkpt><trkpt lat="47.76959043980128" lon="-1.7370095842429756"><ele>72.0</ele><time>2026-04-23T15:14:30Z</time></trkpt><trkpt lat="47.76962839589033" lon="-1.737215979979508"><ele>72.0</ele><time>2026-04-23T15:14:31Z</time></trkpt><trkpt lat="47.769672766312645" lon="-1.7374368507544249"><ele>72.0</ele><time>2026-04-23T15:14:32Z</time></trkpt><trkpt lat="47.76973449945045" lon="-1.7376918725964163"><ele>72.0</ele><time>2026-04-23T15:14:33Z</time></trkpt><trkpt lat="47.769800387225956" lon="-1.7379692117350736"><ele>72.0</ele><time>2026-04-23T15:14:34Z</time></trkpt><trkpt lat="47.769873777209014" lon="-1.7382501821359249"><ele>72.0</ele><time>2026-04-23T15:14:35Z</time></trkpt><trkpt lat="47.76994087055592" lon="-1.7385167206654604"><ele>72.33333333333333</ele><time>2026-04-23T15:14:35.999Z</time></trkpt><trkpt lat="47.76998553919289" lon="-1.7387869584246298"><ele>72.66666666666666</ele><time>2026-04-23T15:14:36.999Z</time></trkpt><trkpt lat="47.77000583918245" lon="-1.7390874447447384"><ele>73.0</ele><time>2026-04-23T15:14:37.999Z</time></trkpt><trkpt lat="47.7700095036519" lon="-1.7393882619699843"><ele>73.33333333333333</ele><time>2026-04-23T15:14:38.999Z</time></trkpt><trkpt lat="47.770022504643684" lon="-1.7396799852361837"><ele>73.66666666666667</ele><time>2026-04-23T15:14:39.999Z</time></trkpt><trkpt lat="47.770069243759046" lon="-1.7399362929711544"><ele>74.0</ele><time>2026-04-23T15:14:40.999Z</time></trkpt><trkpt lat="47.77014498837148" lon="-1.7402036245746946"><ele>75.0</ele><time>2026-04-23T15:14:41.999Z</time></trkpt><trkpt lat="47.77023263521747" lon="-1.740488287552964"><ele>76.0</ele><time>2026-04-23T15:14:42.999Z</time></trkpt><trkpt lat="47.77031407021088" lon="-1.740765643220576"><ele>77.0</ele><time>2026-04-23T15:14:43.999Z</time></trkpt><trkpt lat="47.77040282982545" lon="-1.7410495773681318"><ele>78.0</ele><time>2026-04-23T15:14:44.999Z</time></trkpt><trkpt lat="47.770482948319085" lon="-1.741342922843111"><ele>79.0</ele><time>2026-04-23T15:14:45.999Z</time></trkpt><trkpt lat="47.77056157055184" lon="-1.741646735775421"><ele>80.0</ele><time>2026-04-23T15:14:46.999Z</time></trkpt><trkpt lat="47.77065541406688" lon="-1.74192405252141"><ele>80.0</ele><time>2026-04-23T15:14:47.999Z</time></trkpt><trkpt lat="47.7707569440198" lon="-1.7421990566758625"><ele>80.0</ele><time>2026-04-23T15:14:48.999Z</time></trkpt><trkpt lat="47.77088120992854" lon="-1.7424699214871755"><ele>80.0</ele><time>2026-04-23T15:14:49.999Z</time></trkpt><trkpt lat="47.77102104731132" lon="-1.7427097560154938"><ele>81.0</ele><time>2026-04-23T15:14:50.999Z</time></trkpt><trkpt lat="47.77115950593366" lon="-1.7429028979367538"><ele>82.0</ele><time>2026-04-23T15:14:51.999Z</time></trkpt><trkpt lat="47.771278988279455" lon="-1.7430592098541282"><ele>83.0</ele><time>2026-04-23T15:14:52.999Z</time></trkpt><trkpt lat="47.77135984348593" lon="-1.7432142132722837"><ele>83.0</ele><time>2026-04-23T15:14:53.999Z</time></trkpt><trkpt lat="47.77139955182952" lon="-1.7434000812796138"><ele>83.0</ele><time>2026-04-23T15:14:54.999Z</time></trkpt><trkpt lat="47.77141641728782" lon="-1.74360890184568"><ele>83.0</ele><time>2026-04-23T15:14:55.999Z</time></trkpt><trkpt lat="47.771416801723284" lon="-1.7438417915303372"><ele>83.0</ele><time>2026-04-23T15:14:56.999Z</time></trkpt><trkpt lat="47.77142118751285" lon="-1.7440769290043305"><ele>83.0</ele><time>2026-04-23T15:14:57.999Z</time></trkpt><trkpt lat="47.771437364602164" lon="-1.7443296316041073"><ele>83.0</ele><time>2026-04-23T15:14:58.999Z</time></trkpt><trkpt lat="47.7714520050342" lon="-1.744601774973509"><ele>83.0</ele><time>2026-04-23T15:14:59.999Z</time></trkpt><trkpt lat="47.77146785837423" lon="-1.7448841609070103"><ele>83.25</ele><time>2026-04-23T15:15:00.999Z</time></trkpt><trkpt lat="47.77147655340464" lon="-1.7451346455494394"><ele>83.5</ele><time>2026-04-23T15:15:01.999Z</time></trkpt><trkpt lat="47.77148849210358" lon="-1.7453316048698067"><ele>83.75</ele><time>2026-04-23T15:15:02.999Z</time></trkpt><trkpt lat="47.771498592608545" lon="-1.7455006780639906"><ele>84.0</ele><time>2026-04-23T15:15:03.999Z</time></trkpt><trkpt lat="47.77150804439175" lon="-1.7456183123133147"><ele>84.0</ele><time>2026-04-23T15:15:04.999Z</time></trkpt><trkpt lat="47.77156920074617" lon="-1.7457122134781902"><ele>84.0</ele><time>2026-04-23T15:15:06.999Z</time></trkpt><trkpt lat="47.77167118010524" lon="-1.745734395894515"><ele>84.0</ele><time>2026-04-23T15:15:08.999Z</time></trkpt><trkpt lat="47.771741600573556" lon="-1.7457052988863038"><ele>84.0</ele><time>2026-04-23T15:15:09.999Z</time></trkpt><trkpt lat="47.771820826266776" lon="-1.7456821958379771"><ele>84.0</ele><time>2026-04-23T15:15:10.999Z</time></trkpt><trkpt lat="47.77189449826336" lon="-1.7456553041041831"><ele>84.0</ele><time>2026-04-23T15:15:11.999Z</time></trkpt><trkpt lat="47.7719751519011" lon="-1.7456349398483475"><ele>84.0</ele><time>2026-04-23T15:15:12.999Z</time></trkpt><trkpt lat="47.77207290616512" lon="-1.7456055846197196"><ele>84.0</ele><time>2026-04-23T15:15:13.999Z</time></trkpt><trkpt lat="47.77217783586956" lon="-1.7455682243116128"><ele>84.0</ele><time>2026-04-23T15:15:14.999Z</time></trkpt><trkpt lat="47.77228315068343" lon="-1.7455187364065672"><ele>84.0</ele><time>2026-04-23T15:15:15.999Z</time></trkpt><trkpt lat="47.77239882681011" lon="-1.745478187843259"><ele>84.0</ele><time>2026-04-23T15:15:16.999Z</time></trkpt><trkpt lat="47.77252165163256" lon="-1.745435349264014"><ele>84.0</ele><time>2026-04-23T15:15:17.999Z</time></trkpt><trkpt lat="47.7726368605632" lon="-1.745399653151722"><ele>84.0</ele><time>2026-04-23T15:15:18.999Z</time></trkpt><trkpt lat="47.77275555001214" lon="-1.745357612596034"><ele>84.0</ele><time>2026-04-23T15:15:19.999Z</time></trkpt><trkpt lat="47.77288274449477" lon="-1.7453141984254723"><ele>84.0</ele><time>2026-04-23T15:15:20.999Z</time></trkpt><trkpt lat="47.77301825785613" lon="-1.7452678259914298"><ele>83.25</ele><time>2026-04-23T15:15:21.999Z</time></trkpt><trkpt lat="47.773157846959315" lon="-1.745219375014887"><ele>82.5</ele><time>2026-04-23T15:15:22.999Z</time></trkpt><trkpt lat="47.77330773825436" lon="-1.7451603985132218"><ele>81.75</ele><time>2026-04-23T15:15:23.999Z</time></trkpt><trkpt lat="47.7734520208182" lon="-1.7451095031389123"><ele>81.0</ele><time>2026-04-23T15:15:24.999Z</time></trkpt><trkpt lat="47.77361407589446" lon="-1.7450492081682292"><ele>79.66666666666667</ele><time>2026-04-23T15:15:25.999Z</time></trkpt><trkpt lat="47.7737833934668" lon="-1.7449868680151799"><ele>78.33333333333334</ele><time>2026-04-23T15:15:26.999Z</time></trkpt><trkpt lat="47.77395671705455" lon="-1.7449200733439518"><ele>77.0</ele><time>2026-04-23T15:15:27.999Z</time></trkpt><trkpt lat="47.77413365828928" lon="-1.7448593450215217"><ele>77.0</ele><time>2026-04-23T15:15:28.999Z</time></trkpt><trkpt lat="47.77432182122249" lon="-1.7447963065379952"><ele>77.0</ele><time>2026-04-23T15:15:29.999Z</time></trkpt><trkpt lat="47.77451827837041" lon="-1.7447294745653008"><ele>77.0</ele><time>2026-04-23T15:15:30.999Z</time></trkpt><trkpt lat="47.77471409613695" lon="-1.7446607320844245"><ele>76.33333333333334</ele><time>2026-04-23T15:15:31.999Z</time></trkpt><trkpt lat="47.7748986651065" lon="-1.7445964394807896"><ele>75.66666666666667</ele><time>2026-04-23T15:15:32.999Z</time></trkpt><trkpt lat="47.775089687266906" lon="-1.7445299205830738"><ele>75.0</ele><time>2026-04-23T15:15:33.999Z</time></trkpt><trkpt lat="47.7752883460092" lon="-1.7444667545403716"><ele>75.0</ele><time>2026-04-23T15:15:34.999Z</time></trkpt><trkpt lat="47.775480385897" lon="-1.744391480801893"><ele>75.0</ele><time>2026-04-23T15:15:35.999Z</time></trkpt><trkpt lat="47.77567251884511" lon="-1.7443182466877738"><ele>75.0</ele><time>2026-04-23T15:15:36.999Z</time></trkpt><trkpt lat="47.77585688918643" lon="-1.7442385169440946"><ele>76.0</ele><time>2026-04-23T15:15:37.999Z</time></trkpt><trkpt lat="47.7760428579166" lon="-1.7441545735145234"><ele>77.0</ele><time>2026-04-23T15:15:38.999Z</time></trkpt><trkpt lat="47.776233137910395" lon="-1.744078338305065"><ele>78.0</ele><time>2026-04-23T15:15:39.999Z</time></trkpt><trkpt lat="47.776421534570204" lon="-1.743968667620367"><ele>78.0</ele><time>2026-04-23T15:15:40.999Z</time></trkpt><trkpt lat="47.7766083780051" lon="-1.7439022432600684"><ele>78.0</ele><time>2026-04-23T15:15:41.999Z</time></trkpt><trkpt lat="47.776793697690614" lon="-1.743807633826037"><ele>78.0</ele><time>2026-04-23T15:15:42.999Z</time></trkpt><trkpt lat="47.77696813103415" lon="-1.743717027989109"><ele>78.33333333333333</ele><time>2026-04-23T15:15:43.999Z</time></trkpt><trkpt lat="47.77716170843274" lon="-1.7436312724434855"><ele>78.66666666666666</ele><time>2026-04-23T15:15:44.999Z</time></trkpt><trkpt lat="47.77735448967043" lon="-1.7435431557817036"><ele>79.0</ele><time>2026-04-23T15:15:45.999Z</time></trkpt><trkpt lat="47.777546769003266" lon="-1.743450453053285"><ele>79.33333333333333</ele><time>2026-04-23T15:15:46.999Z</time></trkpt><trkpt lat="47.77773366041915" lon="-1.743358115969782"><ele>79.66666666666667</ele><time>2026-04-23T15:15:47.999Z</time></trkpt><trkpt lat="47.777922743075735" lon="-1.7432753830549184"><ele>80.0</ele><time>2026-04-23T15:15:48.999Z</time></trkpt><trkpt lat="47.77810954861666" lon="-1.743191425877502"><ele>80.0</ele><time>2026-04-23T15:15:49.999Z</time></trkpt><trkpt lat="47.77829323963661" lon="-1.7431019063145368"><ele>80.0</ele><time>2026-04-23T15:15:50.999Z</time></trkpt><trkpt lat="47.77848139978339" lon="-1.7430071650278105"><ele>80.0</ele><time>2026-04-23T15:15:51.999Z</time></trkpt><trkpt lat="47.77867655666075" lon="-1.7429143357077952"><ele>80.33333333333334</ele><time>2026-04-23T15:15:52.999Z</time></trkpt><trkpt lat="47.77887086431007" lon="-1.7428146758968988"><ele>80.66666666666667</ele><time>2026-04-23T15:15:53.999Z</time></trkpt><trkpt lat="47.77905729984519" lon="-1.7427249986139137"><ele>81.0</ele><time>2026-04-23T15:15:54.999Z</time></trkpt><trkpt lat="47.779239723471726" lon="-1.7426370909266329"><ele>81.0</ele><time>2026-04-23T15:15:55.999Z</time></trkpt><trkpt lat="47.77943216275939" lon="-1.7425475733960598"><ele>81.0</ele><time>2026-04-23T15:15:56.999Z</time></trkpt><trkpt lat="47.77961177432313" lon="-1.7424613942507736"><ele>81.0</ele><time>2026-04-23T15:15:57.999Z</time></trkpt><trkpt lat="47.77979549285483" lon="-1.742374264466458"><ele>81.0</ele><time>2026-04-23T15:15:58.999Z</time></trkpt><trkpt lat="47.779989693433386" lon="-1.7422808601411486"><ele>81.0</ele><time>2026-04-23T15:15:59.999Z</time></trkpt><trkpt lat="47.780179350749975" lon="-1.7421898519367325"><ele>81.0</ele><time>2026-04-23T15:16:00.999Z</time></trkpt><trkpt lat="47.78037601774251" lon="-1.7421012993101281"><ele>80.66666666666667</ele><time>2026-04-23T15:16:01.999Z</time></trkpt><trkpt lat="47.780568532348646" lon="-1.7420097589307102"><ele>80.33333333333334</ele><time>2026-04-23T15:16:02.999Z</time></trkpt><trkpt lat="47.780769043866066" lon="-1.7419137736213437"><ele>80.0</ele><time>2026-04-23T15:16:03.999Z</time></trkpt><trkpt lat="47.78095844070029" lon="-1.741816228899059"><ele>78.33333333333334</ele><time>2026-04-23T15:16:04.999Z</time></trkpt><trkpt lat="47.78113529760336" lon="-1.7417273071167079"><ele>76.66666666666667</ele><time>2026-04-23T15:16:05.999Z</time></trkpt><trkpt lat="47.781303558477845" lon="-1.7416501759323815"><ele>75.0</ele><time>2026-04-23T15:16:06.999Z</time></trkpt><trkpt lat="47.781455656794016" lon="-1.7415758420685092"><ele>75.0</ele><time>2026-04-23T15:16:07.999Z</time></trkpt><trkpt lat="47.78159935382518" lon="-1.741508852442697"><ele>75.0</ele><time>2026-04-23T15:16:08.999Z</time></trkpt><trkpt lat="47.781733187041304" lon="-1.7414345756815126"><ele>75.0</ele><time>2026-04-23T15:16:09.999Z</time></trkpt><trkpt lat="47.78188573200924" lon="-1.7413554485389158"><ele>76.33333333333333</ele><time>2026-04-23T15:16:10.999Z</time></trkpt><trkpt lat="47.782051815379724" lon="-1.7412799814354576"><ele>77.66666666666666</ele><time>2026-04-23T15:16:11.999Z</time></trkpt><trkpt lat="47.782224168909366" lon="-1.7412082439732024"><ele>79.0</ele><time>2026-04-23T15:16:12.999Z</time></trkpt><trkpt lat="47.78239975099659" lon="-1.7411359367075958"><ele>79.0</ele><time>2026-04-23T15:16:13.999Z</time></trkpt><trkpt lat="47.78257800600406" lon="-1.7410990751181976"><ele>79.0</ele><time>2026-04-23T15:16:14.999Z</time></trkpt><trkpt lat="47.78276234000809" lon="-1.7410880917551252"><ele>79.0</ele><time>2026-04-23T15:16:16Z</time></trkpt><trkpt lat="47.78295300208351" lon="-1.7411077592522972"><ele>78.33333333333333</ele><time>2026-04-23T15:16:17Z</time></trkpt><trkpt lat="47.7831579942681" lon="-1.7411557807112645"><ele>77.66666666666667</ele><time>2026-04-23T15:16:18Z</time></trkpt><trkpt lat="47.783370830270854" lon="-1.7412445839357367"><ele>77.0</ele><time>2026-04-23T15:16:19Z</time></trkpt><trkpt lat="47.78358190852789" lon="-1.7413560076249388"><ele>75.0</ele><time>2026-04-23T15:16:20Z</time></trkpt><trkpt lat="47.783788529746566" lon="-1.7414579478455956"><ele>73.0</ele><time>2026-04-23T15:16:21Z</time></trkpt><trkpt lat="47.78399690365241" lon="-1.741556977454355"><ele>71.0</ele><time>2026-04-23T15:16:22Z</time></trkpt><trkpt lat="47.784208886886475" lon="-1.7416505311091834"><ele>71.0</ele><time>2026-04-23T15:16:23Z</time></trkpt><trkpt lat="47.78440810833948" lon="-1.741723389154195"><ele>71.0</ele><time>2026-04-23T15:16:24Z</time></trkpt><trkpt lat="47.78462380916374" lon="-1.7418082152036558"><ele>71.0</ele><time>2026-04-23T15:16:25Z</time></trkpt><trkpt lat="47.78482275578695" lon="-1.7419093632390557"><ele>70.33333333333334</ele><time>2026-04-23T15:16:26Z</time></trkpt><trkpt lat="47.78504108950396" lon="-1.7419866030084634"><ele>69.66666666666667</ele><time>2026-04-23T15:16:27Z</time></trkpt><trkpt lat="47.78524401679659" lon="-1.742073845290554"><ele>69.0</ele><time>2026-04-23T15:16:28Z</time></trkpt><trkpt lat="47.7854427284621" lon="-1.7421461181041669"><ele>69.66666666666667</ele><time>2026-04-23T15:16:29Z</time></trkpt><trkpt lat="47.78565005140158" lon="-1.7421989554091721"><ele>70.33333333333334</ele><time>2026-04-23T15:16:30Z</time></trkpt><trkpt lat="47.78586546980126" lon="-1.7422286840868388"><ele>71.0</ele><time>2026-04-23T15:16:31Z</time></trkpt><trkpt lat="47.78607519154998" lon="-1.7422373908991566"><ele>71.0</ele><time>2026-04-23T15:16:32Z</time></trkpt><trkpt lat="47.78628880765149" lon="-1.7422236819648005"><ele>71.0</ele><time>2026-04-23T15:16:33Z</time></trkpt><trkpt lat="47.786498352204205" lon="-1.7421964481753225"><ele>71.0</ele><time>2026-04-23T15:16:34Z</time></trkpt><trkpt lat="47.7867246931568" lon="-1.7421356446013"><ele>69.66666666666667</ele><time>2026-04-23T15:16:35Z</time></trkpt><trkpt lat="47.78693105507595" lon="-1.742095357766688"><ele>68.33333333333333</ele><time>2026-04-23T15:16:36Z</time></trkpt><trkpt lat="47.787150039801695" lon="-1.7420489026411876"><ele>67.0</ele><time>2026-04-23T15:16:37Z</time></trkpt><trkpt lat="47.78735933940809" lon="-1.7420006771265655"><ele>67.0</ele><time>2026-04-23T15:16:38Z</time></trkpt><trkpt lat="47.78756897197244" lon="-1.741950835964524"><ele>67.0</ele><time>2026-04-23T15:16:39Z</time></trkpt><trkpt lat="47.78779319046407" lon="-1.7418901430006446"><ele>67.0</ele><time>2026-04-23T15:16:40Z</time></trkpt><trkpt lat="47.78801073462722" lon="-1.741830509500431"><ele>66.0</ele><time>2026-04-23T15:16:41Z</time></trkpt><trkpt lat="47.788229007428804" lon="-1.7417790448708184"><ele>65.0</ele><time>2026-04-23T15:16:42Z</time></trkpt><trkpt lat="47.78844242008163" lon="-1.7417180000196903"><ele>64.0</ele><time>2026-04-23T15:16:43Z</time></trkpt><trkpt lat="47.788656330795185" lon="-1.7416690267045203"><ele>62.33333333333333</ele><time>2026-04-23T15:16:44Z</time></trkpt><trkpt lat="47.78886654984966" lon="-1.7416256895569517"><ele>60.66666666666667</ele><time>2026-04-23T15:16:45Z</time></trkpt><trkpt lat="47.7890848661189" lon="-1.741583246308639"><ele>59.0</ele><time>2026-04-23T15:16:46Z</time></trkpt><trkpt lat="47.789305886209775" lon="-1.741529484058458"><ele>58.0</ele><time>2026-04-23T15:16:47Z</time></trkpt><trkpt lat="47.78951729310974" lon="-1.74148601241061"><ele>57.0</ele><time>2026-04-23T15:16:48Z</time></trkpt><trkpt lat="47.78972825517236" lon="-1.7414411911406686"><ele>56.0</ele><time>2026-04-23T15:16:49Z</time></trkpt><trkpt lat="47.789940131185546" lon="-1.7413887530361551"><ele>56.0</ele><time>2026-04-23T15:16:50Z</time></trkpt><trkpt lat="47.79015822308189" lon="-1.741334827824959"><ele>56.0</ele><time>2026-04-23T15:16:51Z</time></trkpt><trkpt lat="47.79036227044177" lon="-1.741289746628203"><ele>56.0</ele><time>2026-04-23T15:16:52Z</time></trkpt><trkpt lat="47.79056740442329" lon="-1.741241018895913"><ele>55.0</ele><time>2026-04-23T15:16:53Z</time></trkpt><trkpt lat="47.79077277649986" lon="-1.7411911388551056"><ele>54.0</ele><time>2026-04-23T15:16:53.999Z</time></trkpt><trkpt lat="47.79098080453906" lon="-1.7411425020141784"><ele>53.0</ele><time>2026-04-23T15:16:54.999Z</time></trkpt><trkpt lat="47.791190561274995" lon="-1.741096982313837"><ele>52.333333333333336</ele><time>2026-04-23T15:16:55.999Z</time></trkpt><trkpt lat="47.791391097468384" lon="-1.7410649546954158"><ele>51.66666666666667</ele><time>2026-04-23T15:16:56.999Z</time></trkpt><trkpt lat="47.79159427886781" lon="-1.741007412215845"><ele>51.0</ele><time>2026-04-23T15:16:57.999Z</time></trkpt><trkpt lat="47.79181743914837" lon="-1.7410641078813027"><ele>49.666666666666664</ele><time>2026-04-23T15:16:58.999Z</time></trkpt><trkpt lat="47.792030256941274" lon="-1.7411020420394567"><ele>48.33333333333333</ele><time>2026-04-23T15:16:59.999Z</time></trkpt><trkpt lat="47.79224577405072" lon="-1.741150676453944"><ele>47.0</ele><time>2026-04-23T15:17:00.999Z</time></trkpt><trkpt lat="47.79245958715126" lon="-1.7412028820867897"><ele>46.33333333333333</ele><time>2026-04-23T15:17:01.999Z</time></trkpt><trkpt lat="47.79267663591879" lon="-1.7412453277722286"><ele>45.666666666666664</ele><time>2026-04-23T15:17:02.999Z</time></trkpt><trkpt lat="47.79290027418387" lon="-1.7412910960779266"><ele>45.0</ele><time>2026-04-23T15:17:03.999Z</time></trkpt><trkpt lat="47.79313024143138" lon="-1.741328774682106"><ele>45.0</ele><time>2026-04-23T15:17:04.999Z</time></trkpt><trkpt lat="47.79335381361177" lon="-1.7413699466523394"><ele>45.0</ele><time>2026-04-23T15:17:05.999Z</time></trkpt><trkpt lat="47.79357025128549" lon="-1.7414111128395962"><ele>45.0</ele><time>2026-04-23T15:17:06.999Z</time></trkpt><trkpt lat="47.79378499812554" lon="-1.7414536484817567"><ele>45.0</ele><time>2026-04-23T15:17:07.999Z</time></trkpt><trkpt lat="47.79400480727806" lon="-1.7414979610590653"><ele>45.0</ele><time>2026-04-23T15:17:08.999Z</time></trkpt><trkpt lat="47.79421635585343" lon="-1.7415432532372976"><ele>45.0</ele><time>2026-04-23T15:17:09.999Z</time></trkpt><trkpt lat="47.79442624239085" lon="-1.7415822523937345"><ele>45.0</ele><time>2026-04-23T15:17:10.999Z</time></trkpt><trkpt lat="47.794637486761" lon="-1.7416152214566998"><ele>45.0</ele><time>2026-04-23T15:17:11.999Z</time></trkpt><trkpt lat="47.79485481862157" lon="-1.7416560352992594"><ele>45.0</ele><time>2026-04-23T15:17:12.999Z</time></trkpt><trkpt lat="47.79506861598439" lon="-1.7417042692344382"><ele>45.333333333333336</ele><time>2026-04-23T15:17:13.999Z</time></trkpt><trkpt lat="47.79528228296989" lon="-1.7417453641300893"><ele>45.66666666666667</ele><time>2026-04-23T15:17:14.999Z</time></trkpt><trkpt lat="47.79549451911331" lon="-1.7417892999140774"><ele>46.0</ele><time>2026-04-23T15:17:15.999Z</time></trkpt><trkpt lat="47.79570275561015" lon="-1.7418288607928165"><ele>46.0</ele><time>2026-04-23T15:17:16.999Z</time></trkpt><trkpt lat="47.795911045466404" lon="-1.7418524258439483"><ele>46.0</ele><time>2026-04-23T15:17:17.999Z</time></trkpt><trkpt lat="47.79611741456302" lon="-1.741855707046417"><ele>46.0</ele><time>2026-04-23T15:17:18.999Z</time></trkpt><trkpt lat="47.79633267478962" lon="-1.7418511436477246"><ele>46.333333333333336</ele><time>2026-04-23T15:17:19.999Z</time></trkpt><trkpt lat="47.79654580446056" lon="-1.7418474669687576"><ele>46.666666666666664</ele><time>2026-04-23T15:17:20.999Z</time></trkpt><trkpt lat="47.796745758382" lon="-1.741837714986774"><ele>47.0</ele><time>2026-04-23T15:17:21.999Z</time></trkpt><trkpt lat="47.79695527535441" lon="-1.7418493451390566"><ele>47.0</ele><time>2026-04-23T15:17:22.999Z</time></trkpt><trkpt lat="47.79716423838985" lon="-1.7418508282475371"><ele>47.0</ele><time>2026-04-23T15:17:23.999Z</time></trkpt><trkpt lat="47.7973774988415" lon="-1.741845560005141"><ele>47.0</ele><time>2026-04-23T15:17:24.999Z</time></trkpt><trkpt lat="47.79759511583505" lon="-1.7418369237859168"><ele>46.666666666666664</ele><time>2026-04-23T15:17:25.999Z</time></trkpt><trkpt lat="47.79781280225541" lon="-1.7418353140180443"><ele>46.333333333333336</ele><time>2026-04-23T15:17:26.999Z</time></trkpt><trkpt lat="47.798029821710436" lon="-1.7418327271954288"><ele>46.0</ele><time>2026-04-23T15:17:27.999Z</time></trkpt><trkpt lat="47.798246290265986" lon="-1.741824824499384"><ele>46.0</ele><time>2026-04-23T15:17:28.999Z</time></trkpt><trkpt lat="47.79846448638605" lon="-1.741824069188599"><ele>46.0</ele><time>2026-04-23T15:17:29.999Z</time></trkpt><trkpt lat="47.79868136913566" lon="-1.741818486435959"><ele>46.0</ele><time>2026-04-23T15:17:30.999Z</time></trkpt><trkpt lat="47.7988966123578" lon="-1.7418247648950458"><ele>46.66666666666667</ele><time>2026-04-23T15:17:31.999Z</time></trkpt><trkpt lat="47.799108863847366" lon="-1.7418330689127464"><ele>47.333333333333336</ele><time>2026-04-23T15:17:32.999Z</time></trkpt><trkpt lat="47.79931803064249" lon="-1.7418387195558325"><ele>48.0</ele><time>2026-04-23T15:17:33.999Z</time></trkpt><trkpt lat="47.7995252388947" lon="-1.7418357538133942"><ele>48.33333333333333</ele><time>2026-04-23T15:17:34.999Z</time></trkpt><trkpt lat="47.79971845567922" lon="-1.7418303840581322"><ele>48.666666666666664</ele><time>2026-04-23T15:17:35.999Z</time></trkpt><trkpt lat="47.79990904075193" lon="-1.7418235929916204"><ele>49.0</ele><time>2026-04-23T15:17:36.999Z</time></trkpt><trkpt lat="47.800096107034484" lon="-1.7418242476545807"><ele>49.666666666666664</ele><time>2026-04-23T15:17:37.999Z</time></trkpt><trkpt lat="47.80028382326099" lon="-1.7418339600172439"><ele>50.33333333333333</ele><time>2026-04-23T15:17:38.999Z</time></trkpt><trkpt lat="47.800461412085575" lon="-1.7418340947112259"><ele>51.0</ele><time>2026-04-23T15:17:39.999Z</time></trkpt><trkpt lat="47.800636289591125" lon="-1.7418295458426145"><ele>51.0</ele><time>2026-04-23T15:17:40.999Z</time></trkpt><trkpt lat="47.80079025761477" lon="-1.7418235635115242"><ele>51.0</ele><time>2026-04-23T15:17:41.999Z</time></trkpt><trkpt lat="47.80093744129899" lon="-1.7418092032572152"><ele>51.0</ele><time>2026-04-23T15:17:42.999Z</time></trkpt><trkpt lat="47.80106364499139" lon="-1.7418203123720273"><ele>51.0</ele><time>2026-04-23T15:17:43.999Z</time></trkpt><trkpt lat="47.80118134792367" lon="-1.7418186856428295"><ele>51.199999999999996</ele><time>2026-04-23T15:17:44.999Z</time></trkpt><trkpt lat="47.801291214705905" lon="-1.7418236297061835"><ele>51.4</ele><time>2026-04-23T15:17:45.999Z</time></trkpt><trkpt lat="47.80137990867063" lon="-1.7418316832984395"><ele>51.6</ele><time>2026-04-23T15:17:46.999Z</time></trkpt><trkpt lat="47.8014742481188" lon="-1.7418261201666296"><ele>51.8</ele><time>2026-04-23T15:17:47.999Z</time></trkpt><trkpt lat="47.801574218849424" lon="-1.7418117585162474"><ele>52.0</ele><time>2026-04-23T15:17:48.999Z</time></trkpt><trkpt lat="47.80169168065239" lon="-1.7417595642051509"><ele>52.0</ele><time>2026-04-23T15:17:49.999Z</time></trkpt><trkpt lat="47.801824607656265" lon="-1.7417320741435038"><ele>52.0</ele><time>2026-04-23T15:17:50.999Z</time></trkpt><trkpt lat="47.80195965369279" lon="-1.7417144693440958"><ele>52.0</ele><time>2026-04-23T15:17:51.999Z</time></trkpt><trkpt lat="47.80207553059848" lon="-1.741691347948915"><ele>52.0</ele><time>2026-04-23T15:17:52.999Z</time></trkpt><trkpt lat="47.80217591512756" lon="-1.7416642040294426"><ele>51.99999999999999</ele><time>2026-04-23T15:17:53.999Z</time></trkpt><trkpt lat="47.80225589618987" lon="-1.741640378591195"><ele>52.0</ele><time>2026-04-23T15:17:54.999Z</time></trkpt><trkpt lat="47.80232268447632" lon="-1.7416026137262148"><ele>52.0</ele><time>2026-04-23T15:17:55.999Z</time></trkpt><trkpt lat="47.802389676119624" lon="-1.7415718847984123"><ele>52.0</ele><time>2026-04-23T15:17:56.999Z</time></trkpt><trkpt lat="47.80248133736311" lon="-1.7415248970702792"><ele>51.99999999999999</ele><time>2026-04-23T15:17:58.999Z</time></trkpt><trkpt lat="47.80254504171221" lon="-1.7414753172810438"><ele>52.0</ele><time>2026-04-23T15:18:00.999Z</time></trkpt><trkpt lat="47.80261947988445" lon="-1.7414552259973735"><ele>52.166666666666664</ele><time>2026-04-23T15:18:22Z</time></trkpt><trkpt lat="47.802740799674076" lon="-1.741405985552993"><ele>52.33333333333333</ele><time>2026-04-23T15:18:24Z</time></trkpt><trkpt lat="47.80281003512892" lon="-1.7413758539285544"><ele>52.5</ele><time>2026-04-23T15:18:25Z</time></trkpt><trkpt lat="47.80287002871435" lon="-1.7413418733587678"><ele>52.66666666666667</ele><time>2026-04-23T15:18:26Z</time></trkpt><trkpt lat="47.80294485994845" lon="-1.741300471844883"><ele>52.833333333333336</ele><time>2026-04-23T15:18:27Z</time></trkpt><trkpt lat="47.80302857617678" lon="-1.7412588950194325"><ele>53.0</ele><time>2026-04-23T15:18:29Z</time></trkpt><trkpt lat="47.80313484707192" lon="-1.741205709455588"><ele>53.0</ele><time>2026-04-23T15:18:33Z</time></trkpt><trkpt lat="47.80321270854531" lon="-1.7411852174139637"><ele>53.0</ele><time>2026-04-23T15:18:34Z</time></trkpt><trkpt lat="47.803303527391556" lon="-1.7411548682810705"><ele>53.0</ele><time>2026-04-23T15:18:35Z</time></trkpt><trkpt lat="47.80344561524755" lon="-1.7411019035091884"><ele>53.0</ele><time>2026-04-23T15:18:36Z</time></trkpt><trkpt lat="47.80356786129529" lon="-1.7410727478565335"><ele>53.0</ele><time>2026-04-23T15:18:37Z</time></trkpt><trkpt lat="47.80370760160922" lon="-1.7410451567977085"><ele>53.25</ele><time>2026-04-23T15:18:38Z</time></trkpt><trkpt lat="47.803872572731144" lon="-1.7410321265787552"><ele>53.5</ele><time>2026-04-23T15:18:39Z</time></trkpt><trkpt lat="47.803999707111636" lon="-1.7410433826584721"><ele>53.75</ele><time>2026-04-23T15:18:40Z</time></trkpt><trkpt lat="47.80413596689802" lon="-1.7410475070087814"><ele>54.0</ele><time>2026-04-23T15:18:41Z</time></trkpt><trkpt lat="47.80426234928431" lon="-1.7410580930358925"><ele>54.2</ele><time>2026-04-23T15:18:42Z</time></trkpt><trkpt lat="47.80437429946755" lon="-1.7410584458985485"><ele>54.400000000000006</ele><time>2026-04-23T15:18:43Z</time></trkpt><trkpt lat="47.80447558482884" lon="-1.7410615310064053"><ele>54.6</ele><time>2026-04-23T15:18:44Z</time></trkpt><trkpt lat="47.80457483669252" lon="-1.741054399485659"><ele>54.8</ele><time>2026-04-23T15:18:45Z</time></trkpt><trkpt lat="47.80466774223414" lon="-1.7410580131437596"><ele>55.0</ele><time>2026-04-23T15:18:46Z</time></trkpt><trkpt lat="47.80478254859655" lon="-1.7410629701314801"><ele>55.0</ele><time>2026-04-23T15:18:47Z</time></trkpt><trkpt lat="47.80490713887693" lon="-1.741057412745433"><ele>55.0</ele><time>2026-04-23T15:18:48Z</time></trkpt><trkpt lat="47.805010169219734" lon="-1.7410579344567478"><ele>55.0</ele><time>2026-04-23T15:18:49Z</time></trkpt><trkpt lat="47.80508969476174" lon="-1.7410608954000486"><ele>55.0</ele><time>2026-04-23T15:18:50Z</time></trkpt><trkpt lat="47.80516482359091" lon="-1.7410604141094421"><ele>55.0</ele><time>2026-04-23T15:18:51Z</time></trkpt><trkpt lat="47.80524426965192" lon="-1.7410658191893131"><ele>55.4</ele><time>2026-04-23T15:18:52Z</time></trkpt><trkpt lat="47.80533897242867" lon="-1.7410535578223707"><ele>55.8</ele><time>2026-04-23T15:18:53Z</time></trkpt><trkpt lat="47.805436639450285" lon="-1.7410521771903775"><ele>56.2</ele><time>2026-04-23T15:18:54Z</time></trkpt><trkpt lat="47.80552848151435" lon="-1.7410504257812618"><ele>56.6</ele><time>2026-04-23T15:18:55Z</time></trkpt><trkpt lat="47.80563905128955" lon="-1.741054788190118"><ele>57.0</ele><time>2026-04-23T15:18:56Z</time></trkpt><trkpt lat="47.80575019758545" lon="-1.7410136260615994"><ele>57.0</ele><time>2026-04-23T15:18:57Z</time></trkpt><trkpt lat="47.80588909838491" lon="-1.7410385564183266"><ele>57.0</ele><time>2026-04-23T15:18:58Z</time></trkpt><trkpt lat="47.80603945874096" lon="-1.7410520588489269"><ele>57.0</ele><time>2026-04-23T15:18:59Z</time></trkpt><trkpt lat="47.80620369442019" lon="-1.741034248382567"><ele>57.5</ele><time>2026-04-23T15:19:00Z</time></trkpt><trkpt lat="47.806348166279555" lon="-1.7410317968778841"><ele>58.0</ele><time>2026-04-23T15:19:01Z</time></trkpt><trkpt lat="47.806495548333025" lon="-1.741031862308622"><ele>58.5</ele><time>2026-04-23T15:19:02Z</time></trkpt><trkpt lat="47.806646593083556" lon="-1.7410287696438795"><ele>59.0</ele><time>2026-04-23T15:19:03Z</time></trkpt><trkpt lat="47.806803299731364" lon="-1.7410312447641987"><ele>59.0</ele><time>2026-04-23T15:19:04Z</time></trkpt><trkpt lat="47.80695654487027" lon="-1.7410379350790177"><ele>59.0</ele><time>2026-04-23T15:19:05Z</time></trkpt><trkpt lat="47.80707945869254" lon="-1.741047445731906"><ele>59.0</ele><time>2026-04-23T15:19:06Z</time></trkpt><trkpt lat="47.80716977188295" lon="-1.7410479990541772"><ele>59.0</ele><time>2026-04-23T15:19:07Z</time></trkpt><trkpt lat="47.80725727581788" lon="-1.7410424559625495"><ele>59.0</ele><time>2026-04-23T15:19:08Z</time></trkpt><trkpt lat="47.807342354929844" lon="-1.7410343936088786"><ele>59.00000000000001</ele><time>2026-04-23T15:19:09Z</time></trkpt><trkpt lat="47.80743644784356" lon="-1.7410239197810422"><ele>59.00000000000001</ele><time>2026-04-23T15:19:10Z</time></trkpt><trkpt lat="47.80754464064698" lon="-1.741019695785368"><ele>59.0</ele><time>2026-04-23T15:19:11Z</time></trkpt><trkpt lat="47.807658329012334" lon="-1.741028281734637"><ele>59.0</ele><time>2026-04-23T15:19:12Z</time></trkpt><trkpt lat="47.80778098425712" lon="-1.7410260960003674"><ele>58.75</ele><time>2026-04-23T15:19:13Z</time></trkpt><trkpt lat="47.807905052850245" lon="-1.7410143340878659"><ele>58.5</ele><time>2026-04-23T15:19:14Z</time></trkpt><trkpt lat="47.808037045611854" lon="-1.741007375023231"><ele>58.25</ele><time>2026-04-23T15:19:15Z</time></trkpt><trkpt lat="47.80816756708339" lon="-1.7410071000419989"><ele>58.0</ele><time>2026-04-23T15:19:16Z</time></trkpt><trkpt lat="47.80831649365959" lon="-1.7410039912664708"><ele>58.0</ele><time>2026-04-23T15:19:17Z</time></trkpt><trkpt lat="47.808466145867285" lon="-1.7409995737982817"><ele>58.0</ele><time>2026-04-23T15:19:17.999Z</time></trkpt><trkpt lat="47.808610785874635" lon="-1.7409954000203955"><ele>58.0</ele><time>2026-04-23T15:19:18.999Z</time></trkpt><trkpt lat="47.80876832397225" lon="-1.7409949126484758"><ele>57.33333333333333</ele><time>2026-04-23T15:19:19.999Z</time></trkpt><trkpt lat="47.808952191142716" lon="-1.740993252961793"><ele>56.66666666666667</ele><time>2026-04-23T15:19:20.999Z</time></trkpt><trkpt lat="47.80915037395126" lon="-1.7409821552320477"><ele>56.0</ele><time>2026-04-23T15:19:21.999Z</time></trkpt><trkpt lat="47.80934067237394" lon="-1.7409679969110572"><ele>55.0</ele><time>2026-04-23T15:19:22.999Z</time></trkpt><trkpt lat="47.80950285183171" lon="-1.7409708516696418"><ele>54.0</ele><time>2026-04-23T15:19:23.999Z</time></trkpt><trkpt lat="47.809657597888396" lon="-1.740974313750852"><ele>53.0</ele><time>2026-04-23T15:19:24.999Z</time></trkpt><trkpt lat="47.80980415014468" lon="-1.740967651916261"><ele>53.0</ele><time>2026-04-23T15:19:25.999Z</time></trkpt><trkpt lat="47.809949007016534" lon="-1.740971215514718"><ele>53.0</ele><time>2026-04-23T15:19:26.999Z</time></trkpt><trkpt lat="47.81008263887101" lon="-1.7409730180321126"><ele>53.0</ele><time>2026-04-23T15:19:27.999Z</time></trkpt><trkpt lat="47.81020919602258" lon="-1.7409745749635848"><ele>53.0</ele><time>2026-04-23T15:19:28.999Z</time></trkpt><trkpt lat="47.81032483489095" lon="-1.7409662697821535"><ele>52.0</ele><time>2026-04-23T15:19:29.999Z</time></trkpt><trkpt lat="47.81043562055056" lon="-1.7409585032515984"><ele>51.0</ele><time>2026-04-23T15:19:30.999Z</time></trkpt><trkpt lat="47.81054622888577" lon="-1.7409595645915192"><ele>50.0</ele><time>2026-04-23T15:19:31.999Z</time></trkpt><trkpt lat="47.81064918609603" lon="-1.7409620781168273"><ele>49.0</ele><time>2026-04-23T15:19:32.999Z</time></trkpt><trkpt lat="47.810753248513564" lon="-1.7409507662838088"><ele>48.0</ele><time>2026-04-23T15:19:33.999Z</time></trkpt><trkpt lat="47.81084507107035" lon="-1.7409446834195441"><ele>48.0</ele><time>2026-04-23T15:19:34.999Z</time></trkpt><trkpt lat="47.81093386030907" lon="-1.7409339940146693"><ele>48.0</ele><time>2026-04-23T15:19:35.999Z</time></trkpt><trkpt lat="47.81102469921084" lon="-1.7409321429954725"><ele>48.0</ele><time>2026-04-23T15:19:36.999Z</time></trkpt><trkpt lat="47.81112858578421" lon="-1.7409288546761714"><ele>48.0</ele><time>2026-04-23T15:19:37.999Z</time></trkpt><trkpt lat="47.81124928810044" lon="-1.7409142580217811"><ele>48.0</ele><time>2026-04-23T15:19:38.999Z</time></trkpt><trkpt lat="47.81137914459686" lon="-1.7409087025587318"><ele>47.0</ele><time>2026-04-23T15:19:39.999Z</time></trkpt><trkpt lat="47.811506818040115" lon="-1.740796734470879"><ele>46.0</ele><time>2026-04-23T15:19:40.999Z</time></trkpt><trkpt lat="47.8116282615504" lon="-1.740723943512074"><ele>45.0</ele><time>2026-04-23T15:19:41.999Z</time></trkpt><trkpt lat="47.81172683162231" lon="-1.7406506498775653"><ele>44.0</ele><time>2026-04-23T15:19:42.999Z</time></trkpt><trkpt lat="47.81181561873467" lon="-1.7405796867851435"><ele>43.6</ele><time>2026-04-23T15:19:43.999Z</time></trkpt><trkpt lat="47.81189327466034" lon="-1.7405036363492532"><ele>43.2</ele><time>2026-04-23T15:19:44.999Z</time></trkpt><trkpt lat="47.81195583696599" lon="-1.7404346783710296"><ele>42.800000000000004</ele><time>2026-04-23T15:19:45.999Z</time></trkpt><trkpt lat="47.8120271635181" lon="-1.7403511397380822"><ele>42.400000000000006</ele><time>2026-04-23T15:19:47.999Z</time></trkpt><trkpt lat="47.81207996468578" lon="-1.7402871261122828"><ele>42.0</ele><time>2026-04-23T15:19:49.999Z</time></trkpt><trkpt lat="47.81218037579903" lon="-1.7401289197325094"><ele>42.0</ele><time>2026-04-23T15:19:51.999Z</time></trkpt><trkpt lat="47.81222324163918" lon="-1.74002715895301"><ele>42.0</ele><time>2026-04-23T15:19:52.999Z</time></trkpt><trkpt lat="47.812278287192065" lon="-1.7398985249314647"><ele>42.0</ele><time>2026-04-23T15:19:53.999Z</time></trkpt><trkpt lat="47.81234029460389" lon="-1.739758991666501"><ele>42.0</ele><time>2026-04-23T15:19:54.999Z</time></trkpt><trkpt lat="47.81241130293116" lon="-1.7396152122593889"><ele>42.0</ele><time>2026-04-23T15:19:55.999Z</time></trkpt><trkpt lat="47.81248707909783" lon="-1.7394588321873228"><ele>42.0</ele><time>2026-04-23T15:19:56.999Z</time></trkpt><trkpt lat="47.81257595176096" lon="-1.7392902430676802"><ele>42.0</ele><time>2026-04-23T15:19:57.999Z</time></trkpt><trkpt lat="47.81265113858195" lon="-1.739089454852026"><ele>42.0</ele><time>2026-04-23T15:19:58.999Z</time></trkpt><trkpt lat="47.81275372274803" lon="-1.7388877595529302"><ele>41.0</ele><time>2026-04-23T15:19:59.999Z</time></trkpt><trkpt lat="47.81284461385334" lon="-1.7386757469040786"><ele>40.0</ele><time>2026-04-23T15:20:00.999Z</time></trkpt><trkpt lat="47.81293693868239" lon="-1.7384757369151387"><ele>39.0</ele><time>2026-04-23T15:20:01.999Z</time></trkpt><trkpt lat="47.81302814186136" lon="-1.738260719911935"><ele>39.0</ele><time>2026-04-23T15:20:02.999Z</time></trkpt><trkpt lat="47.81312973251731" lon="-1.738042240038468"><ele>39.0</ele><time>2026-04-23T15:20:03.999Z</time></trkpt><trkpt lat="47.813224692846255" lon="-1.7378245516193724"><ele>39.0</ele><time>2026-04-23T15:20:04.999Z</time></trkpt><trkpt lat="47.813331606041054" lon="-1.7376037111256288"><ele>39.333333333333336</ele><time>2026-04-23T15:20:05.999Z</time></trkpt><trkpt lat="47.81343902654707" lon="-1.737379401042109"><ele>39.66666666666667</ele><time>2026-04-23T15:20:06.999Z</time></trkpt><trkpt lat="47.81354764973191" lon="-1.7371538728300493"><ele>40.0</ele><time>2026-04-23T15:20:07.999Z</time></trkpt><trkpt lat="47.81365109338076" lon="-1.7369280189039573"><ele>40.0</ele><time>2026-04-23T15:20:08.999Z</time></trkpt><trkpt lat="47.81375436712555" lon="-1.7366954194974158"><ele>40.0</ele><time>2026-04-23T15:20:09.999Z</time></trkpt><trkpt lat="47.81385768040042" lon="-1.7364597887445608"><ele>40.0</ele><time>2026-04-23T15:20:10.999Z</time></trkpt><trkpt lat="47.813966547097564" lon="-1.7362314538944554"><ele>40.333333333333336</ele><time>2026-04-23T15:20:11.999Z</time></trkpt><trkpt lat="47.8140824902385" lon="-1.7359862074860792"><ele>40.666666666666664</ele><time>2026-04-23T15:20:12.999Z</time></trkpt><trkpt lat="47.81419123207843" lon="-1.7357384140542171"><ele>41.0</ele><time>2026-04-23T15:20:13.999Z</time></trkpt><trkpt lat="47.814296285677194" lon="-1.7355193354271132"><ele>40.0</ele><time>2026-04-23T15:20:14.999Z</time></trkpt><trkpt lat="47.814412913017264" lon="-1.7352699878905238"><ele>39.0</ele><time>2026-04-23T15:20:15.999Z</time></trkpt><trkpt lat="47.814529491184466" lon="-1.7350223174902186"><ele>38.0</ele><time>2026-04-23T15:20:16.999Z</time></trkpt><trkpt lat="47.814655418564" lon="-1.7347617436455443"><ele>38.0</ele><time>2026-04-23T15:20:17.999Z</time></trkpt><trkpt lat="47.81478003333723" lon="-1.734491033486407"><ele>38.0</ele><time>2026-04-23T15:20:18.999Z</time></trkpt><trkpt lat="47.81489704605674" lon="-1.7342162131770038"><ele>38.0</ele><time>2026-04-23T15:20:19.999Z</time></trkpt><trkpt lat="47.81499655743568" lon="-1.7340026064752159"><ele>37.5</ele><time>2026-04-23T15:20:20.999Z</time></trkpt><trkpt lat="47.81508802855083" lon="-1.7338134011733468"><ele>37.0</ele><time>2026-04-23T15:20:21.999Z</time></trkpt><trkpt lat="47.81516722327394" lon="-1.7336489445867185"><ele>36.5</ele><time>2026-04-23T15:20:22.999Z</time></trkpt><trkpt lat="47.815243232719745" lon="-1.7335191753717913"><ele>36.0</ele><time>2026-04-23T15:20:24Z</time></trkpt><trkpt lat="47.81529838189553" lon="-1.7334068204452828"><ele>35.666666666666664</ele><time>2026-04-23T15:20:25Z</time></trkpt><trkpt lat="47.81534106110592" lon="-1.7333073247858333"><ele>35.333333333333336</ele><time>2026-04-23T15:20:26Z</time></trkpt><trkpt lat="47.815366904411114" lon="-1.7332047451350758"><ele>35.0</ele><time>2026-04-23T15:20:27Z</time></trkpt><trkpt lat="47.815397332704016" lon="-1.7330830579617718"><ele>34.66666666666667</ele><time>2026-04-23T15:20:29Z</time></trkpt><trkpt lat="47.815495996134125" lon="-1.732975567199608"><ele>34.333333333333336</ele><time>2026-04-23T15:21:10Z</time></trkpt><trkpt lat="47.81554026927939" lon="-1.7328808655691945"><ele>34.0</ele><time>2026-04-23T15:21:11Z</time></trkpt><trkpt lat="47.81557846734835" lon="-1.732799158719924"><ele>34.0</ele><time>2026-04-23T15:21:12Z</time></trkpt><trkpt lat="47.81562877544867" lon="-1.7326915481442868"><ele>34.0</ele><time>2026-04-23T15:21:13Z</time></trkpt><trkpt lat="47.8156910714737" lon="-1.7325711814223426"><ele>34.0</ele><time>2026-04-23T15:21:14Z</time></trkpt><trkpt lat="47.81575473163119" lon="-1.7324243670089385"><ele>34.0</ele><time>2026-04-23T15:21:15Z</time></trkpt><trkpt lat="47.81581552220568" lon="-1.7322833820259131"><ele>34.0</ele><time>2026-04-23T15:21:16Z</time></trkpt><trkpt lat="47.815894819678995" lon="-1.732138411737738"><ele>34.0</ele><time>2026-04-23T15:21:17Z</time></trkpt><trkpt lat="47.815981695558406" lon="-1.7319724833541248"><ele>34.0</ele><time>2026-04-23T15:21:18Z</time></trkpt><trkpt lat="47.816050631551434" lon="-1.731783689556504"><ele>34.0</ele><time>2026-04-23T15:21:19Z</time></trkpt><trkpt lat="47.816128070124805" lon="-1.7315805755843339"><ele>34.0</ele><time>2026-04-23T15:21:20Z</time></trkpt><trkpt lat="47.81622999592149" lon="-1.7313696979495405"><ele>33.333333333333336</ele><time>2026-04-23T15:21:21Z</time></trkpt><trkpt lat="47.816325486076025" lon="-1.7311617605678873"><ele>32.666666666666664</ele><time>2026-04-23T15:21:22Z</time></trkpt><trkpt lat="47.81641031937037" lon="-1.7309557872593189"><ele>32.0</ele><time>2026-04-23T15:21:23Z</time></trkpt><trkpt lat="47.81649785262867" lon="-1.730727077846507"><ele>32.0</ele><time>2026-04-23T15:21:24Z</time></trkpt><trkpt lat="47.81660181099877" lon="-1.730499493674382"><ele>32.0</ele><time>2026-04-23T15:21:25Z</time></trkpt><trkpt lat="47.81670688383191" lon="-1.7302734301839262"><ele>32.0</ele><time>2026-04-23T15:21:26Z</time></trkpt><trkpt lat="47.81681227784998" lon="-1.7300466756850683"><ele>32.666666666666664</ele><time>2026-04-23T15:21:26.999Z</time></trkpt><trkpt lat="47.81691515635538" lon="-1.729825755018219"><ele>33.333333333333336</ele><time>2026-04-23T15:21:27.999Z</time></trkpt><trkpt lat="47.81701404573641" lon="-1.729613555309175"><ele>34.0</ele><time>2026-04-23T15:21:28.999Z</time></trkpt><trkpt lat="47.81710879457452" lon="-1.7294102411281016"><ele>35.333333333333336</ele><time>2026-04-23T15:21:29.999Z</time></trkpt><trkpt lat="47.81721694417198" lon="-1.729178171511075"><ele>36.666666666666664</ele><time>2026-04-23T15:21:30.999Z</time></trkpt><trkpt lat="47.817325759243815" lon="-1.7289446732062728"><ele>38.0</ele><time>2026-04-23T15:21:31.999Z</time></trkpt><trkpt lat="47.817440150157644" lon="-1.7286992100865033"><ele>39.666666666666664</ele><time>2026-04-23T15:21:32.999Z</time></trkpt><trkpt lat="47.81755906885153" lon="-1.7284440318020728"><ele>41.333333333333336</ele><time>2026-04-23T15:21:33.999Z</time></trkpt><trkpt lat="47.81766971034036" lon="-1.7282060143990374"><ele>43.0</ele><time>2026-04-23T15:21:34.999Z</time></trkpt><trkpt lat="47.81777611673321" lon="-1.727976614840775"><ele>43.0</ele><time>2026-04-23T15:21:35.999Z</time></trkpt><trkpt lat="47.817885557951264" lon="-1.727740672440335"><ele>43.0</ele><time>2026-04-23T15:21:36.999Z</time></trkpt><trkpt lat="47.81799220494306" lon="-1.7274950126415896"><ele>43.0</ele><time>2026-04-23T15:21:37.999Z</time></trkpt><trkpt lat="47.81811388500013" lon="-1.7272659293777968"><ele>44.66666666666667</ele><time>2026-04-23T15:21:38.999Z</time></trkpt><trkpt lat="47.81822636150644" lon="-1.7270217871760523"><ele>46.333333333333336</ele><time>2026-04-23T15:21:39.999Z</time></trkpt><trkpt lat="47.818333410353624" lon="-1.7267868487969698"><ele>48.0</ele><time>2026-04-23T15:21:40.999Z</time></trkpt><trkpt lat="47.818449734734756" lon="-1.7265435844893546"><ele>47.666666666666664</ele><time>2026-04-23T15:21:41.999Z</time></trkpt><trkpt lat="47.81856555703724" lon="-1.7263055166480312"><ele>47.33333333333333</ele><time>2026-04-23T15:21:42.999Z</time></trkpt><trkpt lat="47.818679627012735" lon="-1.7260631155470902"><ele>47.0</ele><time>2026-04-23T15:21:43.999Z</time></trkpt><trkpt lat="47.81880482048483" lon="-1.725822390136857"><ele>49.0</ele><time>2026-04-23T15:21:44.999Z</time></trkpt><trkpt lat="47.81892265947231" lon="-1.7255795611593836"><ele>51.0</ele><time>2026-04-23T15:21:45.999Z</time></trkpt><trkpt lat="47.819041764751844" lon="-1.7253284142576024"><ele>53.0</ele><time>2026-04-23T15:21:46.999Z</time></trkpt><trkpt lat="47.81915114691584" lon="-1.7250761827039414"><ele>53.66666666666667</ele><time>2026-04-23T15:21:47.999Z</time></trkpt><trkpt lat="47.819266478577234" lon="-1.7248243824477432"><ele>54.33333333333333</ele><time>2026-04-23T15:21:48.999Z</time></trkpt><trkpt lat="47.81938055132057" lon="-1.7245785460599232"><ele>55.0</ele><time>2026-04-23T15:21:49.999Z</time></trkpt><trkpt lat="47.819506208710074" lon="-1.7243384380822147"><ele>57.666666666666664</ele><time>2026-04-23T15:21:50.999Z</time></trkpt><trkpt lat="47.81962756900027" lon="-1.724090618573659"><ele>60.33333333333333</ele><time>2026-04-23T15:21:51.999Z</time></trkpt><trkpt lat="47.81973664321067" lon="-1.7238389421013065"><ele>63.0</ele><time>2026-04-23T15:21:52.999Z</time></trkpt><trkpt lat="47.81985000462672" lon="-1.7235936094752564"><ele>63.33333333333333</ele><time>2026-04-23T15:21:53.999Z</time></trkpt><trkpt lat="47.81998286320814" lon="-1.7233530220924989"><ele>63.666666666666664</ele><time>2026-04-23T15:21:54.999Z</time></trkpt><trkpt lat="47.820106438393175" lon="-1.7231026290214362"><ele>64.0</ele><time>2026-04-23T15:21:55.999Z</time></trkpt><trkpt lat="47.82024906840723" lon="-1.7228665314628933"><ele>64.66666666666666</ele><time>2026-04-23T15:21:56.999Z</time></trkpt><trkpt lat="47.82039432288718" lon="-1.7226394744711835"><ele>65.33333333333333</ele><time>2026-04-23T15:21:57.999Z</time></trkpt><trkpt lat="47.820546073640806" lon="-1.722407789546355"><ele>66.0</ele><time>2026-04-23T15:21:58.999Z</time></trkpt><trkpt lat="47.82069967234875" lon="-1.7221819269641405"><ele>66.0</ele><time>2026-04-23T15:21:59.999Z</time></trkpt><trkpt lat="47.82086771171473" lon="-1.721962375765541"><ele>66.0</ele><time>2026-04-23T15:22:00.999Z</time></trkpt><trkpt lat="47.82102931429074" lon="-1.7217337090941367"><ele>66.0</ele><time>2026-04-23T15:22:01.999Z</time></trkpt><trkpt lat="47.821172786361636" lon="-1.7214926113906082"><ele>65.33333333333333</ele><time>2026-04-23T15:22:02.999Z</time></trkpt><trkpt lat="47.82132351215168" lon="-1.7212744643806548"><ele>64.66666666666666</ele><time>2026-04-23T15:22:03.999Z</time></trkpt><trkpt lat="47.821473626141696" lon="-1.7210595750596231"><ele>64.0</ele><time>2026-04-23T15:22:04.999Z</time></trkpt><trkpt lat="47.82162081667898" lon="-1.7208522129467594"><ele>64.0</ele><time>2026-04-23T15:22:05.999Z</time></trkpt><trkpt lat="47.821771920559534" lon="-1.7206383559572551"><ele>64.0</ele><time>2026-04-23T15:22:06.999Z</time></trkpt><trkpt lat="47.821918367845996" lon="-1.7204281218621265"><ele>64.0</ele><time>2026-04-23T15:22:07.999Z</time></trkpt><trkpt lat="47.822073189170624" lon="-1.7202286967525307"><ele>63.666666666666664</ele><time>2026-04-23T15:22:08.999Z</time></trkpt><trkpt lat="47.82222241037272" lon="-1.7200172346147629"><ele>63.33333333333333</ele><time>2026-04-23T15:22:09.999Z</time></trkpt><trkpt lat="47.8223612876953" lon="-1.7197839462461308"><ele>63.0</ele><time>2026-04-23T15:22:10.999Z</time></trkpt><trkpt lat="47.82250886215458" lon="-1.719567067595604"><ele>60.66666666666667</ele><time>2026-04-23T15:22:11.999Z</time></trkpt><trkpt lat="47.82265226409237" lon="-1.7193313622293356"><ele>58.333333333333336</ele><time>2026-04-23T15:22:12.999Z</time></trkpt><trkpt lat="47.822781173733745" lon="-1.719080740073793"><ele>56.0</ele><time>2026-04-23T15:22:13.999Z</time></trkpt><trkpt lat="47.82289176671173" lon="-1.7188177137862353"><ele>56.333333333333336</ele><time>2026-04-23T15:22:14.999Z</time></trkpt><trkpt lat="47.82299362521155" lon="-1.7185289261811225"><ele>56.66666666666667</ele><time>2026-04-23T15:22:15.999Z</time></trkpt><trkpt lat="47.823082974566724" lon="-1.7182258370993448"><ele>57.0</ele><time>2026-04-23T15:22:16.999Z</time></trkpt><trkpt lat="47.82316943471722" lon="-1.7179060210991517"><ele>59.0</ele><time>2026-04-23T15:22:17.999Z</time></trkpt><trkpt lat="47.823254279948245" lon="-1.717582462237269"><ele>61.0</ele><time>2026-04-23T15:22:18.999Z</time></trkpt><trkpt lat="47.823336667188045" lon="-1.7172692893029458"><ele>61.0</ele><time>2026-04-23T15:22:19.999Z</time></trkpt><trkpt lat="47.823415861815334" lon="-1.7169682522418248"><ele>61.0</ele><time>2026-04-23T15:22:20.999Z</time></trkpt><trkpt lat="47.823497123500715" lon="-1.7166593577843086"><ele>61.0</ele><time>2026-04-23T15:22:21.999Z</time></trkpt><trkpt lat="47.823576726756464" lon="-1.7163567674520472"><ele>58.0</ele><time>2026-04-23T15:22:22.999Z</time></trkpt><trkpt lat="47.82364755923866" lon="-1.716077755708179"><ele>55.0</ele><time>2026-04-23T15:22:23.999Z</time></trkpt><trkpt lat="47.823721459024426" lon="-1.7157852295123983"><ele>52.0</ele><time>2026-04-23T15:22:24.999Z</time></trkpt><trkpt lat="47.82380065598587" lon="-1.7154762003160398"><ele>52.33333333333333</ele><time>2026-04-23T15:22:25.999Z</time></trkpt><trkpt lat="47.82387751141113" lon="-1.7151910713809717"><ele>52.66666666666667</ele><time>2026-04-23T15:22:26.999Z</time></trkpt><trkpt lat="47.82397182229448" lon="-1.7148921288243346"><ele>53.0</ele><time>2026-04-23T15:22:27.999Z</time></trkpt><trkpt lat="47.82408705988618" lon="-1.7146162680246106"><ele>53.0</ele><time>2026-04-23T15:22:28.999Z</time></trkpt><trkpt lat="47.82420813508229" lon="-1.7143408452203976"><ele>53.0</ele><time>2026-04-23T15:22:30Z</time></trkpt><trkpt lat="47.82432363913915" lon="-1.7140780957399726"><ele>53.0</ele><time>2026-04-23T15:22:31Z</time></trkpt><trkpt lat="47.82448111566548" lon="-1.7138424124489864"><ele>53.333333333333336</ele><time>2026-04-23T15:22:32Z</time></trkpt><trkpt lat="47.82459392445595" lon="-1.7135791305236594"><ele>53.66666666666667</ele><time>2026-04-23T15:22:33Z</time></trkpt><trkpt lat="47.8247052482156" lon="-1.7133102088582066"><ele>54.0</ele><time>2026-04-23T15:22:34Z</time></trkpt><trkpt lat="47.8248227969713" lon="-1.7130598144904692"><ele>54.0</ele><time>2026-04-23T15:22:35Z</time></trkpt><trkpt lat="47.824936178460376" lon="-1.712803758857176"><ele>54.0</ele><time>2026-04-23T15:22:36Z</time></trkpt><trkpt lat="47.82507745523227" lon="-1.7125661359382243"><ele>54.0</ele><time>2026-04-23T15:22:37Z</time></trkpt><trkpt lat="47.825227211350956" lon="-1.712340278867787"><ele>53.33333333333333</ele><time>2026-04-23T15:22:38Z</time></trkpt><trkpt lat="47.825380663757386" lon="-1.712136599245644"><ele>52.666666666666664</ele><time>2026-04-23T15:22:39Z</time></trkpt><trkpt lat="47.82555485261992" lon="-1.7119382016613436"><ele>52.0</ele><time>2026-04-23T15:22:40Z</time></trkpt><trkpt lat="47.825729296847186" lon="-1.711731980212052"><ele>52.0</ele><time>2026-04-23T15:22:41Z</time></trkpt><trkpt lat="47.825899406954754" lon="-1.711519902626473"><ele>52.0</ele><time>2026-04-23T15:22:42Z</time></trkpt><trkpt lat="47.82605931987381" lon="-1.7113061949222237"><ele>52.0</ele><time>2026-04-23T15:22:43Z</time></trkpt><trkpt lat="47.82621849813401" lon="-1.7110999493363246"><ele>52.666666666666664</ele><time>2026-04-23T15:22:44Z</time></trkpt><trkpt lat="47.82638248497658" lon="-1.7108847672398872"><ele>53.33333333333333</ele><time>2026-04-23T15:22:45Z</time></trkpt><trkpt lat="47.82653549125183" lon="-1.710678231460945"><ele>54.0</ele><time>2026-04-23T15:22:46Z</time></trkpt><trkpt lat="47.82669904471857" lon="-1.7104774545269057"><ele>54.0</ele><time>2026-04-23T15:22:47Z</time></trkpt><trkpt lat="47.8268583077514" lon="-1.7102740976242532"><ele>54.0</ele><time>2026-04-23T15:22:48Z</time></trkpt><trkpt lat="47.82701196232526" lon="-1.7100760111385247"><ele>54.0</ele><time>2026-04-23T15:22:49Z</time></trkpt><trkpt lat="47.827169859671464" lon="-1.709878548444941"><ele>54.66666666666667</ele><time>2026-04-23T15:22:50Z</time></trkpt><trkpt lat="47.82731522286119" lon="-1.709671096973444"><ele>55.333333333333336</ele><time>2026-04-23T15:22:51Z</time></trkpt><trkpt lat="47.827456875435686" lon="-1.7094768888574066"><ele>56.0</ele><time>2026-04-23T15:22:52Z</time></trkpt><trkpt lat="47.82761213631352" lon="-1.7092797256437229"><ele>56.66666666666667</ele><time>2026-04-23T15:22:53Z</time></trkpt><trkpt lat="47.82776510073567" lon="-1.7090797322247513"><ele>57.33333333333333</ele><time>2026-04-23T15:22:54Z</time></trkpt><trkpt lat="47.82791661830352" lon="-1.7088786466470702"><ele>58.0</ele><time>2026-04-23T15:22:55Z</time></trkpt><trkpt lat="47.82806294088501" lon="-1.7086781722853925"><ele>59.33333333333333</ele><time>2026-04-23T15:22:56Z</time></trkpt><trkpt lat="47.82820414916736" lon="-1.7084618067331392"><ele>60.66666666666667</ele><time>2026-04-23T15:22:57Z</time></trkpt><trkpt lat="47.828336650113556" lon="-1.7082170489804052"><ele>62.0</ele><time>2026-04-23T15:22:58Z</time></trkpt><trkpt lat="47.8284247920791" lon="-1.7079420802397345"><ele>61.66666666666667</ele><time>2026-04-23T15:22:59Z</time></trkpt><trkpt lat="47.82850223328657" lon="-1.707646051819734"><ele>61.33333333333333</ele><time>2026-04-23T15:23:00Z</time></trkpt><trkpt lat="47.82854812345578" lon="-1.7073196262249037"><ele>61.0</ele><time>2026-04-23T15:23:01Z</time></trkpt><trkpt lat="47.82859697429871" lon="-1.706988226280718"><ele>62.0</ele><time>2026-04-23T15:23:02Z</time></trkpt><trkpt lat="47.82865844020439" lon="-1.7066746427177488"><ele>63.0</ele><time>2026-04-23T15:23:03Z</time></trkpt><trkpt lat="47.828716216368655" lon="-1.7063664573936725"><ele>64.0</ele><time>2026-04-23T15:23:04Z</time></trkpt><trkpt lat="47.82877025634873" lon="-1.706059781988271"><ele>65.0</ele><time>2026-04-23T15:23:05Z</time></trkpt><trkpt lat="47.82882393881823" lon="-1.705762187380133"><ele>66.0</ele><time>2026-04-23T15:23:06Z</time></trkpt><trkpt lat="47.8288821933375" lon="-1.7054691446108134"><ele>67.0</ele><time>2026-04-23T15:23:07Z</time></trkpt><trkpt lat="47.82893602221394" lon="-1.7051738016614997"><ele>67.66666666666666</ele><time>2026-04-23T15:23:08Z</time></trkpt><trkpt lat="47.82898975396231" lon="-1.7048803613837142"><ele>68.33333333333333</ele><time>2026-04-23T15:23:09Z</time></trkpt><trkpt lat="47.82905056926396" lon="-1.7045831753263159"><ele>69.0</ele><time>2026-04-23T15:23:10Z</time></trkpt><trkpt lat="47.8291030941421" lon="-1.7042860992760744"><ele>70.0</ele><time>2026-04-23T15:23:11Z</time></trkpt><trkpt lat="47.82915509510553" lon="-1.7039920044581278"><ele>71.0</ele><time>2026-04-23T15:23:12Z</time></trkpt><trkpt lat="47.82920370598879" lon="-1.7036976403998056"><ele>72.0</ele><time>2026-04-23T15:23:13Z</time></trkpt><trkpt lat="47.82926459530998" lon="-1.7034099501834945"><ele>72.66666666666667</ele><time>2026-04-23T15:23:14Z</time></trkpt><trkpt lat="47.82932761820378" lon="-1.7031223190518912"><ele>73.33333333333334</ele><time>2026-04-23T15:23:15Z</time></trkpt><trkpt lat="47.829381803080864" lon="-1.7028340177908363"><ele>74.0</ele><time>2026-04-23T15:23:16Z</time></trkpt><trkpt lat="47.829441938973" lon="-1.7025460975400484"><ele>74.66666666666667</ele><time>2026-04-23T15:23:17Z</time></trkpt><trkpt lat="47.829491406486405" lon="-1.7022609625000908"><ele>75.33333333333333</ele><time>2026-04-23T15:23:18Z</time></trkpt><trkpt lat="47.82954290023655" lon="-1.7019686879650626"><ele>76.0</ele><time>2026-04-23T15:23:19Z</time></trkpt><trkpt lat="47.82959688853962" lon="-1.701677224502826"><ele>77.0</ele><time>2026-04-23T15:23:20Z</time></trkpt><trkpt lat="47.8296503125863" lon="-1.7013867761233015"><ele>78.0</ele><time>2026-04-23T15:23:21Z</time></trkpt><trkpt lat="47.82970623329689" lon="-1.7010949761357814"><ele>79.0</ele><time>2026-04-23T15:23:22Z</time></trkpt><trkpt lat="47.82976176762784" lon="-1.7007983494976988"><ele>80.0</ele><time>2026-04-23T15:23:23Z</time></trkpt><trkpt lat="47.82981293122477" lon="-1.7004901520383175"><ele>81.0</ele><time>2026-04-23T15:23:24Z</time></trkpt><trkpt lat="47.82986122480963" lon="-1.7001856310623538"><ele>82.0</ele><time>2026-04-23T15:23:25Z</time></trkpt><trkpt lat="47.82992611620365" lon="-1.69989267875677"><ele>82.33333333333333</ele><time>2026-04-23T15:23:26Z</time></trkpt><trkpt lat="47.82998964442376" lon="-1.6996027316552653"><ele>82.66666666666667</ele><time>2026-04-23T15:23:27Z</time></trkpt><trkpt lat="47.830050405703766" lon="-1.6993145620547287"><ele>83.0</ele><time>2026-04-23T15:23:28Z</time></trkpt><trkpt lat="47.83009951189236" lon="-1.6990235747870104"><ele>82.33333333333334</ele><time>2026-04-23T15:23:29Z</time></trkpt><trkpt lat="47.830155231925154" lon="-1.6987349502891114"><ele>81.66666666666667</ele><time>2026-04-23T15:23:30Z</time></trkpt><trkpt lat="47.830208214429604" lon="-1.6984461015160812"><ele>81.0</ele><time>2026-04-23T15:23:31Z</time></trkpt><trkpt lat="47.83026597183373" lon="-1.6981587181714366"><ele>81.0</ele><time>2026-04-23T15:23:32Z</time></trkpt><trkpt lat="47.8303231386253" lon="-1.6978717307157396"><ele>81.0</ele><time>2026-04-23T15:23:32.999Z</time></trkpt><trkpt lat="47.83038481929893" lon="-1.697579165816153"><ele>81.0</ele><time>2026-04-23T15:23:33.999Z</time></trkpt><trkpt lat="47.830444728319584" lon="-1.6972798149666286"><ele>81.0</ele><time>2026-04-23T15:23:34.999Z</time></trkpt><trkpt lat="47.83048450992533" lon="-1.6969729945339744"><ele>81.0</ele><time>2026-04-23T15:23:35.999Z</time></trkpt><trkpt lat="47.830542886387676" lon="-1.696675458982181"><ele>81.0</ele><time>2026-04-23T15:23:36.999Z</time></trkpt><trkpt lat="47.83060096576786" lon="-1.6963746147643552"><ele>81.66666666666667</ele><time>2026-04-23T15:23:37.999Z</time></trkpt><trkpt lat="47.83065844284442" lon="-1.696073321699943"><ele>82.33333333333334</ele><time>2026-04-23T15:23:38.999Z</time></trkpt><trkpt lat="47.83071652410865" lon="-1.6957804895856117"><ele>83.0</ele><time>2026-04-23T15:23:39.999Z</time></trkpt><trkpt lat="47.830773282381266" lon="-1.695480194172027"><ele>83.33333333333334</ele><time>2026-04-23T15:23:40.999Z</time></trkpt><trkpt lat="47.83081950385833" lon="-1.695190334020016"><ele>83.66666666666667</ele><time>2026-04-23T15:23:41.999Z</time></trkpt><trkpt lat="47.8308609211198" lon="-1.694881484436265"><ele>84.0</ele><time>2026-04-23T15:23:42.999Z</time></trkpt><trkpt lat="47.83089761625523" lon="-1.6945832430106762"><ele>83.66666666666667</ele><time>2026-04-23T15:23:43.999Z</time></trkpt><trkpt lat="47.83093235072174" lon="-1.6942839304801671"><ele>83.33333333333334</ele><time>2026-04-23T15:23:44.999Z</time></trkpt><trkpt lat="47.830968822531716" lon="-1.693969647028677"><ele>83.0</ele><time>2026-04-23T15:23:45.999Z</time></trkpt><trkpt lat="47.83100128976006" lon="-1.6936692396125776"><ele>82.0</ele><time>2026-04-23T15:23:46.999Z</time></trkpt><trkpt lat="47.831032724079506" lon="-1.6933759670131998"><ele>81.0</ele><time>2026-04-23T15:23:47.999Z</time></trkpt><trkpt lat="47.831064697746" lon="-1.6930753843411908"><ele>80.0</ele><time>2026-04-23T15:23:48.999Z</time></trkpt><trkpt lat="47.83109579798532" lon="-1.6927812355308889"><ele>80.0</ele><time>2026-04-23T15:23:49.999Z</time></trkpt><trkpt lat="47.83112738681565" lon="-1.6924824655873523"><ele>80.0</ele><time>2026-04-23T15:23:50.999Z</time></trkpt><trkpt lat="47.83115868568773" lon="-1.692186438089068"><ele>80.0</ele><time>2026-04-23T15:23:51.999Z</time></trkpt><trkpt lat="47.83119066884802" lon="-1.6918839390829985"><ele>80.33333333333334</ele><time>2026-04-23T15:23:52.999Z</time></trkpt><trkpt lat="47.83122548832938" lon="-1.6915684081673064"><ele>80.66666666666667</ele><time>2026-04-23T15:23:53.999Z</time></trkpt><trkpt lat="47.831257895561414" lon="-1.691266460521448"><ele>81.0</ele><time>2026-04-23T15:23:54.999Z</time></trkpt><trkpt lat="47.8312910855386" lon="-1.6909656413088"><ele>81.0</ele><time>2026-04-23T15:23:55.999Z</time></trkpt><trkpt lat="47.83132395548387" lon="-1.6906702257680892"><ele>81.0</ele><time>2026-04-23T15:23:56.999Z</time></trkpt><trkpt lat="47.83135484569808" lon="-1.6903870932764051"><ele>81.0</ele><time>2026-04-23T15:23:57.999Z</time></trkpt><trkpt lat="47.8314017655355" lon="-1.690102798659467"><ele>80.66666666666667</ele><time>2026-04-23T15:23:58.999Z</time></trkpt><trkpt lat="47.83142968677087" lon="-1.6898247688997416"><ele>80.33333333333334</ele><time>2026-04-23T15:23:59.999Z</time></trkpt><trkpt lat="47.83146351990079" lon="-1.6895399001092979"><ele>80.0</ele><time>2026-04-23T15:24:00.999Z</time></trkpt><trkpt lat="47.83148686883985" lon="-1.6892665221302636"><ele>79.66666666666667</ele><time>2026-04-23T15:24:01.999Z</time></trkpt><trkpt lat="47.83151746763533" lon="-1.688981296958918"><ele>79.33333333333333</ele><time>2026-04-23T15:24:02.999Z</time></trkpt><trkpt lat="47.83155412550218" lon="-1.688682341167908"><ele>79.0</ele><time>2026-04-23T15:24:03.999Z</time></trkpt><trkpt lat="47.831591336649616" lon="-1.6883512254058124"><ele>78.66666666666666</ele><time>2026-04-23T15:24:04.999Z</time></trkpt><trkpt lat="47.83162239200631" lon="-1.6880156789873844"><ele>78.33333333333333</ele><time>2026-04-23T15:24:05.999Z</time></trkpt><trkpt lat="47.83164585402575" lon="-1.6877162050003522"><ele>78.0</ele><time>2026-04-23T15:24:06.999Z</time></trkpt><trkpt lat="47.831673703243794" lon="-1.687459687014972"><ele>77.66666666666667</ele><time>2026-04-23T15:24:07.999Z</time></trkpt><trkpt lat="47.831699800239804" lon="-1.6872138172016686"><ele>77.33333333333334</ele><time>2026-04-23T15:24:08.999Z</time></trkpt><trkpt lat="47.83172404185124" lon="-1.686985427998586"><ele>77.0</ele><time>2026-04-23T15:24:09.999Z</time></trkpt><trkpt lat="47.83174768042446" lon="-1.6867703247593397"><ele>76.8</ele><time>2026-04-23T15:24:10.999Z</time></trkpt><trkpt lat="47.83176736558831" lon="-1.6866075866503636"><ele>76.6</ele><time>2026-04-23T15:24:11.999Z</time></trkpt><trkpt lat="47.83178140757037" lon="-1.686481737226435"><ele>76.39999999999999</ele><time>2026-04-23T15:24:12.999Z</time></trkpt><trkpt lat="47.83179147484312" lon="-1.6863692682009244"><ele>76.2</ele><time>2026-04-23T15:24:14.999Z</time></trkpt><trkpt lat="47.83178874565532" lon="-1.6862376215638524"><ele>76.0</ele><time>2026-04-23T15:24:24.999Z</time></trkpt><trkpt lat="47.83196858017785" lon="-1.6861968066080062"><ele>75.6</ele><time>2026-04-23T15:24:25.999Z</time></trkpt><trkpt lat="47.83204447899603" lon="-1.6861650234170895"><ele>75.19999999999999</ele><time>2026-04-23T15:24:26.999Z</time></trkpt><trkpt lat="47.8321268232856" lon="-1.686126410429269"><ele>74.80000000000001</ele><time>2026-04-23T15:24:27.999Z</time></trkpt><trkpt lat="47.832241644499526" lon="-1.6860798598702842"><ele>74.4</ele><time>2026-04-23T15:24:28.999Z</time></trkpt><trkpt lat="47.832376292325854" lon="-1.686028237813769"><ele>74.0</ele><time>2026-04-23T15:24:29.999Z</time></trkpt><trkpt lat="47.83249014089799" lon="-1.6859783996480675"><ele>73.75</ele><time>2026-04-23T15:24:30.999Z</time></trkpt><trkpt lat="47.83260751658931" lon="-1.685915724593015"><ele>73.5</ele><time>2026-04-23T15:24:31.999Z</time></trkpt><trkpt lat="47.83274619328602" lon="-1.6858568271404504"><ele>73.25</ele><time>2026-04-23T15:24:32.999Z</time></trkpt><trkpt lat="47.832892195395104" lon="-1.6857972764574372"><ele>73.0</ele><time>2026-04-23T15:24:33.999Z</time></trkpt><trkpt lat="47.83304191091216" lon="-1.6857377559946247"><ele>73.0</ele><time>2026-04-23T15:24:34.999Z</time></trkpt><trkpt lat="47.83319983330396" lon="-1.6856721155128027"><ele>73.0</ele><time>2026-04-23T15:24:36Z</time></trkpt><trkpt lat="47.83334873509767" lon="-1.6856142128537828"><ele>73.0</ele><time>2026-04-23T15:24:37Z</time></trkpt><trkpt lat="47.83350506329712" lon="-1.6855363148013798"><ele>72.33333333333333</ele><time>2026-04-23T15:24:38Z</time></trkpt><trkpt lat="47.833655341689855" lon="-1.6854811509041192"><ele>71.66666666666667</ele><time>2026-04-23T15:24:39Z</time></trkpt><trkpt lat="47.83381243027544" lon="-1.685415870093346"><ele>71.0</ele><time>2026-04-23T15:24:40Z</time></trkpt><trkpt lat="47.83396964724966" lon="-1.685351131653399"><ele>71.0</ele><time>2026-04-23T15:24:41Z</time></trkpt><trkpt lat="47.83412108066206" lon="-1.6852923263049453"><ele>71.0</ele><time>2026-04-23T15:24:42Z</time></trkpt><trkpt lat="47.834263229172265" lon="-1.6852339739504552"><ele>71.0</ele><time>2026-04-23T15:24:43Z</time></trkpt><trkpt lat="47.83439555409877" lon="-1.6851830803397478"><ele>71.0</ele><time>2026-04-23T15:24:44Z</time></trkpt><trkpt lat="47.834520499373575" lon="-1.6851335281322393"><ele>71.2</ele><time>2026-04-23T15:24:45Z</time></trkpt><trkpt lat="47.83463371317997" lon="-1.685066129408776"><ele>71.39999999999999</ele><time>2026-04-23T15:24:46Z</time></trkpt><trkpt lat="47.83472966167703" lon="-1.6850452451503375"><ele>71.6</ele><time>2026-04-23T15:24:47Z</time></trkpt><trkpt lat="47.83479722306058" lon="-1.6850086612805324"><ele>71.8</ele><time>2026-04-23T15:24:48Z</time></trkpt><trkpt lat="47.83489935360084" lon="-1.6849627387297688"><ele>72.0</ele><time>2026-04-23T15:24:50Z</time></trkpt><trkpt lat="47.835007517139445" lon="-1.6849076164501666"><ele>72.0</ele><time>2026-04-23T15:24:52Z</time></trkpt><trkpt lat="47.83509743305904" lon="-1.6848526709342972"><ele>72.0</ele><time>2026-04-23T15:24:54Z</time></trkpt><trkpt lat="47.83522272388957" lon="-1.6847995750607028"><ele>72.0</ele><time>2026-04-23T15:24:56Z</time></trkpt><trkpt lat="47.83529160825813" lon="-1.684775956872202"><ele>72.0</ele><time>2026-04-23T15:24:57Z</time></trkpt><trkpt lat="47.83537338193912" lon="-1.6847464459024668"><ele>72.0</ele><time>2026-04-23T15:24:58Z</time></trkpt><trkpt lat="47.835484490971275" lon="-1.6846782711555004"><ele>72.5</ele><time>2026-04-23T15:24:59Z</time></trkpt><trkpt lat="47.83560186358805" lon="-1.6846195046270998"><ele>73.0</ele><time>2026-04-23T15:25:00Z</time></trkpt><trkpt lat="47.835696506245206" lon="-1.684527614822309"><ele>73.5</ele><time>2026-04-23T15:25:01Z</time></trkpt><trkpt lat="47.83581151396983" lon="-1.6844366296500262"><ele>74.0</ele><time>2026-04-23T15:25:02Z</time></trkpt><trkpt lat="47.83594968000359" lon="-1.6843350581788312"><ele>75.0</ele><time>2026-04-23T15:25:03Z</time></trkpt><trkpt lat="47.83608607353441" lon="-1.6841985266683959"><ele>76.0</ele><time>2026-04-23T15:25:04Z</time></trkpt><trkpt lat="47.83619692467498" lon="-1.6840811633210326"><ele>77.0</ele><time>2026-04-23T15:25:05Z</time></trkpt><trkpt lat="47.8362879537963" lon="-1.6839610444102528"><ele>78.0</ele><time>2026-04-23T15:25:06Z</time></trkpt><trkpt lat="47.83639369185337" lon="-1.6838287635348268"><ele>78.0</ele><time>2026-04-23T15:25:07Z</time></trkpt><trkpt lat="47.83623356107632" lon="-1.6841082490573216"><ele>78.0</ele><time>2026-04-23T15:25:08Z</time></trkpt><trkpt lat="47.83629522204739" lon="-1.6840085429090668"><ele>78.0</ele><time>2026-04-23T15:25:09Z</time></trkpt><trkpt lat="47.83638210152063" lon="-1.6839307049117216"><ele>78.0</ele><time>2026-04-23T15:25:10Z</time></trkpt><trkpt lat="47.83645924959394" lon="-1.6838387991333177"><ele>78.0</ele><time>2026-04-23T15:25:11Z</time></trkpt><trkpt lat="47.83654466490684" lon="-1.6837224879255228"><ele>78.0</ele><time>2026-04-23T15:25:12Z</time></trkpt><trkpt lat="47.83662802219393" lon="-1.6836212688633014"><ele>78.0</ele><time>2026-04-23T15:25:13Z</time></trkpt><trkpt lat="47.836714403660515" lon="-1.683510527292681"><ele>78.0</ele><time>2026-04-23T15:25:14Z</time></trkpt><trkpt lat="47.83679826060308" lon="-1.6834105715757766"><ele>78.0</ele><time>2026-04-23T15:25:15Z</time></trkpt><trkpt lat="47.83688173796128" lon="-1.68331859645086"><ele>79.0</ele><time>2026-04-23T15:25:16Z</time></trkpt><trkpt lat="47.83695877141647" lon="-1.6832311128729736"><ele>80.0</ele><time>2026-04-23T15:25:17Z</time></trkpt><trkpt lat="47.83703130457049" lon="-1.6831281213899878"><ele>81.0</ele><time>2026-04-23T15:25:18Z</time></trkpt><trkpt lat="47.83712283148681" lon="-1.6830500560498531"><ele>82.0</ele><time>2026-04-23T15:25:19Z</time></trkpt><trkpt lat="47.8372036066084" lon="-1.6829555736497948"><ele>83.0</ele><time>2026-04-23T15:25:20Z</time></trkpt><trkpt lat="47.83728267261347" lon="-1.6828564145029765"><ele>83.0</ele><time>2026-04-23T15:25:21Z</time></trkpt><trkpt lat="47.837365445829676" lon="-1.6827639452424918"><ele>83.0</ele><time>2026-04-23T15:25:22Z</time></trkpt><trkpt lat="47.837434332655185" lon="-1.6826464666414374"><ele>83.0</ele><time>2026-04-23T15:25:23Z</time></trkpt><trkpt lat="47.83752041466738" lon="-1.6825487742318788"><ele>83.0</ele><time>2026-04-23T15:25:24Z</time></trkpt><trkpt lat="47.83760055587729" lon="-1.682454333201003"><ele>83.0</ele><time>2026-04-23T15:25:25Z</time></trkpt><trkpt lat="47.837685498438944" lon="-1.6823607636952798"><ele>84.80000000000001</ele><time>2026-04-23T15:25:26Z</time></trkpt><trkpt lat="47.837767124152755" lon="-1.682275130192058"><ele>86.6</ele><time>2026-04-23T15:25:27Z</time></trkpt><trkpt lat="47.83784797598869" lon="-1.6821923361968463"><ele>88.4</ele><time>2026-04-23T15:25:28Z</time></trkpt><trkpt lat="47.8379291964331" lon="-1.6821135073373885"><ele>90.19999999999999</ele><time>2026-04-23T15:25:29Z</time></trkpt><trkpt lat="47.83799320126953" lon="-1.6820493180182774"><ele>92.0</ele><time>2026-04-23T15:25:30Z</time></trkpt><trkpt lat="47.838091260232346" lon="-1.6819663172345576"><ele>92.0</ele><time>2026-04-23T15:25:32Z</time></trkpt><trkpt lat="47.83818212664439" lon="-1.6819076717684573"><ele>92.0</ele><time>2026-04-23T15:25:34Z</time></trkpt><trkpt lat="47.83828454020566" lon="-1.6818345566762827"><ele>92.0</ele><time>2026-04-23T15:25:36Z</time></trkpt><trkpt lat="47.838404202452814" lon="-1.6817537115770473"><ele>92.0</ele><time>2026-04-23T15:25:38Z</time></trkpt><trkpt lat="47.838471639003245" lon="-1.681726391193144"><ele>92.0</ele><time>2026-04-23T15:25:39Z</time></trkpt><trkpt lat="47.83854522593444" lon="-1.6817062966857883"><ele>92.0</ele><time>2026-04-23T15:25:40Z</time></trkpt><trkpt lat="47.83860989281769" lon="-1.6816535857656538"><ele>92.0</ele><time>2026-04-23T15:25:41Z</time></trkpt><trkpt lat="47.83868175808861" lon="-1.6816253267088181"><ele>92.0</ele><time>2026-04-23T15:25:42Z</time></trkpt><trkpt lat="47.838754629298094" lon="-1.6815945854488623"><ele>92.0</ele><time>2026-04-23T15:25:43Z</time></trkpt><trkpt lat="47.83881516742227" lon="-1.6815590765510648"><ele>92.0</ele><time>2026-04-23T15:25:44Z</time></trkpt><trkpt lat="47.83887985606918" lon="-1.6815263871447212"><ele>92.0</ele><time>2026-04-23T15:25:44.999Z</time></trkpt><trkpt lat="47.838950894521666" lon="-1.6815048868603122"><ele>92.0</ele><time>2026-04-23T15:25:45.999Z</time></trkpt><trkpt lat="47.8390243675189" lon="-1.681493989658938"><ele>92.0</ele><time>2026-04-23T15:25:46.999Z</time></trkpt><trkpt lat="47.83910511914424" lon="-1.681484179927108"><ele>92.0</ele><time>2026-04-23T15:25:47.999Z</time></trkpt><trkpt lat="47.839182194505874" lon="-1.6814698305158637"><ele>92.0</ele><time>2026-04-23T15:25:48.999Z</time></trkpt><trkpt lat="47.83927152643484" lon="-1.6814520834597075"><ele>92.0</ele><time>2026-04-23T15:25:49.999Z</time></trkpt><trkpt lat="47.83936280301428" lon="-1.6814352495910623"><ele>92.0</ele><time>2026-04-23T15:25:50.999Z</time></trkpt><trkpt lat="47.83943275715819" lon="-1.6814221895558878"><ele>92.0</ele><time>2026-04-23T15:25:51.999Z</time></trkpt><trkpt lat="47.83950711260912" lon="-1.6814103052322271"><ele>92.83333333333334</ele><time>2026-04-23T15:25:52.999Z</time></trkpt><trkpt lat="47.83958006848031" lon="-1.6813962879683462"><ele>93.66666666666667</ele><time>2026-04-23T15:25:53.999Z</time></trkpt><trkpt lat="47.839663320534044" lon="-1.68137934431661"><ele>94.5</ele><time>2026-04-23T15:25:54.999Z</time></trkpt><trkpt lat="47.839751144239" lon="-1.6813645290309291"><ele>95.33333333333334</ele><time>2026-04-23T15:25:55.999Z</time></trkpt><trkpt lat="47.839841739833496" lon="-1.6813519007293452"><ele>96.16666666666667</ele><time>2026-04-23T15:25:56.999Z</time></trkpt><trkpt lat="47.839924743535974" lon="-1.681334628307126"><ele>97.0</ele><time>2026-04-23T15:25:57.999Z</time></trkpt><trkpt lat="47.84002369159573" lon="-1.6813172514826804"><ele>97.00000000000001</ele><time>2026-04-23T15:25:58.999Z</time></trkpt><trkpt lat="47.84011660771575" lon="-1.6813003846923398"><ele>97.0</ele><time>2026-04-23T15:25:59.999Z</time></trkpt><trkpt lat="47.840197241753096" lon="-1.6812616853290716"><ele>97.0</ele><time>2026-04-23T15:26:00.999Z</time></trkpt><trkpt lat="47.840280379814494" lon="-1.681244474991431"><ele>97.0</ele><time>2026-04-23T15:26:01.999Z</time></trkpt><trkpt lat="47.84035568253757" lon="-1.6812288866351504"><ele>97.00000000000001</ele><time>2026-04-23T15:26:02.999Z</time></trkpt><trkpt lat="47.840458452972854" lon="-1.6812192941275155"><ele>97.0</ele><time>2026-04-23T15:26:04.999Z</time></trkpt><trkpt lat="47.84053953184514" lon="-1.6811989581489182"><ele>97.16666666666667</ele><time>2026-04-23T15:26:06.999Z</time></trkpt><trkpt lat="47.840620774892614" lon="-1.6811869120227187"><ele>97.33333333333334</ele><time>2026-04-23T15:26:09.999Z</time></trkpt><trkpt lat="47.84070200744171" lon="-1.6811602810373731"><ele>97.5</ele><time>2026-04-23T15:26:11.999Z</time></trkpt><trkpt lat="47.840765524497776" lon="-1.681171975278115"><ele>97.66666666666666</ele><time>2026-04-23T15:26:12.999Z</time></trkpt><trkpt lat="47.84082863470513" lon="-1.6811594742214833"><ele>97.83333333333333</ele><time>2026-04-23T15:26:13.999Z</time></trkpt><trkpt lat="47.840942152114" lon="-1.6811403036551045"><ele>98.0</ele><time>2026-04-23T15:26:15.999Z</time></trkpt><trkpt lat="47.84102714658178" lon="-1.681133689407368"><ele>98.75</ele><time>2026-04-23T15:26:17.999Z</time></trkpt><trkpt lat="47.84108966864532" lon="-1.6811050898246946"><ele>99.5</ele><time>2026-04-23T15:26:19.999Z</time></trkpt><trkpt lat="47.8411231746288" lon="-1.6814435483827506"><ele>100.25</ele><time>2026-04-23T15:26:22.999Z</time></trkpt><trkpt lat="47.841134711985305" lon="-1.681559692440873"><ele>101.0</ele><time>2026-04-23T15:26:23.999Z</time></trkpt><trkpt lat="47.841138087580845" lon="-1.6816983213602799"><ele>101.0</ele><time>2026-04-23T15:26:24.999Z</time></trkpt><trkpt lat="47.84115407643568" lon="-1.6818691334328348"><ele>101.0</ele><time>2026-04-23T15:26:25.999Z</time></trkpt><trkpt lat="47.84115599343155" lon="-1.6820347724740203"><ele>101.0</ele><time>2026-04-23T15:26:26.999Z</time></trkpt><trkpt lat="47.84116274226316" lon="-1.6821613877855193"><ele>101.0</ele><time>2026-04-23T15:26:27.999Z</time></trkpt><trkpt lat="47.84118211627702" lon="-1.6822615214162218"><ele>101.0</ele><time>2026-04-23T15:26:28.999Z</time></trkpt><trkpt lat="47.84125855212534" lon="-1.6823790441043787"><ele>101.4</ele><time>2026-04-23T15:26:30.999Z</time></trkpt><trkpt lat="47.84133206228079" lon="-1.6824395908010208"><ele>101.8</ele><time>2026-04-23T15:26:31.999Z</time></trkpt><trkpt lat="47.84143123669692" lon="-1.6824840191176114"><ele>102.2</ele><time>2026-04-23T15:26:32.999Z</time></trkpt><trkpt lat="47.841531672635156" lon="-1.6825537250771565"><ele>102.60000000000001</ele><time>2026-04-23T15:26:33.999Z</time></trkpt><trkpt lat="47.84162830589053" lon="-1.6826335436973172"><ele>103.0</ele><time>2026-04-23T15:26:34.999Z</time></trkpt><trkpt lat="47.84172987222934" lon="-1.682696652053764"><ele>103.60000000000001</ele><time>2026-04-23T15:26:35.999Z</time></trkpt><trkpt lat="47.84180632439719" lon="-1.6827519716941053"><ele>104.2</ele><time>2026-04-23T15:26:36.999Z</time></trkpt><trkpt lat="47.841904666520364" lon="-1.682787750231207"><ele>104.8</ele><time>2026-04-23T15:26:38.999Z</time></trkpt><trkpt lat="47.842018084023756" lon="-1.6828994332123766"><ele>105.4</ele><time>2026-04-23T15:26:40.999Z</time></trkpt><trkpt lat="47.84203370515885" lon="-1.6830435961393007"><ele>106.0</ele><time>2026-04-23T15:26:42Z</time></trkpt><trkpt lat="47.84202024754682" lon="-1.683195168702847"><ele>106.0</ele><time>2026-04-23T15:26:43Z</time></trkpt><trkpt lat="47.84205893834224" lon="-1.6833083134372526"><ele>106.0</ele><time>2026-04-23T15:26:44Z</time></trkpt><trkpt lat="47.842128067382205" lon="-1.6833818308699346"><ele>106.0</ele><time>2026-04-23T15:26:45Z</time></trkpt><trkpt lat="47.842204147962406" lon="-1.6834539076982447"><ele>106.0</ele><time>2026-04-23T15:26:46Z</time></trkpt><trkpt lat="47.842286188660125" lon="-1.683541854642263"><ele>106.0</ele><time>2026-04-23T15:26:47Z</time></trkpt><trkpt lat="47.842357261901896" lon="-1.6836332128931937"><ele>106.00000000000001</ele><time>2026-04-23T15:26:48Z</time></trkpt><trkpt lat="47.842423042221434" lon="-1.6837070049797171"><ele>106.0</ele><time>2026-04-23T15:26:49Z</time></trkpt><trkpt lat="47.842487081999025" lon="-1.683778261924567"><ele>106.0</ele><time>2026-04-23T15:26:50Z</time></trkpt><trkpt lat="47.84254257818831" lon="-1.683830666816422"><ele>106.0</ele><time>2026-04-23T15:26:51Z</time></trkpt><trkpt lat="47.84264026915378" lon="-1.683908611780875"><ele>106.00000000000001</ele><time>2026-04-23T15:26:53Z</time></trkpt><trkpt lat="47.84270100682805" lon="-1.684016514456638"><ele>106.0</ele><time>2026-04-23T15:27:00Z</time></trkpt><trkpt lat="47.84275041303405" lon="-1.6841815387802186"><ele>106.0</ele><time>2026-04-23T15:27:02Z</time></trkpt><trkpt lat="47.84276779589036" lon="-1.6842839592525012"><ele>106.0</ele><time>2026-04-23T15:27:03Z</time></trkpt><trkpt lat="47.842794922252075" lon="-1.684414845788095"><ele>106.0</ele><time>2026-04-23T15:27:04Z</time></trkpt><trkpt lat="47.84284815444546" lon="-1.6845882194641113"><ele>106.0</ele><time>2026-04-23T15:27:05Z</time></trkpt><trkpt lat="47.8428877919163" lon="-1.6847749342268705"><ele>106.0</ele><time>2026-04-23T15:27:06Z</time></trkpt><trkpt lat="47.84290424373282" lon="-1.6849359167039768"><ele>106.0</ele><time>2026-04-23T15:27:07Z</time></trkpt><trkpt lat="47.84293144193338" lon="-1.6850602199970468"><ele>106.0</ele><time>2026-04-23T15:27:08Z</time></trkpt><trkpt lat="47.842970691033145" lon="-1.6851773717153982"><ele>106.0</ele><time>2026-04-23T15:27:09Z</time></trkpt><trkpt lat="47.84301531520229" lon="-1.6853073277989357"><ele>106.0</ele><time>2026-04-23T15:27:10Z</time></trkpt><trkpt lat="47.843044466954744" lon="-1.6854486254850767"><ele>106.0</ele><time>2026-04-23T15:27:11Z</time></trkpt><trkpt lat="47.84306126062912" lon="-1.6856100137607792"><ele>106.19999999999999</ele><time>2026-04-23T15:27:12Z</time></trkpt><trkpt lat="47.84308209430686" lon="-1.6857699201558374"><ele>106.39999999999999</ele><time>2026-04-23T15:27:13Z</time></trkpt><trkpt lat="47.84310961173786" lon="-1.6859246693627452"><ele>106.6</ele><time>2026-04-23T15:27:14Z</time></trkpt><trkpt lat="47.84312120492943" lon="-1.6860653268659735"><ele>106.8</ele><time>2026-04-23T15:27:15Z</time></trkpt><trkpt lat="47.84313439898423" lon="-1.6861776578015788"><ele>107.0</ele><time>2026-04-23T15:27:16Z</time></trkpt><trkpt lat="47.84314105523234" lon="-1.6862745637553644"><ele>107.0</ele><time>2026-04-23T15:27:17Z</time></trkpt><trkpt lat="47.843141530078924" lon="-1.6863710862401116"><ele>106.99999999999999</ele><time>2026-04-23T15:27:18Z</time></trkpt><trkpt lat="47.84315916336906" lon="-1.686488249635539"><ele>106.99999999999999</ele><time>2026-04-23T15:27:19Z</time></trkpt><trkpt lat="47.84317784802337" lon="-1.686662478508286"><ele>107.0</ele><time>2026-04-23T15:27:20Z</time></trkpt><trkpt lat="47.84319201460053" lon="-1.6868898854742136"><ele>107.0</ele><time>2026-04-23T15:27:21Z</time></trkpt><trkpt lat="47.84320641770713" lon="-1.6871049693719182"><ele>107.33333333333333</ele><time>2026-04-23T15:27:22Z</time></trkpt><trkpt lat="47.84322471746076" lon="-1.6873432507644581"><ele>107.66666666666666</ele><time>2026-04-23T15:27:23Z</time></trkpt><trkpt lat="47.843245599817884" lon="-1.6876009816979478"><ele>108.0</ele><time>2026-04-23T15:27:23.999Z</time></trkpt><trkpt lat="47.84326473003808" lon="-1.6878133632978394"><ele>108.0</ele><time>2026-04-23T15:27:24.999Z</time></trkpt><trkpt lat="47.84327634801812" lon="-1.6880018221388975"><ele>108.00000000000001</ele><time>2026-04-23T15:27:25.999Z</time></trkpt><trkpt lat="47.84328719127266" lon="-1.6881636993059899"><ele>108.00000000000001</ele><time>2026-04-23T15:27:26.999Z</time></trkpt><trkpt lat="47.84330447991607" lon="-1.6883208614160221"><ele>108.0</ele><time>2026-04-23T15:27:27.999Z</time></trkpt><trkpt lat="47.843327258083235" lon="-1.6884576282350485"><ele>108.0</ele><time>2026-04-23T15:27:28.999Z</time></trkpt><trkpt lat="47.84337427279911" lon="-1.688569461248695"><ele>108.0</ele><time>2026-04-23T15:27:29.999Z</time></trkpt><trkpt lat="47.843428067092916" lon="-1.6886648666498556"><ele>108.00000000000001</ele><time>2026-04-23T15:27:30.999Z</time></trkpt><trkpt lat="47.843510376716466" lon="-1.6887387413303483"><ele>108.00000000000001</ele><time>2026-04-23T15:27:31.999Z</time></trkpt><trkpt lat="47.84358037538644" lon="-1.6888304449131055"><ele>108.0</ele><time>2026-04-23T15:27:32.999Z</time></trkpt><trkpt lat="47.843703385594836" lon="-1.6888018870552255"><ele>108.0</ele><time>2026-04-23T15:27:33.999Z</time></trkpt><trkpt lat="47.843805559688725" lon="-1.6887671988008237"><ele>108.0</ele><time>2026-04-23T15:27:34.999Z</time></trkpt><trkpt lat="47.84394029139278" lon="-1.6886893402070198"><ele>108.0</ele><time>2026-04-23T15:27:35.999Z</time></trkpt><trkpt lat="47.84409944932023" lon="-1.6885744236489295"><ele>108.0</ele><time>2026-04-23T15:27:36.999Z</time></trkpt><trkpt lat="47.84422906763586" lon="-1.688475178369232"><ele>107.66666666666666</ele><time>2026-04-23T15:27:37.999Z</time></trkpt><trkpt lat="47.84436809508243" lon="-1.6883632195976965"><ele>107.33333333333333</ele><time>2026-04-23T15:27:38.999Z</time></trkpt><trkpt lat="47.844512389859965" lon="-1.6882320367880663"><ele>107.0</ele><time>2026-04-23T15:27:39.999Z</time></trkpt><trkpt lat="47.844662902381614" lon="-1.688114140631402"><ele>107.0</ele><time>2026-04-23T15:27:40.999Z</time></trkpt><trkpt lat="47.84481922471698" lon="-1.6879942729091777"><ele>107.0</ele><time>2026-04-23T15:27:41.999Z</time></trkpt><trkpt lat="47.84497541124886" lon="-1.6878750439009338"><ele>107.0</ele><time>2026-04-23T15:27:42.999Z</time></trkpt><trkpt lat="47.84513993072158" lon="-1.6877587846887594"><ele>106.33333333333333</ele><time>2026-04-23T15:27:43.999Z</time></trkpt><trkpt lat="47.84529079399599" lon="-1.687635978878163"><ele>105.66666666666666</ele><time>2026-04-23T15:27:44.999Z</time></trkpt><trkpt lat="47.84543281769545" lon="-1.687529468916008"><ele>105.0</ele><time>2026-04-23T15:27:45.999Z</time></trkpt><trkpt lat="47.84556993729487" lon="-1.6874145132325795"><ele>105.0</ele><time>2026-04-23T15:27:46.999Z</time></trkpt><trkpt lat="47.845707947011334" lon="-1.6873008772478442"><ele>105.0</ele><time>2026-04-23T15:27:47.999Z</time></trkpt><trkpt lat="47.845863115794636" lon="-1.687180677036724"><ele>105.0</ele><time>2026-04-23T15:27:48.999Z</time></trkpt><trkpt lat="47.84602651069026" lon="-1.6870645146923768"><ele>104.33333333333334</ele><time>2026-04-23T15:27:49.999Z</time></trkpt><trkpt lat="47.846185458357006" lon="-1.686915080253124"><ele>103.66666666666667</ele><time>2026-04-23T15:27:50.999Z</time></trkpt><trkpt lat="47.84633632692101" lon="-1.686818749312232"><ele>103.0</ele><time>2026-04-23T15:27:51.999Z</time></trkpt><trkpt lat="47.84644989414276" lon="-1.6866663794520358"><ele>103.0</ele><time>2026-04-23T15:27:52.999Z</time></trkpt><trkpt lat="47.84657611451541" lon="-1.6865026501139118"><ele>103.0</ele><time>2026-04-23T15:27:53.999Z</time></trkpt><trkpt lat="47.84668003387123" lon="-1.6863412140744072"><ele>103.0</ele><time>2026-04-23T15:27:54.999Z</time></trkpt><trkpt lat="47.846755930271684" lon="-1.6861822868198826"><ele>103.0</ele><time>2026-04-23T15:27:55.999Z</time></trkpt><trkpt lat="47.84680405498242" lon="-1.686053887257276"><ele>102.16666666666667</ele><time>2026-04-23T15:27:56.999Z</time></trkpt><trkpt lat="47.84684373853524" lon="-1.6859581663879382"><ele>101.33333333333334</ele><time>2026-04-23T15:27:57.999Z</time></trkpt><trkpt lat="47.84680961554953" lon="-1.6858312426735071"><ele>100.5</ele><time>2026-04-23T15:27:58.999Z</time></trkpt><trkpt lat="47.84683490366258" lon="-1.68573930684162"><ele>99.66666666666666</ele><time>2026-04-23T15:28:00.999Z</time></trkpt><trkpt lat="47.84695160593183" lon="-1.6857371708413746"><ele>98.83333333333333</ele><time>2026-04-23T15:28:02.999Z</time></trkpt><trkpt lat="47.84703236045984" lon="-1.6858080032656235"><ele>98.0</ele><time>2026-04-23T15:28:03.999Z</time></trkpt><trkpt lat="47.84714155194546" lon="-1.6858533198820747"><ele>97.99999999999999</ele><time>2026-04-23T15:28:04.999Z</time></trkpt><trkpt lat="47.847228592351016" lon="-1.685886197679665"><ele>98.0</ele><time>2026-04-23T15:28:05.999Z</time></trkpt><trkpt lat="47.84732183586323" lon="-1.6859199987447777"><ele>98.0</ele><time>2026-04-23T15:28:06.999Z</time></trkpt><trkpt lat="47.84740041358361" lon="-1.6859481326452537"><ele>98.0</ele><time>2026-04-23T15:28:07.999Z</time></trkpt><trkpt lat="47.84746747699542" lon="-1.6859638350249793"><ele>97.99999999999999</ele><time>2026-04-23T15:28:08.999Z</time></trkpt><trkpt lat="47.847534408390096" lon="-1.6859859273017022"><ele>98.0</ele><time>2026-04-23T15:28:09.999Z</time></trkpt><trkpt lat="47.84760971584249" lon="-1.686022034019908"><ele>97.66666666666666</ele><time>2026-04-23T15:28:10.999Z</time></trkpt><trkpt lat="47.847693769830194" lon="-1.6860510940107356"><ele>97.33333333333333</ele><time>2026-04-23T15:28:11.999Z</time></trkpt><trkpt lat="47.84777964838427" lon="-1.6860770606119797"><ele>97.0</ele><time>2026-04-23T15:28:12.999Z</time></trkpt><trkpt lat="47.847859260900506" lon="-1.6861034958485548"><ele>96.66666666666666</ele><time>2026-04-23T15:28:13.999Z</time></trkpt><trkpt lat="47.847933383716175" lon="-1.6861390269620156"><ele>96.33333333333333</ele><time>2026-04-23T15:28:14.999Z</time></trkpt><trkpt lat="47.84799853768428" lon="-1.6861678908174276"><ele>96.0</ele><time>2026-04-23T15:28:15.999Z</time></trkpt><trkpt lat="47.8481231149173" lon="-1.6862232739716019"><ele>96.0</ele><time>2026-04-23T15:28:17.999Z</time></trkpt><trkpt lat="47.848184974411765" lon="-1.6862470879401015"><ele>96.0</ele><time>2026-04-23T15:28:18.999Z</time></trkpt><trkpt lat="47.848296650709" lon="-1.6863000054748989"><ele>96.0</ele><time>2026-04-23T15:28:20.999Z</time></trkpt><trkpt lat="47.84836141984734" lon="-1.686346244950328"><ele>96.0</ele><time>2026-04-23T15:28:21.999Z</time></trkpt><trkpt lat="47.848434521169196" lon="-1.6864130287116375"><ele>96.0</ele><time>2026-04-23T15:28:22.999Z</time></trkpt><trkpt lat="47.848516997517876" lon="-1.6864889410820099"><ele>96.0</ele><time>2026-04-23T15:28:23.999Z</time></trkpt><trkpt lat="47.848599999045554" lon="-1.6865742865002935"><ele>95.5</ele><time>2026-04-23T15:28:24.999Z</time></trkpt><trkpt lat="47.848684574950944" lon="-1.686695167351968"><ele>95.0</ele><time>2026-04-23T15:28:25.999Z</time></trkpt><trkpt lat="47.84876544177358" lon="-1.6868352942481746"><ele>94.5</ele><time>2026-04-23T15:28:26.999Z</time></trkpt><trkpt lat="47.84884486651914" lon="-1.687007685087858"><ele>94.0</ele><time>2026-04-23T15:28:27.999Z</time></trkpt><trkpt lat="47.84890203354033" lon="-1.6871882108037486"><ele>94.0</ele><time>2026-04-23T15:28:28.999Z</time></trkpt><trkpt lat="47.84894958987883" lon="-1.687361688232309"><ele>94.0</ele><time>2026-04-23T15:28:29.999Z</time></trkpt><trkpt lat="47.84900333851663" lon="-1.6875286118284083"><ele>94.0</ele><time>2026-04-23T15:28:30.999Z</time></trkpt><trkpt lat="47.84905808305907" lon="-1.6876985937035942"><ele>94.0</ele><time>2026-04-23T15:28:31.999Z</time></trkpt><trkpt lat="47.84910475947727" lon="-1.687890471552202"><ele>93.5</ele><time>2026-04-23T15:28:32.999Z</time></trkpt><trkpt lat="47.84917050359439" lon="-1.6880523942467587"><ele>93.0</ele><time>2026-04-23T15:28:33.999Z</time></trkpt><trkpt lat="47.84920782143134" lon="-1.6881779157970915"><ele>92.5</ele><time>2026-04-23T15:28:34.999Z</time></trkpt><trkpt lat="47.84923476390002" lon="-1.6882798266950225"><ele>92.0</ele><time>2026-04-23T15:28:35.999Z</time></trkpt><trkpt lat="47.84926588689232" lon="-1.688370757718156"><ele>91.5</ele><time>2026-04-23T15:28:36.999Z</time></trkpt><trkpt lat="47.84930004719217" lon="-1.6884828980106956"><ele>91.0</ele><time>2026-04-23T15:28:37.999Z</time></trkpt><trkpt lat="47.84932739141375" lon="-1.688592096422453"><ele>89.25</ele><time>2026-04-23T15:28:38.999Z</time></trkpt><trkpt lat="47.84936523546159" lon="-1.6887246204318442"><ele>87.5</ele><time>2026-04-23T15:28:39.999Z</time></trkpt><trkpt lat="47.84940984482325" lon="-1.688883257121123"><ele>85.75</ele><time>2026-04-23T15:28:40.999Z</time></trkpt><trkpt lat="47.84946333061658" lon="-1.689060454953535"><ele>84.0</ele><time>2026-04-23T15:28:41.999Z</time></trkpt><trkpt lat="47.84951180599244" lon="-1.6892178760750094"><ele>84.0</ele><time>2026-04-23T15:28:42.999Z</time></trkpt><trkpt lat="47.8495483374216" lon="-1.689377986863404"><ele>84.0</ele><time>2026-04-23T15:28:43.999Z</time></trkpt><trkpt lat="47.84958227261216" lon="-1.6895664449953478"><ele>84.0</ele><time>2026-04-23T15:28:44.999Z</time></trkpt><trkpt lat="47.84960754602608" lon="-1.689779764944885"><ele>84.0</ele><time>2026-04-23T15:28:45.999Z</time></trkpt><trkpt lat="47.84963532747415" lon="-1.6900047470673376"><ele>84.0</ele><time>2026-04-23T15:28:46.999Z</time></trkpt><trkpt lat="47.84965115088881" lon="-1.6902339000460689"><ele>84.0</ele><time>2026-04-23T15:28:48Z</time></trkpt><trkpt lat="47.84966988631781" lon="-1.6904830423933768"><ele>84.0</ele><time>2026-04-23T15:28:49Z</time></trkpt><trkpt lat="47.849681624978906" lon="-1.6907365052481163"><ele>84.33333333333333</ele><time>2026-04-23T15:28:50Z</time></trkpt><trkpt lat="47.849666189568346" lon="-1.6909923210810895"><ele>84.66666666666666</ele><time>2026-04-23T15:28:51Z</time></trkpt><trkpt lat="47.84963313297578" lon="-1.6912388309401907"><ele>85.0</ele><time>2026-04-23T15:28:52Z</time></trkpt><trkpt lat="47.84959666813079" lon="-1.6914857527737792"><ele>85.66666666666666</ele><time>2026-04-23T15:28:53Z</time></trkpt><trkpt lat="47.849544533789924" lon="-1.6917428969216006"><ele>86.33333333333333</ele><time>2026-04-23T15:28:54Z</time></trkpt><trkpt lat="47.8494751133921" lon="-1.6920017178735935"><ele>87.0</ele><time>2026-04-23T15:28:55Z</time></trkpt><trkpt lat="47.849405488558716" lon="-1.69226505904822"><ele>87.0</ele><time>2026-04-23T15:28:56Z</time></trkpt><trkpt lat="47.84935496210927" lon="-1.6925317169892609"><ele>87.0</ele><time>2026-04-23T15:28:57Z</time></trkpt><trkpt lat="47.849299754490396" lon="-1.692758633751271"><ele>87.0</ele><time>2026-04-23T15:28:58Z</time></trkpt><trkpt lat="47.84925330244807" lon="-1.6929574922478143"><ele>87.5</ele><time>2026-04-23T15:28:59Z</time></trkpt><trkpt lat="47.84922466263361" lon="-1.6931256846690577"><ele>88.0</ele><time>2026-04-23T15:29:00Z</time></trkpt><trkpt lat="47.84920609536555" lon="-1.6932448288062678"><ele>88.5</ele><time>2026-04-23T15:29:01Z</time></trkpt><trkpt lat="47.849229899215" lon="-1.6933324789445228"><ele>89.0</ele><time>2026-04-23T15:29:02Z</time></trkpt><trkpt lat="47.84946184884479" lon="-1.6932815151688203"><ele>87.66666666666667</ele><time>2026-04-23T15:29:05Z</time></trkpt><trkpt lat="47.84957324752371" lon="-1.6931407671540342"><ele>86.33333333333333</ele><time>2026-04-23T15:29:06Z</time></trkpt><trkpt lat="47.84969080115933" lon="-1.692948190320684"><ele>85.0</ele><time>2026-04-23T15:29:07Z</time></trkpt><trkpt lat="47.849767553691755" lon="-1.6927916717462286"><ele>84.75</ele><time>2026-04-23T15:29:08Z</time></trkpt><trkpt lat="47.849899982034486" lon="-1.6927017272712337"><ele>84.5</ele><time>2026-04-23T15:29:09Z</time></trkpt><trkpt lat="47.85001850151602" lon="-1.6926262228511404"><ele>84.25</ele><time>2026-04-23T15:29:10Z</time></trkpt><trkpt lat="47.85012276541506" lon="-1.692579353004293"><ele>84.0</ele><time>2026-04-23T15:29:11Z</time></trkpt><trkpt lat="47.85022070887311" lon="-1.6925735044111123"><ele>84.0</ele><time>2026-04-23T15:29:12Z</time></trkpt><trkpt lat="47.850315055831864" lon="-1.6925830112340239"><ele>84.0</ele><time>2026-04-23T15:29:13Z</time></trkpt><trkpt lat="47.8504103665952" lon="-1.692543311422805"><ele>84.0</ele><time>2026-04-23T15:29:14Z</time></trkpt><trkpt lat="47.85050114043715" lon="-1.692443946999344"><ele>84.0</ele><time>2026-04-23T15:29:15Z</time></trkpt><trkpt lat="47.850587774009185" lon="-1.6923508867204566"><ele>84.0</ele><time>2026-04-23T15:29:16Z</time></trkpt><trkpt lat="47.8507052719856" lon="-1.6922948305917929"><ele>84.0</ele><time>2026-04-23T15:29:17Z</time></trkpt><trkpt lat="47.850831919260685" lon="-1.6922845826730026"><ele>84.0</ele><time>2026-04-23T15:29:18Z</time></trkpt><trkpt lat="47.850951202340035" lon="-1.692332209904965"><ele>84.0</ele><time>2026-04-23T15:29:19Z</time></trkpt><trkpt lat="47.85105817887051" lon="-1.6924254298839365"><ele>84.0</ele><time>2026-04-23T15:29:20Z</time></trkpt><trkpt lat="47.851185921666435" lon="-1.692494921349835"><ele>83.25</ele><time>2026-04-23T15:29:21Z</time></trkpt><trkpt lat="47.85130991533761" lon="-1.6924910140678686"><ele>82.5</ele><time>2026-04-23T15:29:22Z</time></trkpt><trkpt lat="47.85142972765383" lon="-1.6924137089463873"><ele>81.75</ele><time>2026-04-23T15:29:23Z</time></trkpt><trkpt lat="47.85153026613849" lon="-1.692318166204089"><ele>81.0</ele><time>2026-04-23T15:29:24Z</time></trkpt><trkpt lat="47.85159633887248" lon="-1.692201805915812"><ele>81.0</ele><time>2026-04-23T15:29:25Z</time></trkpt><trkpt lat="47.85165237221253" lon="-1.6921030110888025"><ele>81.0</ele><time>2026-04-23T15:29:26Z</time></trkpt><trkpt lat="47.85169571382314" lon="-1.6920130761091559"><ele>81.0</ele><time>2026-04-23T15:29:27Z</time></trkpt><trkpt lat="47.85175142134408" lon="-1.691919339793597"><ele>81.0</ele><time>2026-04-23T15:29:28Z</time></trkpt><trkpt lat="47.851778713963036" lon="-1.6918171258194652"><ele>81.0</ele><time>2026-04-23T15:29:29Z</time></trkpt><trkpt lat="47.851813456888394" lon="-1.6917126833418563"><ele>81.0</ele><time>2026-04-23T15:29:30Z</time></trkpt><trkpt lat="47.851844046987615" lon="-1.6916225113869463"><ele>80.0</ele><time>2026-04-23T15:29:31Z</time></trkpt><trkpt lat="47.851872997461086" lon="-1.691529676366136"><ele>79.0</ele><time>2026-04-23T15:29:32Z</time></trkpt><trkpt lat="47.851902504393784" lon="-1.6914228178575001"><ele>78.0</ele><time>2026-04-23T15:29:33Z</time></trkpt><trkpt lat="47.85193664987203" lon="-1.6913152077597178"><ele>77.0</ele><time>2026-04-23T15:29:34Z</time></trkpt><trkpt lat="47.85196823900556" lon="-1.6911884533886508"><ele>76.0</ele><time>2026-04-23T15:29:35Z</time></trkpt><trkpt lat="47.85200029284184" lon="-1.691054661052344"><ele>75.0</ele><time>2026-04-23T15:29:36Z</time></trkpt><trkpt lat="47.852026101487574" lon="-1.6909178074004076"><ele>75.0</ele><time>2026-04-23T15:29:37Z</time></trkpt><trkpt lat="47.85204849604638" lon="-1.6907963491532034"><ele>75.0</ele><time>2026-04-23T15:29:38Z</time></trkpt><trkpt lat="47.852066657299865" lon="-1.6906891788344867"><ele>75.0</ele><time>2026-04-23T15:29:39Z</time></trkpt><trkpt lat="47.852085011785405" lon="-1.6905854707728658"><ele>75.0</ele><time>2026-04-23T15:29:40Z</time></trkpt><trkpt lat="47.85210365109772" lon="-1.6904803150045182"><ele>75.0</ele><time>2026-04-23T15:29:41Z</time></trkpt><trkpt lat="47.85212448610252" lon="-1.6903780825549903"><ele>75.0</ele><time>2026-04-23T15:29:42Z</time></trkpt><trkpt lat="47.8521421013403" lon="-1.6902695214926746"><ele>75.0</ele><time>2026-04-23T15:29:42.999Z</time></trkpt><trkpt lat="47.852161845199525" lon="-1.6901648675000573"><ele>75.0</ele><time>2026-04-23T15:29:43.999Z</time></trkpt><trkpt lat="47.852180315794755" lon="-1.6900594731612508"><ele>75.0</ele><time>2026-04-23T15:29:44.999Z</time></trkpt><trkpt lat="47.85219769721219" lon="-1.6899458704617616"><ele>75.0</ele><time>2026-04-23T15:29:45.999Z</time></trkpt><trkpt lat="47.85221893202394" lon="-1.689842283065645"><ele>75.0</ele><time>2026-04-23T15:29:46.999Z</time></trkpt><trkpt lat="47.85224054414773" lon="-1.689741854355371"><ele>75.0</ele><time>2026-04-23T15:29:47.999Z</time></trkpt><trkpt lat="47.85225990516688" lon="-1.6896196425930994"><ele>75.0</ele><time>2026-04-23T15:29:48.999Z</time></trkpt><trkpt lat="47.852297799603974" lon="-1.6894983125017409"><ele>75.0</ele><time>2026-04-23T15:29:49.999Z</time></trkpt><trkpt lat="47.852343683405124" lon="-1.6894216886378821"><ele>75.0</ele><time>2026-04-23T15:29:50.999Z</time></trkpt><trkpt lat="47.8523787349527" lon="-1.6893357128857736"><ele>75.0</ele><time>2026-04-23T15:29:51.999Z</time></trkpt><trkpt lat="47.85238104745426" lon="-1.6892392375297793"><ele>75.0</ele><time>2026-04-23T15:29:52.999Z</time></trkpt><trkpt lat="47.85238372062992" lon="-1.6891333693519783"><ele>75.0</ele><time>2026-04-23T15:29:53.999Z</time></trkpt><trkpt lat="47.852468977284786" lon="-1.6889871278576194"><ele>74.66666666666667</ele><time>2026-04-23T15:29:55.999Z</time></trkpt><trkpt lat="47.85253913676534" lon="-1.6889996398515474"><ele>74.33333333333333</ele><time>2026-04-23T15:29:56.999Z</time></trkpt><trkpt lat="47.852631362233176" lon="-1.6890822545137565"><ele>74.0</ele><time>2026-04-23T15:29:58.999Z</time></trkpt><trkpt lat="47.852678284982865" lon="-1.6891559667759033"><ele>73.66666666666666</ele><time>2026-04-23T15:29:59.999Z</time></trkpt><trkpt lat="47.852696599085256" lon="-1.689262702221276"><ele>73.33333333333333</ele><time>2026-04-23T15:30:00.999Z</time></trkpt><trkpt lat="47.85278133499923" lon="-1.6893451638843697"><ele>73.0</ele><time>2026-04-23T15:30:01.999Z</time></trkpt><trkpt lat="47.852903675239205" lon="-1.689405850577742"><ele>71.66666666666666</ele><time>2026-04-23T15:30:02.999Z</time></trkpt><trkpt lat="47.85305045215677" lon="-1.6894135379307935"><ele>70.33333333333333</ele><time>2026-04-23T15:30:03.999Z</time></trkpt><trkpt lat="47.853210230353056" lon="-1.6893976400108188"><ele>69.0</ele><time>2026-04-23T15:30:04.999Z</time></trkpt><trkpt lat="47.85336302777503" lon="-1.6893847710057486"><ele>68.0</ele><time>2026-04-23T15:30:05.999Z</time></trkpt><trkpt lat="47.85352487227417" lon="-1.689393545480526"><ele>67.0</ele><time>2026-04-23T15:30:06.999Z</time></trkpt><trkpt lat="47.85369929920027" lon="-1.6893773877913947"><ele>66.0</ele><time>2026-04-23T15:30:07.999Z</time></trkpt><trkpt lat="47.853889340466544" lon="-1.6893603238682846"><ele>66.0</ele><time>2026-04-23T15:30:08.999Z</time></trkpt><trkpt lat="47.854062047920486" lon="-1.6893437178969095"><ele>66.0</ele><time>2026-04-23T15:30:09.999Z</time></trkpt><trkpt lat="47.854236417476585" lon="-1.6893310184273285"><ele>66.0</ele><time>2026-04-23T15:30:10.999Z</time></trkpt><trkpt lat="47.85440814324336" lon="-1.6893090040108043"><ele>65.0</ele><time>2026-04-23T15:30:11.999Z</time></trkpt><trkpt lat="47.854553012726576" lon="-1.6892974337054487"><ele>64.0</ele><time>2026-04-23T15:30:12.999Z</time></trkpt><trkpt lat="47.854690203862816" lon="-1.6892890959507634"><ele>63.0</ele><time>2026-04-23T15:30:13.999Z</time></trkpt><trkpt lat="47.854814786557476" lon="-1.6892782662247212"><ele>62.0</ele><time>2026-04-23T15:30:14.999Z</time></trkpt><trkpt lat="47.85493146960356" lon="-1.689272962443146"><ele>62.0</ele><time>2026-04-23T15:30:15.999Z</time></trkpt><trkpt lat="47.85504093465973" lon="-1.689265636723368"><ele>62.0</ele><time>2026-04-23T15:30:16.999Z</time></trkpt><trkpt lat="47.85514284254552" lon="-1.6892546236193284"><ele>62.0</ele><time>2026-04-23T15:30:17.999Z</time></trkpt><trkpt lat="47.85523167728849" lon="-1.6892216425385438"><ele>62.0</ele><time>2026-04-23T15:30:18.999Z</time></trkpt><trkpt lat="47.85528958723317" lon="-1.6891121419182913"><ele>62.0</ele><time>2026-04-23T15:30:19.999Z</time></trkpt><trkpt lat="47.855357389520634" lon="-1.6890548742604705"><ele>62.28571428571429</ele><time>2026-04-23T15:30:20.999Z</time></trkpt><trkpt lat="47.85541639927523" lon="-1.6890160318735987"><ele>62.57142857142858</ele><time>2026-04-23T15:30:21.999Z</time></trkpt><trkpt lat="47.85547692543903" lon="-1.6890588070149413"><ele>62.85714285714286</ele><time>2026-04-23T15:30:22.999Z</time></trkpt><trkpt lat="47.85552860106542" lon="-1.6891351869413127"><ele>63.14285714285714</ele><time>2026-04-23T15:30:23.999Z</time></trkpt><trkpt lat="47.85554712396138" lon="-1.6892359769546672"><ele>63.42857142857142</ele><time>2026-04-23T15:30:24.999Z</time></trkpt><trkpt lat="47.85554038359583" lon="-1.689337956728913"><ele>63.71428571428571</ele><time>2026-04-23T15:30:25.999Z</time></trkpt><trkpt lat="47.855493693846824" lon="-1.6894464684857706"><ele>64.0</ele><time>2026-04-23T15:30:26.999Z</time></trkpt><trkpt lat="47.8554463269085" lon="-1.6895541928556166"><ele>64.2</ele><time>2026-04-23T15:30:27.999Z</time></trkpt><trkpt lat="47.85543274281953" lon="-1.689682166643832"><ele>64.4</ele><time>2026-04-23T15:30:28.999Z</time></trkpt><trkpt lat="47.855451052197914" lon="-1.6897792302313057"><ele>64.6</ele><time>2026-04-23T15:30:29.999Z</time></trkpt><trkpt lat="47.85547087478037" lon="-1.689902923698496"><ele>64.8</ele><time>2026-04-23T15:30:31.999Z</time></trkpt><trkpt lat="47.85564616880592" lon="-1.6898173187169072"><ele>65.0</ele><time>2026-04-23T15:30:32.999Z</time></trkpt><trkpt lat="47.85574644448193" lon="-1.6898091649822362"><ele>65.0</ele><time>2026-04-23T15:30:33.999Z</time></trkpt><trkpt lat="47.85583914323603" lon="-1.6896951445407955"><ele>65.0</ele><time>2026-04-23T15:30:35.999Z</time></trkpt><trkpt lat="47.85583600784323" lon="-1.6895799072127222"><ele>65.0</ele><time>2026-04-23T15:30:36.999Z</time></trkpt><trkpt lat="47.855860959742856" lon="-1.6894135809841322"><ele>65.0</ele><time>2026-04-23T15:30:38.999Z</time></trkpt><trkpt lat="47.85595351900749" lon="-1.6894171699703653"><ele>65.0</ele><time>2026-04-23T15:30:39.999Z</time></trkpt><trkpt lat="47.85603043803817" lon="-1.689413400139577"><ele>64.2</ele><time>2026-04-23T15:30:40.999Z</time></trkpt><trkpt lat="47.85615568086051" lon="-1.6894446285114693"><ele>63.4</ele><time>2026-04-23T15:30:42.999Z</time></trkpt><trkpt lat="47.85619776576921" lon="-1.6895942891675915"><ele>62.599999999999994</ele><time>2026-04-23T15:30:44.999Z</time></trkpt><trkpt lat="47.856215481666396" lon="-1.6897651395082165"><ele>61.8</ele><time>2026-04-23T15:30:46.999Z</time></trkpt><trkpt lat="47.85625862288222" lon="-1.6898501934231402"><ele>61.0</ele><time>2026-04-23T15:30:48.999Z</time></trkpt><trkpt lat="47.85630459571084" lon="-1.6899179036146512"><ele>61.0</ele><time>2026-04-23T15:30:52.999Z</time></trkpt></trkseg><trkseg><trkpt lat="47.856125425250134" lon="-1.689819136625413"><ele>61.0</ele><time>2026-04-23T16:29:39.987Z</time></trkpt><trkpt lat="47.85612021773073" lon="-1.6897110341178234"><ele>60.99999999999999</ele><time>2026-04-23T16:29:40.988Z</time></trkpt><trkpt lat="47.85617957338342" lon="-1.689507415089469"><ele>60.99999999999999</ele><time>2026-04-23T16:29:42.99Z</time></trkpt><trkpt lat="47.85612892718315" lon="-1.6893786006441973"><ele>61.0</ele><time>2026-04-23T16:29:43.991Z</time></trkpt><trkpt lat="47.85607282916758" lon="-1.689300122220036"><ele>61.0</ele><time>2026-04-23T16:29:45.992Z</time></trkpt><trkpt lat="47.85606644069948" lon="-1.6891763074211092"><ele>61.599999999999994</ele><time>2026-04-23T16:29:53.996Z</time></trkpt><trkpt lat="47.85595106072111" lon="-1.689206942990073"><ele>62.199999999999996</ele><time>2026-04-23T16:29:54.996Z</time></trkpt><trkpt lat="47.8558802800392" lon="-1.6892295767691181"><ele>62.800000000000004</ele><time>2026-04-23T16:29:55.996Z</time></trkpt><trkpt lat="47.855752631825965" lon="-1.6892297974140098"><ele>63.400000000000006</ele><time>2026-04-23T16:29:57.997Z</time></trkpt><trkpt lat="47.8556853474148" lon="-1.6892381126752578"><ele>64.0</ele><time>2026-04-23T16:29:58.997Z</time></trkpt><trkpt lat="47.8555929514412" lon="-1.689262118555029"><ele>63.99999999999999</ele><time>2026-04-23T16:30:00.998Z</time></trkpt><trkpt lat="47.855537575709796" lon="-1.6893435132508297"><ele>64.0</ele><time>2026-04-23T16:30:05.999Z</time></trkpt><trkpt lat="47.8554894746485" lon="-1.6894041523153698"><ele>64.0</ele><time>2026-04-23T16:30:06.999Z</time></trkpt><trkpt lat="47.85543319786871" lon="-1.689453169393702"><ele>64.0</ele><time>2026-04-23T16:30:07.999Z</time></trkpt><trkpt lat="47.85536657138316" lon="-1.6894518617786791"><ele>63.99999999999999</ele><time>2026-04-23T16:30:08.999Z</time></trkpt><trkpt lat="47.855311274346214" lon="-1.6893877279997775"><ele>64.0</ele><time>2026-04-23T16:30:10Z</time></trkpt><trkpt lat="47.85520712674048" lon="-1.6892903934107015"><ele>63.99999999999999</ele><time>2026-04-23T16:30:12Z</time></trkpt><trkpt lat="47.855139494952475" lon="-1.6892720104372685"><ele>64.0</ele><time>2026-04-23T16:30:13Z</time></trkpt><trkpt lat="47.85506403349354" lon="-1.6892757349257297"><ele>64.0</ele><time>2026-04-23T16:30:14Z</time></trkpt><trkpt lat="47.85497442036862" lon="-1.689287322015524"><ele>64.0</ele><time>2026-04-23T16:30:15Z</time></trkpt><trkpt lat="47.854867217657876" lon="-1.689302871947151"><ele>63.99999999999999</ele><time>2026-04-23T16:30:16Z</time></trkpt><trkpt lat="47.85476394383091" lon="-1.6893129070261048"><ele>64.0</ele><time>2026-04-23T16:30:17Z</time></trkpt><trkpt lat="47.85465823096795" lon="-1.6893272434751356"><ele>63.6</ele><time>2026-04-23T16:30:18Z</time></trkpt><trkpt lat="47.85456938603522" lon="-1.6893297564723975"><ele>63.2</ele><time>2026-04-23T16:30:19Z</time></trkpt><trkpt lat="47.85448964738468" lon="-1.6893289975430499"><ele>62.800000000000004</ele><time>2026-04-23T16:30:20.001Z</time></trkpt><trkpt lat="47.85440596881042" lon="-1.6893354315810956"><ele>62.400000000000006</ele><time>2026-04-23T16:30:21.001Z</time></trkpt><trkpt lat="47.85431152803325" lon="-1.6893421206416004"><ele>62.0</ele><time>2026-04-23T16:30:22.001Z</time></trkpt><trkpt lat="47.85419930290137" lon="-1.6893452937381164"><ele>63.0</ele><time>2026-04-23T16:30:23.001Z</time></trkpt><trkpt lat="47.85408261554336" lon="-1.6893764946192265"><ele>64.0</ele><time>2026-04-23T16:30:24.001Z</time></trkpt><trkpt lat="47.85396763366839" lon="-1.6893858056085056"><ele>65.0</ele><time>2026-04-23T16:30:25.001Z</time></trkpt><trkpt lat="47.85384105117138" lon="-1.6893957140359013"><ele>66.0</ele><time>2026-04-23T16:30:26.001Z</time></trkpt><trkpt lat="47.85371147005775" lon="-1.689383538172164"><ele>66.5</ele><time>2026-04-23T16:30:27.001Z</time></trkpt><trkpt lat="47.85357812638967" lon="-1.6894261502272405"><ele>67.0</ele><time>2026-04-23T16:30:28.001Z</time></trkpt><trkpt lat="47.85344698566031" lon="-1.689426757861723"><ele>67.5</ele><time>2026-04-23T16:30:29.001Z</time></trkpt><trkpt lat="47.853316702281724" lon="-1.6894336237051657"><ele>68.0</ele><time>2026-04-23T16:30:30.001Z</time></trkpt><trkpt lat="47.85318246599987" lon="-1.6894486215048963"><ele>68.25</ele><time>2026-04-23T16:30:31.001Z</time></trkpt><trkpt lat="47.853044512771476" lon="-1.6894684167173804"><ele>68.5</ele><time>2026-04-23T16:30:32.001Z</time></trkpt><trkpt lat="47.852913243555626" lon="-1.689459919119619"><ele>68.75</ele><time>2026-04-23T16:30:33.001Z</time></trkpt><trkpt lat="47.85281085412166" lon="-1.689433047719539"><ele>69.0</ele><time>2026-04-23T16:30:34.001Z</time></trkpt><trkpt lat="47.852731811608336" lon="-1.6893955042412603"><ele>69.0</ele><time>2026-04-23T16:30:35.001Z</time></trkpt><trkpt lat="47.852668499640295" lon="-1.6893766560367982"><ele>69.0</ele><time>2026-04-23T16:30:36.001Z</time></trkpt><trkpt lat="47.85254489039351" lon="-1.6894028472477867"><ele>69.0</ele><time>2026-04-23T16:30:38.001Z</time></trkpt><trkpt lat="47.85244928359142" lon="-1.6894427396067058"><ele>69.0</ele><time>2026-04-23T16:30:39.001Z</time></trkpt><trkpt lat="47.85235669318756" lon="-1.6895244052052507"><ele>69.0</ele><time>2026-04-23T16:30:40.001Z</time></trkpt><trkpt lat="47.85227625614976" lon="-1.6896669033996679"><ele>70.5</ele><time>2026-04-23T16:30:41.001Z</time></trkpt><trkpt lat="47.852251577695654" lon="-1.6898495705622867"><ele>72.0</ele><time>2026-04-23T16:30:42.001Z</time></trkpt><trkpt lat="47.85221608389399" lon="-1.6900505884854422"><ele>73.5</ele><time>2026-04-23T16:30:43.001Z</time></trkpt><trkpt lat="47.85218475545" lon="-1.6902760033570488"><ele>75.0</ele><time>2026-04-23T16:30:44.001Z</time></trkpt><trkpt lat="47.85214464260652" lon="-1.6904797214680523"><ele>75.0</ele><time>2026-04-23T16:30:45.002Z</time></trkpt><trkpt lat="47.852115582194365" lon="-1.6906755988958357"><ele>75.0</ele><time>2026-04-23T16:30:46.002Z</time></trkpt><trkpt lat="47.85207448959336" lon="-1.690902502612706"><ele>75.0</ele><time>2026-04-23T16:30:47.002Z</time></trkpt><trkpt lat="47.85202600770333" lon="-1.6911272258407595"><ele>74.25</ele><time>2026-04-23T16:30:48.002Z</time></trkpt><trkpt lat="47.85197359168086" lon="-1.6913446053016157"><ele>73.5</ele><time>2026-04-23T16:30:49.002Z</time></trkpt><trkpt lat="47.85192817617029" lon="-1.691531135767702"><ele>72.75</ele><time>2026-04-23T16:30:50.002Z</time></trkpt><trkpt lat="47.851865915411025" lon="-1.691682200004458"><ele>72.0</ele><time>2026-04-23T16:30:51.002Z</time></trkpt><trkpt lat="47.851802642492345" lon="-1.691837307240781"><ele>73.8</ele><time>2026-04-23T16:30:52.002Z</time></trkpt><trkpt lat="47.8517535050303" lon="-1.6919987785498947"><ele>75.6</ele><time>2026-04-23T16:30:53.002Z</time></trkpt><trkpt lat="47.85170095265087" lon="-1.692125967324629"><ele>77.39999999999999</ele><time>2026-04-23T16:30:54.002Z</time></trkpt><trkpt lat="47.85164654518954" lon="-1.6922228747625743"><ele>79.2</ele><time>2026-04-23T16:30:55.002Z</time></trkpt><trkpt lat="47.85160102147518" lon="-1.6922945984330757"><ele>81.0</ele><time>2026-04-23T16:30:56.002Z</time></trkpt><trkpt lat="47.85152161219623" lon="-1.692381496368036"><ele>81.0</ele><time>2026-04-23T16:30:58.002Z</time></trkpt><trkpt lat="47.85145093796023" lon="-1.6924311349756929"><ele>81.0</ele><time>2026-04-23T16:31:00.002Z</time></trkpt><trkpt lat="47.851392725200256" lon="-1.6924821109020098"><ele>81.0</ele><time>2026-04-23T16:31:04.002Z</time></trkpt><trkpt lat="47.85132346849545" lon="-1.6925609902803427"><ele>81.0</ele><time>2026-04-23T16:31:08.002Z</time></trkpt><trkpt lat="47.85127084842553" lon="-1.6926190573343862"><ele>81.0</ele><time>2026-04-23T16:31:11.002Z</time></trkpt><trkpt lat="47.851222207230585" lon="-1.6926898579293195"><ele>81.0</ele><time>2026-04-23T16:31:15.002Z</time></trkpt><trkpt lat="47.85116688459018" lon="-1.6928239386103423"><ele>80.8</ele><time>2026-04-23T16:31:19.002Z</time></trkpt><trkpt lat="47.851168664575894" lon="-1.69297936894439"><ele>80.6</ele><time>2026-04-23T16:31:20.002Z</time></trkpt><trkpt lat="47.85113324557488" lon="-1.6931174471153354"><ele>80.4</ele><time>2026-04-23T16:31:21.002Z</time></trkpt><trkpt lat="47.851080537136376" lon="-1.6932572382403723"><ele>80.2</ele><time>2026-04-23T16:31:22.002Z</time></trkpt><trkpt lat="47.850986012932594" lon="-1.69336944155987"><ele>80.0</ele><time>2026-04-23T16:31:23.002Z</time></trkpt><trkpt lat="47.85088829620889" lon="-1.6934195093725122"><ele>80.4</ele><time>2026-04-23T16:31:24.002Z</time></trkpt><trkpt lat="47.850782129143894" lon="-1.6934340565745594"><ele>80.8</ele><time>2026-04-23T16:31:25.002Z</time></trkpt><trkpt lat="47.85066895593668" lon="-1.693413790093365"><ele>81.19999999999999</ele><time>2026-04-23T16:31:26.002Z</time></trkpt><trkpt lat="47.85056835535714" lon="-1.6933562409646097"><ele>81.6</ele><time>2026-04-23T16:31:27.002Z</time></trkpt><trkpt lat="47.85047699220425" lon="-1.6932608723818987"><ele>82.0</ele><time>2026-04-23T16:31:28.002Z</time></trkpt><trkpt lat="47.85039706882698" lon="-1.6931308703151158"><ele>82.0</ele><time>2026-04-23T16:31:29.002Z</time></trkpt><trkpt lat="47.85037822941344" lon="-1.6929516646730665"><ele>82.0</ele><time>2026-04-23T16:31:30.002Z</time></trkpt><trkpt lat="47.85030458156279" lon="-1.6927979914703575"><ele>82.0</ele><time>2026-04-23T16:31:31.002Z</time></trkpt><trkpt lat="47.85022313326297" lon="-1.6927015286499119"><ele>82.0</ele><time>2026-04-23T16:31:32.002Z</time></trkpt><trkpt lat="47.85011496171163" lon="-1.6926490612611085"><ele>82.75</ele><time>2026-04-23T16:31:33.002Z</time></trkpt><trkpt lat="47.849987578609905" lon="-1.692665694623311"><ele>83.5</ele><time>2026-04-23T16:31:34.002Z</time></trkpt><trkpt lat="47.84986149832065" lon="-1.6927391424908365"><ele>84.25</ele><time>2026-04-23T16:31:35.001Z</time></trkpt><trkpt lat="47.84974216014349" lon="-1.6928789791222911"><ele>85.0</ele><time>2026-04-23T16:31:36.001Z</time></trkpt><trkpt lat="47.84965302642079" lon="-1.693086856540518"><ele>85.0</ele><time>2026-04-23T16:31:37.001Z</time></trkpt><trkpt lat="47.849559952035605" lon="-1.6932269498012011"><ele>85.0</ele><time>2026-04-23T16:31:38.001Z</time></trkpt><trkpt lat="47.84945994172009" lon="-1.6933103220472274"><ele>85.0</ele><time>2026-04-23T16:31:39.001Z</time></trkpt><trkpt lat="47.849367398940025" lon="-1.6933834541329518"><ele>85.0</ele><time>2026-04-23T16:31:40.001Z</time></trkpt><trkpt lat="47.84930079437914" lon="-1.6934399913987006"><ele>85.0</ele><time>2026-04-23T16:31:41.001Z</time></trkpt><trkpt lat="47.84920678048289" lon="-1.6934580571128588"><ele>86.33333333333333</ele><time>2026-04-23T16:31:43.001Z</time></trkpt><trkpt lat="47.84916552368131" lon="-1.6931487998018089"><ele>87.66666666666667</ele><time>2026-04-23T16:31:44.001Z</time></trkpt><trkpt lat="47.84918505352937" lon="-1.6929770880181445"><ele>89.0</ele><time>2026-04-23T16:31:45.001Z</time></trkpt><trkpt lat="47.84923840484767" lon="-1.6927970688536231"><ele>88.33333333333334</ele><time>2026-04-23T16:31:46.001Z</time></trkpt><trkpt lat="47.849313014876984" lon="-1.6925903186178808"><ele>87.66666666666667</ele><time>2026-04-23T16:31:47.001Z</time></trkpt><trkpt lat="47.84936431296748" lon="-1.6923579237602464"><ele>87.0</ele><time>2026-04-23T16:31:48.001Z</time></trkpt><trkpt lat="47.849410561301326" lon="-1.6921573336442206"><ele>87.0</ele><time>2026-04-23T16:31:49.001Z</time></trkpt><trkpt lat="47.849457004409935" lon="-1.691942715821276"><ele>87.0</ele><time>2026-04-23T16:31:50.001Z</time></trkpt><trkpt lat="47.84950411317654" lon="-1.6917115725229621"><ele>87.0</ele><time>2026-04-23T16:31:51.001Z</time></trkpt><trkpt lat="47.849547012468086" lon="-1.691464653865594"><ele>87.0</ele><time>2026-04-23T16:31:52.001Z</time></trkpt><trkpt lat="47.849588088578436" lon="-1.6912206442853988"><ele>87.0</ele><time>2026-04-23T16:31:53.001Z</time></trkpt><trkpt lat="47.849622858880245" lon="-1.6910058383274063"><ele>87.0</ele><time>2026-04-23T16:31:54.001Z</time></trkpt><trkpt lat="47.8496405911383" lon="-1.6907816315774877"><ele>86.33333333333333</ele><time>2026-04-23T16:31:55.001Z</time></trkpt><trkpt lat="47.84963031281562" lon="-1.6905489312936703"><ele>85.66666666666666</ele><time>2026-04-23T16:31:56.001Z</time></trkpt><trkpt lat="47.84962790965158" lon="-1.6903054142814358"><ele>85.0</ele><time>2026-04-23T16:31:57.001Z</time></trkpt><trkpt lat="47.849610765565515" lon="-1.6900617386499903"><ele>84.66666666666666</ele><time>2026-04-23T16:31:58.001Z</time></trkpt><trkpt lat="47.8495839080813" lon="-1.6898223518442883"><ele>84.33333333333333</ele><time>2026-04-23T16:31:59Z</time></trkpt><trkpt lat="47.849562551996414" lon="-1.6895808005402395"><ele>84.0</ele><time>2026-04-23T16:32:00Z</time></trkpt><trkpt lat="47.8495198707401" lon="-1.6893728557938323"><ele>84.0</ele><time>2026-04-23T16:32:01Z</time></trkpt><trkpt lat="47.84948161703793" lon="-1.689179162103278"><ele>84.0</ele><time>2026-04-23T16:32:02Z</time></trkpt><trkpt lat="47.849432064312246" lon="-1.6889976730659857"><ele>84.0</ele><time>2026-04-23T16:32:03Z</time></trkpt><trkpt lat="47.84937156310262" lon="-1.6888075795676192"><ele>84.0</ele><time>2026-04-23T16:32:04Z</time></trkpt><trkpt lat="47.84931917388534" lon="-1.6886251242314034"><ele>85.4</ele><time>2026-04-23T16:32:05Z</time></trkpt><trkpt lat="47.849263553303835" lon="-1.6884960658871273"><ele>86.80000000000001</ele><time>2026-04-23T16:32:06Z</time></trkpt><trkpt lat="47.849239447650156" lon="-1.6883965769603095"><ele>88.19999999999999</ele><time>2026-04-23T16:32:07Z</time></trkpt><trkpt lat="47.849202810929306" lon="-1.6883087067742966"><ele>89.6</ele><time>2026-04-23T16:32:08Z</time></trkpt><trkpt lat="47.84913883073318" lon="-1.6881227955361804"><ele>91.0</ele><time>2026-04-23T16:32:10Z</time></trkpt><trkpt lat="47.84909727170981" lon="-1.6880053956530454"><ele>91.0</ele><time>2026-04-23T16:32:11Z</time></trkpt><trkpt lat="47.84907373722658" lon="-1.6878527113404171"><ele>91.0</ele><time>2026-04-23T16:32:12Z</time></trkpt><trkpt lat="47.84902351426064" lon="-1.6877098519248772"><ele>91.0</ele><time>2026-04-23T16:32:13Z</time></trkpt><trkpt lat="47.848976789807075" lon="-1.687555173959001"><ele>91.0</ele><time>2026-04-23T16:32:14Z</time></trkpt><trkpt lat="47.848925177695115" lon="-1.6873866943961024"><ele>91.5</ele><time>2026-04-23T16:32:15Z</time></trkpt><trkpt lat="47.84887198858589" lon="-1.687222833724857"><ele>92.0</ele><time>2026-04-23T16:32:16Z</time></trkpt><trkpt lat="47.84882459449372" lon="-1.687054228116436"><ele>92.5</ele><time>2026-04-23T16:32:17Z</time></trkpt><trkpt lat="47.84875583312527" lon="-1.6868882247910872"><ele>93.0</ele><time>2026-04-23T16:32:18Z</time></trkpt><trkpt lat="47.84867220620485" lon="-1.6867256021994161"><ele>93.0</ele><time>2026-04-23T16:32:19Z</time></trkpt><trkpt lat="47.84857221236305" lon="-1.6865985115470772"><ele>93.0</ele><time>2026-04-23T16:32:20Z</time></trkpt><trkpt lat="47.84847680097579" lon="-1.686501726967644"><ele>93.0</ele><time>2026-04-23T16:32:21Z</time></trkpt><trkpt lat="47.84840551376077" lon="-1.6864352156973481"><ele>93.0</ele><time>2026-04-23T16:32:22Z</time></trkpt><trkpt lat="47.84834626614361" lon="-1.6863762823476067"><ele>93.0</ele><time>2026-04-23T16:32:23Z</time></trkpt><trkpt lat="47.84828488489745" lon="-1.6863348836072904"><ele>93.60000000000001</ele><time>2026-04-23T16:32:24Z</time></trkpt><trkpt lat="47.84822134695494" lon="-1.6863119776475808"><ele>94.2</ele><time>2026-04-23T16:32:25Z</time></trkpt><trkpt lat="47.84814193891297" lon="-1.6862704303867573"><ele>94.8</ele><time>2026-04-23T16:32:26Z</time></trkpt><trkpt lat="47.84804557526127" lon="-1.6862298277816008"><ele>95.4</ele><time>2026-04-23T16:32:27Z</time></trkpt><trkpt lat="47.847934220467735" lon="-1.686192323891605"><ele>96.0</ele><time>2026-04-23T16:32:28Z</time></trkpt><trkpt lat="47.84780914382261" lon="-1.6861461819138457"><ele>96.0</ele><time>2026-04-23T16:32:29Z</time></trkpt><trkpt lat="47.84769101185116" lon="-1.6861033831427792"><ele>96.0</ele><time>2026-04-23T16:32:30Z</time></trkpt><trkpt lat="47.847567633611966" lon="-1.6860507296649387"><ele>96.0</ele><time>2026-04-23T16:32:31Z</time></trkpt><trkpt lat="47.847430495686325" lon="-1.686000612598082"><ele>96.0</ele><time>2026-04-23T16:32:32Z</time></trkpt><trkpt lat="47.847289883785244" lon="-1.6859537652040861"><ele>96.4</ele><time>2026-04-23T16:32:33Z</time></trkpt><trkpt lat="47.847173069182645" lon="-1.6859086659823515"><ele>96.8</ele><time>2026-04-23T16:32:34Z</time></trkpt><trkpt lat="47.84708004059839" lon="-1.6858814092587782"><ele>97.2</ele><time>2026-04-23T16:32:35Z</time></trkpt><trkpt lat="47.84700126388365" lon="-1.6858414178246135"><ele>97.60000000000001</ele><time>2026-04-23T16:32:36Z</time></trkpt><trkpt lat="47.84690016984663" lon="-1.6859098868055213"><ele>98.0</ele><time>2026-04-23T16:32:40Z</time></trkpt><trkpt lat="47.84686409061444" lon="-1.6859930365471143"><ele>98.2</ele><time>2026-04-23T16:32:41Z</time></trkpt><trkpt lat="47.84680969108953" lon="-1.686144687339831"><ele>98.4</ele><time>2026-04-23T16:32:43Z</time></trkpt><trkpt lat="47.846769401764746" lon="-1.686241846761617"><ele>98.60000000000001</ele><time>2026-04-23T16:32:44Z</time></trkpt><trkpt lat="47.84671282118438" lon="-1.6863551773559882"><ele>98.80000000000001</ele><time>2026-04-23T16:32:45Z</time></trkpt><trkpt lat="47.846637652404446" lon="-1.6864820197823598"><ele>99.0</ele><time>2026-04-23T16:32:46Z</time></trkpt><trkpt lat="47.846554095313394" lon="-1.6866010069875004"><ele>100.0</ele><time>2026-04-23T16:32:47Z</time></trkpt><trkpt lat="47.846476036504555" lon="-1.6866985955585954"><ele>101.0</ele><time>2026-04-23T16:32:48Z</time></trkpt><trkpt lat="47.84638460466317" lon="-1.686798449264106"><ele>102.0</ele><time>2026-04-23T16:32:49Z</time></trkpt><trkpt lat="47.84628242062073" lon="-1.6868946881227893"><ele>103.0</ele><time>2026-04-23T16:32:50Z</time></trkpt><trkpt lat="47.84616575623111" lon="-1.686986362926659"><ele>103.0</ele><time>2026-04-23T16:32:51Z</time></trkpt><trkpt lat="47.846046689318456" lon="-1.6870795075913698"><ele>103.0</ele><time>2026-04-23T16:32:52Z</time></trkpt><trkpt lat="47.84592408528672" lon="-1.6871750017447724"><ele>103.0</ele><time>2026-04-23T16:32:53Z</time></trkpt><trkpt lat="47.84580580576322" lon="-1.687266933720448"><ele>103.0</ele><time>2026-04-23T16:32:54Z</time></trkpt><trkpt lat="47.845683284481176" lon="-1.6873621626371962"><ele>103.5</ele><time>2026-04-23T16:32:55Z</time></trkpt><trkpt lat="47.84555945585893" lon="-1.6874586483308625"><ele>104.0</ele><time>2026-04-23T16:32:56Z</time></trkpt><trkpt lat="47.84544356945033" lon="-1.6875491025168348"><ele>104.5</ele><time>2026-04-23T16:32:57Z</time></trkpt><trkpt lat="47.84533355412629" lon="-1.6876349707263116"><ele>105.0</ele><time>2026-04-23T16:32:58Z</time></trkpt><trkpt lat="47.845214792617384" lon="-1.6877284330232776"><ele>105.4</ele><time>2026-04-23T16:32:59Z</time></trkpt><trkpt lat="47.845097797057534" lon="-1.6878216210532644"><ele>105.8</ele><time>2026-04-23T16:33:00Z</time></trkpt><trkpt lat="47.844990705909275" lon="-1.6878932486859581"><ele>106.19999999999999</ele><time>2026-04-23T16:33:01Z</time></trkpt><trkpt lat="47.84490733718157" lon="-1.6879580904058387"><ele>106.6</ele><time>2026-04-23T16:33:02Z</time></trkpt><trkpt lat="47.84482353726595" lon="-1.6880166958470397"><ele>107.0</ele><time>2026-04-23T16:33:03Z</time></trkpt><trkpt lat="47.844742314741566" lon="-1.6880873180932223"><ele>107.0</ele><time>2026-04-23T16:33:04Z</time></trkpt><trkpt lat="47.844644984011204" lon="-1.6881698118303747"><ele>107.0</ele><time>2026-04-23T16:33:05Z</time></trkpt><trkpt lat="47.84453548913722" lon="-1.688252470430693"><ele>107.0</ele><time>2026-04-23T16:33:06Z</time></trkpt><trkpt lat="47.84442751608297" lon="-1.688341510706531"><ele>107.0</ele><time>2026-04-23T16:33:07Z</time></trkpt><trkpt lat="47.84431032806417" lon="-1.68842535144452"><ele>107.25</ele><time>2026-04-23T16:33:08Z</time></trkpt><trkpt lat="47.84419450967057" lon="-1.6885253617566167"><ele>107.5</ele><time>2026-04-23T16:33:09Z</time></trkpt><trkpt lat="47.84408534550248" lon="-1.6886175595682782"><ele>107.75</ele><time>2026-04-23T16:33:10Z</time></trkpt><trkpt lat="47.843993591425814" lon="-1.6886879526423968"><ele>108.0</ele><time>2026-04-23T16:33:11Z</time></trkpt><trkpt lat="47.843893424296645" lon="-1.6887650935388752"><ele>108.0</ele><time>2026-04-23T16:33:12Z</time></trkpt><trkpt lat="47.843749096253845" lon="-1.6888226479661648"><ele>108.0</ele><time>2026-04-23T16:33:13Z</time></trkpt><trkpt lat="47.843641434091545" lon="-1.688850929417954"><ele>108.0</ele><time>2026-04-23T16:33:14Z</time></trkpt><trkpt lat="47.843541883948376" lon="-1.6888872653798754"><ele>108.0</ele><time>2026-04-23T16:33:16Z</time></trkpt><trkpt lat="47.843480150728254" lon="-1.6890106687758335"><ele>108.0</ele><time>2026-04-23T16:33:18Z</time></trkpt><trkpt lat="47.8433668438386" lon="-1.689037208885035"><ele>108.0</ele><time>2026-04-23T16:33:20Z</time></trkpt><trkpt lat="47.84328466066603" lon="-1.6888758179729086"><ele>108.0</ele><time>2026-04-23T16:33:22.001Z</time></trkpt><trkpt lat="47.84329563137284" lon="-1.688753654745698"><ele>108.0</ele><time>2026-04-23T16:33:23.001Z</time></trkpt><trkpt lat="47.84332301838742" lon="-1.6885360241611738"><ele>108.0</ele><time>2026-04-23T16:33:24.001Z</time></trkpt><trkpt lat="47.843282633982724" lon="-1.6883175141824536"><ele>108.0</ele><time>2026-04-23T16:33:25.001Z</time></trkpt><trkpt lat="47.84324188919802" lon="-1.6881417015337363"><ele>108.0</ele><time>2026-04-23T16:33:26.001Z</time></trkpt><trkpt lat="47.843225748681206" lon="-1.687940919876115"><ele>108.0</ele><time>2026-04-23T16:33:27.001Z</time></trkpt><trkpt lat="47.843210072310015" lon="-1.6877170425459236"><ele>108.33333333333334</ele><time>2026-04-23T16:33:28.001Z</time></trkpt><trkpt lat="47.8431929261137" lon="-1.687487519815011"><ele>108.66666666666667</ele><time>2026-04-23T16:33:29.001Z</time></trkpt><trkpt lat="47.84317348655818" lon="-1.6872441364698882"><ele>109.0</ele><time>2026-04-23T16:33:30.001Z</time></trkpt><trkpt lat="47.843151142978044" lon="-1.6870272142557492"><ele>108.6</ele><time>2026-04-23T16:33:31.001Z</time></trkpt><trkpt lat="47.84313986231301" lon="-1.6868313229106233"><ele>108.2</ele><time>2026-04-23T16:33:32.001Z</time></trkpt><trkpt lat="47.84312944162366" lon="-1.6866665155961174"><ele>107.79999999999998</ele><time>2026-04-23T16:33:33.001Z</time></trkpt><trkpt lat="47.84312621020762" lon="-1.6865118226564584"><ele>107.39999999999999</ele><time>2026-04-23T16:33:34.001Z</time></trkpt><trkpt lat="47.84311441313097" lon="-1.686393160356125"><ele>107.0</ele><time>2026-04-23T16:33:35.001Z</time></trkpt><trkpt lat="47.84309455730673" lon="-1.6862990823190418"><ele>107.0</ele><time>2026-04-23T16:33:36.001Z</time></trkpt><trkpt lat="47.843081365427395" lon="-1.6861532654976106"><ele>107.0</ele><time>2026-04-23T16:33:37.001Z</time></trkpt><trkpt lat="47.84307750705924" lon="-1.6859828839182582"><ele>107.0</ele><time>2026-04-23T16:33:38.001Z</time></trkpt><trkpt lat="47.8430516907476" lon="-1.6857778462887305"><ele>107.0</ele><time>2026-04-23T16:33:39.001Z</time></trkpt><trkpt lat="47.84303639183837" lon="-1.6856067341525778"><ele>106.99999999999999</ele><time>2026-04-23T16:33:40.001Z</time></trkpt><trkpt lat="47.8430193207359" lon="-1.6854704201528437"><ele>107.0</ele><time>2026-04-23T16:33:41.001Z</time></trkpt><trkpt lat="47.84299279940081" lon="-1.6853379002705289"><ele>107.0</ele><time>2026-04-23T16:33:42.001Z</time></trkpt><trkpt lat="47.84296419440464" lon="-1.6852133613478157"><ele>107.0</ele><time>2026-04-23T16:33:43.001Z</time></trkpt><trkpt lat="47.842934245408166" lon="-1.6850989225974684"><ele>106.99999999999999</ele><time>2026-04-23T16:33:44.001Z</time></trkpt><trkpt lat="47.84289882546699" lon="-1.6849758945773"><ele>107.0</ele><time>2026-04-23T16:33:45.001Z</time></trkpt><trkpt lat="47.84286186008152" lon="-1.6848171414406665"><ele>106.8</ele><time>2026-04-23T16:33:46.001Z</time></trkpt><trkpt lat="47.842841221905054" lon="-1.684638513412313"><ele>106.6</ele><time>2026-04-23T16:33:47.001Z</time></trkpt><trkpt lat="47.84279675095684" lon="-1.6845150515050267"><ele>106.39999999999999</ele><time>2026-04-23T16:33:48.001Z</time></trkpt><trkpt lat="47.842761666613114" lon="-1.6843626834071426"><ele>106.19999999999999</ele><time>2026-04-23T16:33:50.001Z</time></trkpt><trkpt lat="47.84272041883659" lon="-1.6841941300075223"><ele>106.0</ele><time>2026-04-23T16:34:01.001Z</time></trkpt><trkpt lat="47.84269821630545" lon="-1.6841040926762458"><ele>106.0</ele><time>2026-04-23T16:34:02.001Z</time></trkpt><trkpt lat="47.842693075208565" lon="-1.6840023434138953"><ele>106.0</ele><time>2026-04-23T16:34:03.001Z</time></trkpt><trkpt lat="47.84274518754638" lon="-1.6838311774222903"><ele>106.0</ele><time>2026-04-23T16:34:04Z</time></trkpt><trkpt lat="47.84278002242202" lon="-1.6836414068286507"><ele>106.0</ele><time>2026-04-23T16:34:05Z</time></trkpt><trkpt lat="47.842824783307385" lon="-1.6834993725546286"><ele>106.0</ele><time>2026-04-23T16:34:06Z</time></trkpt><trkpt lat="47.842844798723355" lon="-1.6833444778674893"><ele>106.0</ele><time>2026-04-23T16:34:07Z</time></trkpt><trkpt lat="47.84288782450616" lon="-1.6831875993629155"><ele>106.0</ele><time>2026-04-23T16:34:08Z</time></trkpt><trkpt lat="47.842923351913775" lon="-1.6830026519627719"><ele>106.0</ele><time>2026-04-23T16:34:09Z</time></trkpt><trkpt lat="47.842954499833226" lon="-1.6828205837288668"><ele>106.0</ele><time>2026-04-23T16:34:10Z</time></trkpt><trkpt lat="47.84298372648897" lon="-1.682672048213407"><ele>106.0</ele><time>2026-04-23T16:34:11Z</time></trkpt><trkpt lat="47.8430120469694" lon="-1.682516335598613"><ele>106.0</ele><time>2026-04-23T16:34:12Z</time></trkpt><trkpt lat="47.843031613199294" lon="-1.6823217761157543"><ele>106.0</ele><time>2026-04-23T16:34:13Z</time></trkpt><trkpt lat="47.84303875123197" lon="-1.68212360644674"><ele>106.0</ele><time>2026-04-23T16:34:14Z</time></trkpt><trkpt lat="47.8430453604397" lon="-1.6819478685888547"><ele>106.0</ele><time>2026-04-23T16:34:15Z</time></trkpt><trkpt lat="47.843050380974994" lon="-1.681795793442373"><ele>106.0</ele><time>2026-04-23T16:34:16Z</time></trkpt><trkpt lat="47.843046086553066" lon="-1.6816502048156237"><ele>106.0</ele><time>2026-04-23T16:34:17Z</time></trkpt><trkpt lat="47.84304367646941" lon="-1.6815337550462837"><ele>106.0</ele><time>2026-04-23T16:34:18Z</time></trkpt><trkpt lat="47.843047427753646" lon="-1.681420490562428"><ele>106.0</ele><time>2026-04-23T16:34:19Z</time></trkpt><trkpt lat="47.843031461176544" lon="-1.6812632683621143"><ele>106.0</ele><time>2026-04-23T16:34:21Z</time></trkpt><trkpt lat="47.84301796311223" lon="-1.681144918640499"><ele>106.0</ele><time>2026-04-23T16:34:24Z</time></trkpt><trkpt lat="47.84284312058063" lon="-1.6811597048356994"><ele>106.0</ele><time>2026-04-23T16:34:25Z</time></trkpt><trkpt lat="47.84276877669217" lon="-1.6811163444509978"><ele>106.0</ele><time>2026-04-23T16:34:26Z</time></trkpt><trkpt lat="47.842702686320386" lon="-1.681076250011707"><ele>106.0</ele><time>2026-04-23T16:34:27Z</time></trkpt><trkpt lat="47.84262749117501" lon="-1.6810316046577143"><ele>106.0</ele><time>2026-04-23T16:34:28Z</time></trkpt><trkpt lat="47.842545099541624" lon="-1.680993539378658"><ele>106.0</ele><time>2026-04-23T16:34:29Z</time></trkpt><trkpt lat="47.84247556887898" lon="-1.6809636132573695"><ele>106.0</ele><time>2026-04-23T16:34:30Z</time></trkpt><trkpt lat="47.84237674869056" lon="-1.6809365647603358"><ele>106.0</ele><time>2026-04-23T16:34:32Z</time></trkpt><trkpt lat="47.84226865698925" lon="-1.6809374822094723"><ele>106.0</ele><time>2026-04-23T16:34:34Z</time></trkpt><trkpt lat="47.842178517774904" lon="-1.6809300026442484"><ele>106.00000000000001</ele><time>2026-04-23T16:34:36Z</time></trkpt><trkpt lat="47.84210949232818" lon="-1.6809318320315887"><ele>106.0</ele><time>2026-04-23T16:34:38Z</time></trkpt><trkpt lat="47.84203493359407" lon="-1.680945941075728"><ele>106.0</ele><time>2026-04-23T16:34:40Z</time></trkpt><trkpt lat="47.841959527529944" lon="-1.6809641806258593"><ele>106.0</ele><time>2026-04-23T16:34:42Z</time></trkpt><trkpt lat="47.84188373702886" lon="-1.68098565439926"><ele>106.00000000000001</ele><time>2026-04-23T16:34:44Z</time></trkpt><trkpt lat="47.84179904645085" lon="-1.680988856480735"><ele>106.0</ele><time>2026-04-23T16:34:46Z</time></trkpt><trkpt lat="47.84171077420003" lon="-1.6810209080293874"><ele>105.16666666666667</ele><time>2026-04-23T16:34:48Z</time></trkpt><trkpt lat="47.84164680956447" lon="-1.681040385789126"><ele>104.33333333333334</ele><time>2026-04-23T16:34:49Z</time></trkpt><trkpt lat="47.841572645584286" lon="-1.6810471926470387"><ele>103.5</ele><time>2026-04-23T16:34:50Z</time></trkpt><trkpt lat="47.84150009865121" lon="-1.6810483560237106"><ele>102.66666666666666</ele><time>2026-04-23T16:34:51Z</time></trkpt><trkpt lat="47.84141915557811" lon="-1.6810583568492032"><ele>101.83333333333333</ele><time>2026-04-23T16:34:52Z</time></trkpt><trkpt lat="47.84132655064553" lon="-1.6811042945124945"><ele>101.0</ele><time>2026-04-23T16:34:53Z</time></trkpt><trkpt lat="47.84122658331525" lon="-1.6811080623436094"><ele>101.0</ele><time>2026-04-23T16:34:54Z</time></trkpt><trkpt lat="47.84112935868407" lon="-1.6811369740035647"><ele>101.0</ele><time>2026-04-23T16:34:55Z</time></trkpt><trkpt lat="47.841053360517876" lon="-1.6811674259979972"><ele>101.0</ele><time>2026-04-23T16:34:56Z</time></trkpt><trkpt lat="47.840982103844944" lon="-1.6812198685012683"><ele>101.0</ele><time>2026-04-23T16:34:57Z</time></trkpt><trkpt lat="47.84091901021603" lon="-1.6812603766210588"><ele>101.0</ele><time>2026-04-23T16:34:58Z</time></trkpt><trkpt lat="47.84073211999941" lon="-1.6812847766193513"><ele>100.0</ele><time>2026-04-23T16:35:00Z</time></trkpt><trkpt lat="47.84058961089756" lon="-1.6812919601870133"><ele>99.0</ele><time>2026-04-23T16:35:01Z</time></trkpt><trkpt lat="47.840405927976924" lon="-1.6813306567002153"><ele>98.0</ele><time>2026-04-23T16:35:02Z</time></trkpt><trkpt lat="47.84023573530836" lon="-1.6813660042208274"><ele>97.66666666666666</ele><time>2026-04-23T16:35:03Z</time></trkpt><trkpt lat="47.84008627277197" lon="-1.6813969443181251"><ele>97.33333333333334</ele><time>2026-04-23T16:35:04Z</time></trkpt><trkpt lat="47.83992840906455" lon="-1.6814306080434154"><ele>97.0</ele><time>2026-04-23T16:35:05Z</time></trkpt><trkpt lat="47.8397845182943" lon="-1.6814606048469711"><ele>97.0</ele><time>2026-04-23T16:35:06Z</time></trkpt><trkpt lat="47.839656831158315" lon="-1.6815101129228545"><ele>97.0</ele><time>2026-04-23T16:35:07Z</time></trkpt><trkpt lat="47.83952556473575" lon="-1.6815252364799325"><ele>97.0</ele><time>2026-04-23T16:35:08Z</time></trkpt><trkpt lat="47.83938622691975" lon="-1.6815340471657028"><ele>97.0</ele><time>2026-04-23T16:35:09Z</time></trkpt><trkpt lat="47.83926145706024" lon="-1.6815582130838453"><ele>95.75</ele><time>2026-04-23T16:35:10Z</time></trkpt><trkpt lat="47.839131301264615" lon="-1.6815979946270205"><ele>94.5</ele><time>2026-04-23T16:35:11Z</time></trkpt><trkpt lat="47.838994134968736" lon="-1.6816375970920858"><ele>93.25</ele><time>2026-04-23T16:35:12Z</time></trkpt><trkpt lat="47.838861218008105" lon="-1.681673119208944"><ele>92.0</ele><time>2026-04-23T16:35:13Z</time></trkpt><trkpt lat="47.83872716666277" lon="-1.6817162898192852"><ele>92.0</ele><time>2026-04-23T16:35:14Z</time></trkpt><trkpt lat="47.83859279281148" lon="-1.6817706678280182"><ele>92.0</ele><time>2026-04-23T16:35:15Z</time></trkpt><trkpt lat="47.83848419663946" lon="-1.6818157187052798"><ele>92.0</ele><time>2026-04-23T16:35:16Z</time></trkpt><trkpt lat="47.838373951374045" lon="-1.6818605183020368"><ele>92.0</ele><time>2026-04-23T16:35:17Z</time></trkpt><trkpt lat="47.83827639553788" lon="-1.6819068397047037"><ele>92.0</ele><time>2026-04-23T16:35:18Z</time></trkpt><trkpt lat="47.838191564761" lon="-1.6819542085226127"><ele>92.0</ele><time>2026-04-23T16:35:19Z</time></trkpt><trkpt lat="47.83810677160336" lon="-1.6819972503891003"><ele>92.0</ele><time>2026-04-23T16:35:20Z</time></trkpt><trkpt lat="47.83802136099417" lon="-1.6820755441172774"><ele>92.0</ele><time>2026-04-23T16:35:21Z</time></trkpt><trkpt lat="47.83790587855417" lon="-1.6821755664720446"><ele>92.0</ele><time>2026-04-23T16:35:22Z</time></trkpt><trkpt lat="47.8377938707411" lon="-1.6823187033350904"><ele>92.0</ele><time>2026-04-23T16:35:23Z</time></trkpt><trkpt lat="47.837686255864064" lon="-1.6824376213475352"><ele>92.0</ele><time>2026-04-23T16:35:24Z</time></trkpt><trkpt lat="47.83757126001387" lon="-1.682563893544714"><ele>92.0</ele><time>2026-04-23T16:35:25Z</time></trkpt><trkpt lat="47.83745459289437" lon="-1.6826977089528268"><ele>92.0</ele><time>2026-04-23T16:35:26Z</time></trkpt><trkpt lat="47.837340511978304" lon="-1.6828291184239297"><ele>89.75</ele><time>2026-04-23T16:35:27Z</time></trkpt><trkpt lat="47.837218595463675" lon="-1.6829698673696363"><ele>87.5</ele><time>2026-04-23T16:35:28Z</time></trkpt><trkpt lat="47.837099260575776" lon="-1.683105745483569"><ele>85.25</ele><time>2026-04-23T16:35:29Z</time></trkpt><trkpt lat="47.8369906726059" lon="-1.683235230088037"><ele>83.0</ele><time>2026-04-23T16:35:30Z</time></trkpt><trkpt lat="47.83688764496918" lon="-1.683355244717643"><ele>81.75</ele><time>2026-04-23T16:35:31Z</time></trkpt><trkpt lat="47.83679598963552" lon="-1.6834674445407551"><ele>80.5</ele><time>2026-04-23T16:35:32Z</time></trkpt><trkpt lat="47.836707757139884" lon="-1.6835653594759175"><ele>79.25</ele><time>2026-04-23T16:35:33Z</time></trkpt><trkpt lat="47.83662045143882" lon="-1.6836683333510591"><ele>78.0</ele><time>2026-04-23T16:35:34Z</time></trkpt><trkpt lat="47.836520684391026" lon="-1.683782685623004"><ele>78.0</ele><time>2026-04-23T16:35:35Z</time></trkpt><trkpt lat="47.8364196834863" lon="-1.6839234855760188"><ele>78.0</ele><time>2026-04-23T16:35:36Z</time></trkpt><trkpt lat="47.83630056604938" lon="-1.6840655795808368"><ele>78.0</ele><time>2026-04-23T16:35:37Z</time></trkpt><trkpt lat="47.83617493561147" lon="-1.6842066924146206"><ele>78.0</ele><time>2026-04-23T16:35:38Z</time></trkpt><trkpt lat="47.836038110582074" lon="-1.6843279472730364"><ele>76.66666666666667</ele><time>2026-04-23T16:35:39Z</time></trkpt><trkpt lat="47.835901766692494" lon="-1.6844596620018055"><ele>75.33333333333334</ele><time>2026-04-23T16:35:40Z</time></trkpt><trkpt lat="47.83575870477499" lon="-1.6845694103779758"><ele>74.0</ele><time>2026-04-23T16:35:41.001Z</time></trkpt><trkpt lat="47.83561676563712" lon="-1.6846590691313204"><ele>74.0</ele><time>2026-04-23T16:35:42.001Z</time></trkpt><trkpt lat="47.83547563292591" lon="-1.6847070217514284"><ele>74.0</ele><time>2026-04-23T16:35:43.001Z</time></trkpt><trkpt lat="47.835366196779766" lon="-1.6847702188092526"><ele>74.0</ele><time>2026-04-23T16:35:44.001Z</time></trkpt><trkpt lat="47.83528011598626" lon="-1.684842760491966"><ele>74.0</ele><time>2026-04-23T16:35:45.001Z</time></trkpt><trkpt lat="47.83520104405836" lon="-1.6848733169333872"><ele>74.0</ele><time>2026-04-23T16:35:46.001Z</time></trkpt><trkpt lat="47.83513256741067" lon="-1.6848992152647755"><ele>73.33333333333334</ele><time>2026-04-23T16:35:47.001Z</time></trkpt><trkpt lat="47.83499770073128" lon="-1.6849762185151451"><ele>72.66666666666667</ele><time>2026-04-23T16:35:49.001Z</time></trkpt><trkpt lat="47.83486357750268" lon="-1.6850271284910234"><ele>72.0</ele><time>2026-04-23T16:35:50.001Z</time></trkpt><trkpt lat="47.834707151285606" lon="-1.685123489807044"><ele>72.0</ele><time>2026-04-23T16:35:51.001Z</time></trkpt><trkpt lat="47.834528186298535" lon="-1.6852064208223365"><ele>72.0</ele><time>2026-04-23T16:35:52.001Z</time></trkpt><trkpt lat="47.83434249403285" lon="-1.685286741324757"><ele>72.0</ele><time>2026-04-23T16:35:53.001Z</time></trkpt><trkpt lat="47.83415540221258" lon="-1.6853571322472367"><ele>71.66666666666667</ele><time>2026-04-23T16:35:54.001Z</time></trkpt><trkpt lat="47.83397854467165" lon="-1.6854316158547074"><ele>71.33333333333334</ele><time>2026-04-23T16:35:55.001Z</time></trkpt><trkpt lat="47.833783239642834" lon="-1.6855103535752491"><ele>71.0</ele><time>2026-04-23T16:35:56.001Z</time></trkpt><trkpt lat="47.8335954482766" lon="-1.6855934571787257"><ele>71.66666666666667</ele><time>2026-04-23T16:35:57.001Z</time></trkpt><trkpt lat="47.833418741188495" lon="-1.6856426807131994"><ele>72.33333333333333</ele><time>2026-04-23T16:35:58.001Z</time></trkpt><trkpt lat="47.83327232530371" lon="-1.6856969256041159"><ele>73.0</ele><time>2026-04-23T16:35:59.001Z</time></trkpt><trkpt lat="47.83312319857336" lon="-1.685763192387693"><ele>73.0</ele><time>2026-04-23T16:36:00.001Z</time></trkpt><trkpt lat="47.8329752298997" lon="-1.6858246150307499"><ele>73.0</ele><time>2026-04-23T16:36:01.001Z</time></trkpt><trkpt lat="47.83282964348314" lon="-1.6858954645273936"><ele>73.0</ele><time>2026-04-23T16:36:02.001Z</time></trkpt><trkpt lat="47.83267233321249" lon="-1.6859470515131931"><ele>73.0</ele><time>2026-04-23T16:36:03.001Z</time></trkpt><trkpt lat="47.83248426340171" lon="-1.6860242413141988"><ele>73.0</ele><time>2026-04-23T16:36:04.001Z</time></trkpt><trkpt lat="47.83231373658531" lon="-1.6861031132558444"><ele>73.0</ele><time>2026-04-23T16:36:05.001Z</time></trkpt><trkpt lat="47.832166302236935" lon="-1.6861981496967942"><ele>73.2</ele><time>2026-04-23T16:36:06.001Z</time></trkpt><trkpt lat="47.83203067700937" lon="-1.6862493487995798"><ele>73.4</ele><time>2026-04-23T16:36:07.001Z</time></trkpt><trkpt lat="47.83191403122792" lon="-1.6862888124512048"><ele>73.60000000000001</ele><time>2026-04-23T16:36:08.001Z</time></trkpt><trkpt lat="47.83183371130035" lon="-1.686368160822213"><ele>73.8</ele><time>2026-04-23T16:36:09.001Z</time></trkpt><trkpt lat="47.831763350504914" lon="-1.6863881101700646"><ele>74.0</ele><time>2026-04-23T16:36:10.001Z</time></trkpt><trkpt lat="47.83179686475021" lon="-1.6866510815492095"><ele>74.66666666666667</ele><time>2026-04-23T16:36:11Z</time></trkpt><trkpt lat="47.831767401843265" lon="-1.6868867934493648"><ele>75.33333333333333</ele><time>2026-04-23T16:36:12Z</time></trkpt><trkpt lat="47.83172334678616" lon="-1.6871021062079392"><ele>76.0</ele><time>2026-04-23T16:36:13Z</time></trkpt><trkpt lat="47.831705546195025" lon="-1.6873623346494762"><ele>76.33333333333333</ele><time>2026-04-23T16:36:14Z</time></trkpt><trkpt lat="47.831683010426815" lon="-1.6876499530296059"><ele>76.66666666666667</ele><time>2026-04-23T16:36:15Z</time></trkpt><trkpt lat="47.83164924700241" lon="-1.6879800949749815"><ele>77.0</ele><time>2026-04-23T16:36:16Z</time></trkpt><trkpt lat="47.83161319027636" lon="-1.6883123815029635"><ele>77.66666666666667</ele><time>2026-04-23T16:36:17Z</time></trkpt><trkpt lat="47.831576866800305" lon="-1.688631992018115"><ele>78.33333333333333</ele><time>2026-04-23T16:36:18Z</time></trkpt><trkpt lat="47.83154535816142" lon="-1.6889557284398213"><ele>79.0</ele><time>2026-04-23T16:36:19Z</time></trkpt><trkpt lat="47.83150933917327" lon="-1.6892897777034006"><ele>79.5</ele><time>2026-04-23T16:36:20Z</time></trkpt><trkpt lat="47.831466396558774" lon="-1.689623652261516"><ele>80.0</ele><time>2026-04-23T16:36:21Z</time></trkpt><trkpt lat="47.83142957893346" lon="-1.6899553266761953"><ele>80.33333333333334</ele><time>2026-04-23T16:36:22Z</time></trkpt><trkpt lat="47.8314018378711" lon="-1.6902653326225638"><ele>80.66666666666667</ele><time>2026-04-23T16:36:23Z</time></trkpt><trkpt lat="47.83136126536403" lon="-1.6905754755932996"><ele>81.0</ele><time>2026-04-23T16:36:24Z</time></trkpt><trkpt lat="47.83132995650429" lon="-1.6908861308345162"><ele>81.33333333333333</ele><time>2026-04-23T16:36:25Z</time></trkpt><trkpt lat="47.83130254481738" lon="-1.6912040536035737"><ele>81.66666666666666</ele><time>2026-04-23T16:36:26Z</time></trkpt><trkpt lat="47.831274480359916" lon="-1.6915281073568278"><ele>82.0</ele><time>2026-04-23T16:36:27Z</time></trkpt><trkpt lat="47.831241311360714" lon="-1.6918591083062895"><ele>81.33333333333333</ele><time>2026-04-23T16:36:28Z</time></trkpt><trkpt lat="47.83121061049456" lon="-1.6921966660799794"><ele>80.66666666666667</ele><time>2026-04-23T16:36:29Z</time></trkpt><trkpt lat="47.83116289580386" lon="-1.6925126060323576"><ele>80.0</ele><time>2026-04-23T16:36:30Z</time></trkpt><trkpt lat="47.831114623371214" lon="-1.6928258624984063"><ele>80.0</ele><time>2026-04-23T16:36:31Z</time></trkpt><trkpt lat="47.83109190400817" lon="-1.6931520730223468"><ele>80.0</ele><time>2026-04-23T16:36:32Z</time></trkpt><trkpt lat="47.831055140199176" lon="-1.6934635813572751"><ele>80.0</ele><time>2026-04-23T16:36:33Z</time></trkpt><trkpt lat="47.83100881893768" lon="-1.6937869598011068"><ele>80.66666666666667</ele><time>2026-04-23T16:36:34Z</time></trkpt><trkpt lat="47.83097792329226" lon="-1.6941170347706587"><ele>81.33333333333333</ele><time>2026-04-23T16:36:35Z</time></trkpt><trkpt lat="47.83094369174782" lon="-1.6944466086301904"><ele>82.0</ele><time>2026-04-23T16:36:36Z</time></trkpt><trkpt lat="47.83090968659181" lon="-1.6947652053650255"><ele>82.33333333333333</ele><time>2026-04-23T16:36:37Z</time></trkpt><trkpt lat="47.83086740041227" lon="-1.6950940945380302"><ele>82.66666666666667</ele><time>2026-04-23T16:36:38Z</time></trkpt><trkpt lat="47.830817609914746" lon="-1.6954203758876938"><ele>83.0</ele><time>2026-04-23T16:36:39Z</time></trkpt><trkpt lat="47.830750161417036" lon="-1.695737759979839"><ele>83.0</ele><time>2026-04-23T16:36:40Z</time></trkpt><trkpt lat="47.83069518346032" lon="-1.6960629319832479"><ele>83.0</ele><time>2026-04-23T16:36:41Z</time></trkpt><trkpt lat="47.83063707189455" lon="-1.696401972807697"><ele>82.5</ele><time>2026-04-23T16:36:42Z</time></trkpt><trkpt lat="47.83057524175919" lon="-1.6967186763539863"><ele>82.0</ele><time>2026-04-23T16:36:43Z</time></trkpt><trkpt lat="47.83049179112903" lon="-1.6970510511546317"><ele>81.66666666666666</ele><time>2026-04-23T16:36:44Z</time></trkpt><trkpt lat="47.830425048117114" lon="-1.6973674482175012"><ele>81.33333333333333</ele><time>2026-04-23T16:36:45Z</time></trkpt><trkpt lat="47.830373138189344" lon="-1.6976786642254778"><ele>81.0</ele><time>2026-04-23T16:36:46Z</time></trkpt><trkpt lat="47.83031119050129" lon="-1.6979696283794325"><ele>81.0</ele><time>2026-04-23T16:36:47Z</time></trkpt><trkpt lat="47.8302509123352" lon="-1.6982773656614616"><ele>81.0</ele><time>2026-04-23T16:36:48Z</time></trkpt><trkpt lat="47.83020358653021" lon="-1.698595802446735"><ele>81.0</ele><time>2026-04-23T16:36:49Z</time></trkpt><trkpt lat="47.83014139616959" lon="-1.6989136618894152"><ele>81.66666666666667</ele><time>2026-04-23T16:36:50Z</time></trkpt><trkpt lat="47.830080151810584" lon="-1.6992266861401468"><ele>82.33333333333334</ele><time>2026-04-23T16:36:51Z</time></trkpt><trkpt lat="47.83001826440962" lon="-1.699542997030211"><ele>83.0</ele><time>2026-04-23T16:36:52Z</time></trkpt><trkpt lat="47.82995549550813" lon="-1.6998664065210158"><ele>83.0</ele><time>2026-04-23T16:36:53Z</time></trkpt><trkpt lat="47.82989616182253" lon="-1.7001786106211725"><ele>83.0</ele><time>2026-04-23T16:36:54Z</time></trkpt><trkpt lat="47.82983718178556" lon="-1.7004908250367174"><ele>83.0</ele><time>2026-04-23T16:36:55Z</time></trkpt><trkpt lat="47.82978070351282" lon="-1.7007913029763186"><ele>81.66666666666667</ele><time>2026-04-23T16:36:56Z</time></trkpt><trkpt lat="47.82972093271136" lon="-1.701109297806979"><ele>80.33333333333333</ele><time>2026-04-23T16:36:57Z</time></trkpt><trkpt lat="47.82966043093892" lon="-1.7014311817566905"><ele>79.0</ele><time>2026-04-23T16:36:58Z</time></trkpt><trkpt lat="47.82960059313695" lon="-1.7017455193607876"><ele>78.0</ele><time>2026-04-23T16:36:59Z</time></trkpt><trkpt lat="47.82954174983301" lon="-1.7020517177967351"><ele>77.0</ele><time>2026-04-23T16:37:00Z</time></trkpt><trkpt lat="47.82948652766235" lon="-1.7023390732253303"><ele>76.0</ele><time>2026-04-23T16:37:01Z</time></trkpt><trkpt lat="47.82942344974357" lon="-1.702667306948645"><ele>76.0</ele><time>2026-04-23T16:37:02Z</time></trkpt><trkpt lat="47.829360399869685" lon="-1.7029956385239313"><ele>76.0</ele><time>2026-04-23T16:37:03Z</time></trkpt><trkpt lat="47.82929440874647" lon="-1.7033398086662546"><ele>74.0</ele><time>2026-04-23T16:37:04Z</time></trkpt><trkpt lat="47.82922989118449" lon="-1.7036778399561556"><ele>72.0</ele><time>2026-04-23T16:37:05Z</time></trkpt><trkpt lat="47.82916691335944" lon="-1.7040082978562667"><ele>72.0</ele><time>2026-04-23T16:37:06Z</time></trkpt><trkpt lat="47.829104581762394" lon="-1.704335364823997"><ele>72.0</ele><time>2026-04-23T16:37:07Z</time></trkpt><trkpt lat="47.82904452280251" lon="-1.7046579688930121"><ele>71.0</ele><time>2026-04-23T16:37:08Z</time></trkpt><trkpt lat="47.82898496560375" lon="-1.7049785876295347"><ele>70.0</ele><time>2026-04-23T16:37:09Z</time></trkpt><trkpt lat="47.828924948426234" lon="-1.7052997792538633"><ele>69.0</ele><time>2026-04-23T16:37:10Z</time></trkpt><trkpt lat="47.82886390584101" lon="-1.705619575979438"><ele>68.33333333333333</ele><time>2026-04-23T16:37:11Z</time></trkpt><trkpt lat="47.828804522367285" lon="-1.7059306807644774"><ele>67.66666666666666</ele><time>2026-04-23T16:37:12Z</time></trkpt><trkpt lat="47.82874343209607" lon="-1.7062507272857712"><ele>67.0</ele><time>2026-04-23T16:37:13Z</time></trkpt><trkpt lat="47.828683195336616" lon="-1.7065663023521267"><ele>66.0</ele><time>2026-04-23T16:37:14Z</time></trkpt><trkpt lat="47.828622862887606" lon="-1.7068819708774035"><ele>65.0</ele><time>2026-04-23T16:37:15Z</time></trkpt><trkpt lat="47.828564558516334" lon="-1.7071869157964488"><ele>64.0</ele><time>2026-04-23T16:37:16Z</time></trkpt><trkpt lat="47.828514631511425" lon="-1.707448045137456"><ele>64.33333333333333</ele><time>2026-04-23T16:37:17Z</time></trkpt><trkpt lat="47.82846545030567" lon="-1.7077015651980547"><ele>64.66666666666667</ele><time>2026-04-23T16:37:18Z</time></trkpt><trkpt lat="47.82841391383834" lon="-1.70793079697745"><ele>65.0</ele><time>2026-04-23T16:37:19Z</time></trkpt><trkpt lat="47.82835171269194" lon="-1.7081831362475977"><ele>64.0</ele><time>2026-04-23T16:37:20Z</time></trkpt><trkpt lat="47.82821539813911" lon="-1.7083958163798085"><ele>63.0</ele><time>2026-04-23T16:37:21Z</time></trkpt><trkpt lat="47.82810306736265" lon="-1.7086174132195429"><ele>62.0</ele><time>2026-04-23T16:37:22Z</time></trkpt><trkpt lat="47.827972235162434" lon="-1.7088267558042436"><ele>60.66666666666667</ele><time>2026-04-23T16:37:23Z</time></trkpt><trkpt lat="47.82782033897705" lon="-1.7090162132462297"><ele>59.33333333333333</ele><time>2026-04-23T16:37:24Z</time></trkpt><trkpt lat="47.82766198715506" lon="-1.7092317416441776"><ele>58.0</ele><time>2026-04-23T16:37:25Z</time></trkpt><trkpt lat="47.82748760481046" lon="-1.7094499773926206"><ele>57.0</ele><time>2026-04-23T16:37:26Z</time></trkpt><trkpt lat="47.827314066929894" lon="-1.709665496718051"><ele>56.0</ele><time>2026-04-23T16:37:27Z</time></trkpt><trkpt lat="47.827140959369046" lon="-1.70988775237268"><ele>56.0</ele><time>2026-04-23T16:37:28Z</time></trkpt><trkpt lat="47.82696737334607" lon="-1.710120122265844"><ele>56.0</ele><time>2026-04-23T16:37:29Z</time></trkpt><trkpt lat="47.82680026199196" lon="-1.7103383271955073"><ele>55.0</ele><time>2026-04-23T16:37:30Z</time></trkpt><trkpt lat="47.8266285736408" lon="-1.7105532541294202"><ele>54.0</ele><time>2026-04-23T16:37:31Z</time></trkpt><trkpt lat="47.826461521599185" lon="-1.7107842341149062"><ele>54.0</ele><time>2026-04-23T16:37:32Z</time></trkpt><trkpt lat="47.82627870191876" lon="-1.7109862037940375"><ele>54.0</ele><time>2026-04-23T16:37:33Z</time></trkpt><trkpt lat="47.826118269367534" lon="-1.711192373126886"><ele>54.0</ele><time>2026-04-23T16:37:34Z</time></trkpt><trkpt lat="47.82596715204537" lon="-1.7114131200983171"><ele>53.33333333333333</ele><time>2026-04-23T16:37:35Z</time></trkpt><trkpt lat="47.82580476486737" lon="-1.711619319100373"><ele>52.666666666666664</ele><time>2026-04-23T16:37:36Z</time></trkpt><trkpt lat="47.82565306404084" lon="-1.7118119484492211"><ele>52.0</ele><time>2026-04-23T16:37:37Z</time></trkpt><trkpt lat="47.825499523679966" lon="-1.7120069136761178"><ele>52.0</ele><time>2026-04-23T16:37:38Z</time></trkpt><trkpt lat="47.825345759282044" lon="-1.712204611130622"><ele>52.0</ele><time>2026-04-23T16:37:39Z</time></trkpt><trkpt lat="47.82519462713225" lon="-1.7124066617251956"><ele>52.0</ele><time>2026-04-23T16:37:40Z</time></trkpt><trkpt lat="47.825049269497995" lon="-1.7126252721458803"><ele>52.666666666666664</ele><time>2026-04-23T16:37:41Z</time></trkpt><trkpt lat="47.82491373831495" lon="-1.7128475443434565"><ele>53.33333333333333</ele><time>2026-04-23T16:37:42Z</time></trkpt><trkpt lat="47.82478253757897" lon="-1.7130948879944996"><ele>54.0</ele><time>2026-04-23T16:37:43Z</time></trkpt><trkpt lat="47.82464606576382" lon="-1.7133463440887513"><ele>53.66666666666667</ele><time>2026-04-23T16:37:44Z</time></trkpt><trkpt lat="47.824523780514475" lon="-1.713610225445091"><ele>53.333333333333336</ele><time>2026-04-23T16:37:45Z</time></trkpt><trkpt lat="47.824409382139876" lon="-1.7138931275793965"><ele>53.0</ele><time>2026-04-23T16:37:46Z</time></trkpt><trkpt lat="47.82430166118434" lon="-1.714169852183086"><ele>53.0</ele><time>2026-04-23T16:37:47.001Z</time></trkpt><trkpt lat="47.824186199016275" lon="-1.7144338560222994"><ele>53.0</ele><time>2026-04-23T16:37:48.001Z</time></trkpt><trkpt lat="47.82407000778952" lon="-1.7147023353860453"><ele>53.0</ele><time>2026-04-23T16:37:49.001Z</time></trkpt><trkpt lat="47.823966879041556" lon="-1.7149854476277269"><ele>52.66666666666667</ele><time>2026-04-23T16:37:50.001Z</time></trkpt><trkpt lat="47.823863527976556" lon="-1.7152867906670464"><ele>52.33333333333333</ele><time>2026-04-23T16:37:51.001Z</time></trkpt><trkpt lat="47.823772059321286" lon="-1.715570001536753"><ele>52.0</ele><time>2026-04-23T16:37:52.001Z</time></trkpt><trkpt lat="47.82369319169036" lon="-1.7158755572568603"><ele>52.0</ele><time>2026-04-23T16:37:53.001Z</time></trkpt><trkpt lat="47.823616966908446" lon="-1.716178370627032"><ele>52.0</ele><time>2026-04-23T16:37:54.001Z</time></trkpt><trkpt lat="47.823539110166514" lon="-1.71647969103005"><ele>52.0</ele><time>2026-04-23T16:37:55.001Z</time></trkpt><trkpt lat="47.8234671015274" lon="-1.7167906327373434"><ele>55.0</ele><time>2026-04-23T16:37:56.001Z</time></trkpt><trkpt lat="47.82338591700337" lon="-1.7170890208493061"><ele>58.0</ele><time>2026-04-23T16:37:57.001Z</time></trkpt><trkpt lat="47.82331831381076" lon="-1.7173801127789574"><ele>61.0</ele><time>2026-04-23T16:37:58.001Z</time></trkpt><trkpt lat="47.82323864252059" lon="-1.7176763698436757"><ele>59.666666666666664</ele><time>2026-04-23T16:37:59.001Z</time></trkpt><trkpt lat="47.823170572809644" lon="-1.717964643874284"><ele>58.33333333333333</ele><time>2026-04-23T16:38:00.001Z</time></trkpt><trkpt lat="47.82308743798995" lon="-1.7182530208538564"><ele>57.0</ele><time>2026-04-23T16:38:01.001Z</time></trkpt><trkpt lat="47.822973651948196" lon="-1.7185335434860123"><ele>56.66666666666667</ele><time>2026-04-23T16:38:02.001Z</time></trkpt><trkpt lat="47.82290068015305" lon="-1.7188183625888358"><ele>56.333333333333336</ele><time>2026-04-23T16:38:03.001Z</time></trkpt><trkpt lat="47.822821241501565" lon="-1.7190821597443309"><ele>56.0</ele><time>2026-04-23T16:38:04.001Z</time></trkpt><trkpt lat="47.8226768758356" lon="-1.7193309765856695"><ele>58.333333333333336</ele><time>2026-04-23T16:38:05.001Z</time></trkpt><trkpt lat="47.82255103395822" lon="-1.7196052814938312"><ele>60.66666666666667</ele><time>2026-04-23T16:38:06.001Z</time></trkpt><trkpt lat="47.82242182043315" lon="-1.7198619875541445"><ele>63.0</ele><time>2026-04-23T16:38:07.001Z</time></trkpt><trkpt lat="47.82221579577283" lon="-1.7200292570103604"><ele>62.5</ele><time>2026-04-23T16:38:08.001Z</time></trkpt><trkpt lat="47.8220603832766" lon="-1.720263371497314"><ele>62.0</ele><time>2026-04-23T16:38:09.001Z</time></trkpt><trkpt lat="47.82189825101926" lon="-1.7205091030232649"><ele>63.0</ele><time>2026-04-23T16:38:10.001Z</time></trkpt><trkpt lat="47.821717866749296" lon="-1.7207480525365144"><ele>64.0</ele><time>2026-04-23T16:38:11.001Z</time></trkpt><trkpt lat="47.821534692120814" lon="-1.720964359844575"><ele>63.0</ele><time>2026-04-23T16:38:12.001Z</time></trkpt><trkpt lat="47.82136004600042" lon="-1.7211950827330182"><ele>62.0</ele><time>2026-04-23T16:38:13Z</time></trkpt><trkpt lat="47.82123150040133" lon="-1.7214765691095608"><ele>62.0</ele><time>2026-04-23T16:38:14Z</time></trkpt><trkpt lat="47.82106922832488" lon="-1.7217117159111262"><ele>62.0</ele><time>2026-04-23T16:38:15Z</time></trkpt><trkpt lat="47.820910478870175" lon="-1.7219417585234709"><ele>62.0</ele><time>2026-04-23T16:38:16Z</time></trkpt><trkpt lat="47.82075392611353" lon="-1.7221716868040364"><ele>62.66666666666667</ele><time>2026-04-23T16:38:17Z</time></trkpt><trkpt lat="47.82060017203323" lon="-1.722397777861491"><ele>63.33333333333333</ele><time>2026-04-23T16:38:18Z</time></trkpt><trkpt lat="47.82045187370715" lon="-1.7226220858263348"><ele>64.0</ele><time>2026-04-23T16:38:19Z</time></trkpt><trkpt lat="47.82030708945269" lon="-1.7228461867069969"><ele>64.0</ele><time>2026-04-23T16:38:20Z</time></trkpt><trkpt lat="47.82016248250047" lon="-1.7230781924517005"><ele>64.0</ele><time>2026-04-23T16:38:21Z</time></trkpt><trkpt lat="47.82002814240483" lon="-1.7233273620580498"><ele>64.0</ele><time>2026-04-23T16:38:22Z</time></trkpt><trkpt lat="47.81989567860517" lon="-1.7235897879614592"><ele>63.666666666666664</ele><time>2026-04-23T16:38:23Z</time></trkpt><trkpt lat="47.819762801316095" lon="-1.7238646707919163"><ele>63.33333333333333</ele><time>2026-04-23T16:38:24Z</time></trkpt><trkpt lat="47.81963712701263" lon="-1.724135970176987"><ele>63.0</ele><time>2026-04-23T16:38:25Z</time></trkpt><trkpt lat="47.819514253977914" lon="-1.724402598837129"><ele>61.66666666666667</ele><time>2026-04-23T16:38:26Z</time></trkpt><trkpt lat="47.81939036130722" lon="-1.7246714399888028"><ele>60.333333333333336</ele><time>2026-04-23T16:38:27Z</time></trkpt><trkpt lat="47.81926464332511" lon="-1.7249446885129567"><ele>59.0</ele><time>2026-04-23T16:38:28Z</time></trkpt><trkpt lat="47.8191359389354" lon="-1.7252255939257233"><ele>57.0</ele><time>2026-04-23T16:38:29Z</time></trkpt><trkpt lat="47.819013427093196" lon="-1.7254929836539326"><ele>55.0</ele><time>2026-04-23T16:38:30Z</time></trkpt><trkpt lat="47.81888630998931" lon="-1.7257704247978098"><ele>53.0</ele><time>2026-04-23T16:38:31Z</time></trkpt><trkpt lat="47.818762105971985" lon="-1.7260415078481905"><ele>50.0</ele><time>2026-04-23T16:38:32Z</time></trkpt><trkpt lat="47.81863305170277" lon="-1.726321548405734"><ele>47.0</ele><time>2026-04-23T16:38:33Z</time></trkpt><trkpt lat="47.81849902851602" lon="-1.7266122063687668"><ele>47.5</ele><time>2026-04-23T16:38:34Z</time></trkpt><trkpt lat="47.818367375093004" lon="-1.7268977250710307"><ele>48.0</ele><time>2026-04-23T16:38:35Z</time></trkpt><trkpt lat="47.818237437878885" lon="-1.7271780553891207"><ele>48.0</ele><time>2026-04-23T16:38:36Z</time></trkpt><trkpt lat="47.81811439135027" lon="-1.7274433290641904"><ele>48.0</ele><time>2026-04-23T16:38:37Z</time></trkpt><trkpt lat="47.81798373756878" lon="-1.727725003315662"><ele>48.0</ele><time>2026-04-23T16:38:38Z</time></trkpt><trkpt lat="47.81784160398599" lon="-1.727999032732853"><ele>45.5</ele><time>2026-04-23T16:38:39Z</time></trkpt><trkpt lat="47.817725047694275" lon="-1.7282827082482286"><ele>43.0</ele><time>2026-04-23T16:38:40Z</time></trkpt><trkpt lat="47.817593006598614" lon="-1.7285665820666158"><ele>40.5</ele><time>2026-04-23T16:38:41Z</time></trkpt><trkpt lat="47.81745976823028" lon="-1.7288524883297065"><ele>38.0</ele><time>2026-04-23T16:38:42Z</time></trkpt><trkpt lat="47.81733201023676" lon="-1.729126634532638"><ele>36.0</ele><time>2026-04-23T16:38:43Z</time></trkpt><trkpt lat="47.81720176250906" lon="-1.7294061234910325"><ele>34.0</ele><time>2026-04-23T16:38:44Z</time></trkpt><trkpt lat="47.81707455022444" lon="-1.7296790987647306"><ele>34.0</ele><time>2026-04-23T16:38:45Z</time></trkpt><trkpt lat="47.81694126256879" lon="-1.7299651109106011"><ele>34.0</ele><time>2026-04-23T16:38:46Z</time></trkpt><trkpt lat="47.81681324410532" lon="-1.7302403156954758"><ele>33.0</ele><time>2026-04-23T16:38:47Z</time></trkpt><trkpt lat="47.81667404097634" lon="-1.7305064230264688"><ele>32.0</ele><time>2026-04-23T16:38:48Z</time></trkpt><trkpt lat="47.81655662477481" lon="-1.7307924304343907"><ele>32.0</ele><time>2026-04-23T16:38:49Z</time></trkpt><trkpt lat="47.81643562699549" lon="-1.7310526097003494"><ele>32.0</ele><time>2026-04-23T16:38:50Z</time></trkpt><trkpt lat="47.81632390722298" lon="-1.7312920664950955"><ele>32.0</ele><time>2026-04-23T16:38:51Z</time></trkpt><trkpt lat="47.81621824395052" lon="-1.7315096708351136"><ele>32.0</ele><time>2026-04-23T16:38:52Z</time></trkpt><trkpt lat="47.816108510254594" lon="-1.7317523852761278"><ele>32.0</ele><time>2026-04-23T16:38:53Z</time></trkpt><trkpt lat="47.81599407201081" lon="-1.731996948074363"><ele>32.0</ele><time>2026-04-23T16:38:54Z</time></trkpt><trkpt lat="47.81587322001374" lon="-1.7322553194118562"><ele>32.666666666666664</ele><time>2026-04-23T16:38:55Z</time></trkpt><trkpt lat="47.81577377177581" lon="-1.7324680422767984"><ele>33.333333333333336</ele><time>2026-04-23T16:38:56Z</time></trkpt><trkpt lat="47.815683611409156" lon="-1.7326608980216787"><ele>34.0</ele><time>2026-04-23T16:38:57Z</time></trkpt><trkpt lat="47.81560484025967" lon="-1.7328293918523368"><ele>34.0</ele><time>2026-04-23T16:38:58Z</time></trkpt><trkpt lat="47.81553890102911" lon="-1.732970437955427"><ele>34.0</ele><time>2026-04-23T16:38:59Z</time></trkpt><trkpt lat="47.815478184468176" lon="-1.7330620084363886"><ele>34.0</ele><time>2026-04-23T16:39:00Z</time></trkpt><trkpt lat="47.81544916814897" lon="-1.7331623794210367"><ele>34.0</ele><time>2026-04-23T16:39:01Z</time></trkpt><trkpt lat="47.815409515221816" lon="-1.7332471992706517"><ele>34.0</ele><time>2026-04-23T16:39:05Z</time></trkpt><trkpt lat="47.81532388798462" lon="-1.733428113378539"><ele>34.0</ele><time>2026-04-23T16:39:16Z</time></trkpt><trkpt lat="47.81528183581653" lon="-1.7335316865115922"><ele>34.0</ele><time>2026-04-23T16:39:17Z</time></trkpt><trkpt lat="47.81521257741337" lon="-1.7336698073572627"><ele>34.0</ele><time>2026-04-23T16:39:18Z</time></trkpt><trkpt lat="47.81513145977792" lon="-1.733832503176822"><ele>34.0</ele><time>2026-04-23T16:39:19Z</time></trkpt><trkpt lat="47.815050880512906" lon="-1.733993536013332"><ele>34.66666666666667</ele><time>2026-04-23T16:39:20Z</time></trkpt><trkpt lat="47.81496095230632" lon="-1.7342134563566642"><ele>35.333333333333336</ele><time>2026-04-23T16:39:21Z</time></trkpt><trkpt lat="47.81486755403396" lon="-1.7344523963900398"><ele>36.0</ele><time>2026-04-23T16:39:22Z</time></trkpt><trkpt lat="47.81476374964809" lon="-1.7346847352248649"><ele>36.333333333333336</ele><time>2026-04-23T16:39:23Z</time></trkpt><trkpt lat="47.81464605379927" lon="-1.734957399396831"><ele>36.66666666666667</ele><time>2026-04-23T16:39:24Z</time></trkpt><trkpt lat="47.81452798613232" lon="-1.7352180046279864"><ele>37.0</ele><time>2026-04-23T16:39:25Z</time></trkpt><trkpt lat="47.81439032849761" lon="-1.7354850843913028"><ele>39.0</ele><time>2026-04-23T16:39:26Z</time></trkpt><trkpt lat="47.814259596122035" lon="-1.7357668689662906"><ele>41.0</ele><time>2026-04-23T16:39:27Z</time></trkpt><trkpt lat="47.81411689030692" lon="-1.7360530373339778"><ele>40.5</ele><time>2026-04-23T16:39:28Z</time></trkpt><trkpt lat="47.813983312110174" lon="-1.7363305432253646"><ele>40.0</ele><time>2026-04-23T16:39:29Z</time></trkpt><trkpt lat="47.81384342455533" lon="-1.7366178289166487"><ele>40.0</ele><time>2026-04-23T16:39:30Z</time></trkpt><trkpt lat="47.8137148855683" lon="-1.7369158067409796"><ele>40.0</ele><time>2026-04-23T16:39:31Z</time></trkpt><trkpt lat="47.81356713583952" lon="-1.7372180750686743"><ele>40.0</ele><time>2026-04-23T16:39:32Z</time></trkpt><trkpt lat="47.813415042509114" lon="-1.7375186901328017"><ele>40.0</ele><time>2026-04-23T16:39:33Z</time></trkpt><trkpt lat="47.81327003574377" lon="-1.7378321012302587"><ele>39.5</ele><time>2026-04-23T16:39:34Z</time></trkpt><trkpt lat="47.813145650130636" lon="-1.738141221466408"><ele>39.0</ele><time>2026-04-23T16:39:35Z</time></trkpt><trkpt lat="47.81301020798442" lon="-1.738432112467667"><ele>38.666666666666664</ele><time>2026-04-23T16:39:36Z</time></trkpt><trkpt lat="47.812891955341094" lon="-1.7386962650488087"><ele>38.33333333333333</ele><time>2026-04-23T16:39:37Z</time></trkpt><trkpt lat="47.81275991546841" lon="-1.7389590488902524"><ele>38.0</ele><time>2026-04-23T16:39:38Z</time></trkpt><trkpt lat="47.81262973073866" lon="-1.739232167229178"><ele>40.0</ele><time>2026-04-23T16:39:39Z</time></trkpt><trkpt lat="47.81250045244031" lon="-1.739513461504199"><ele>42.0</ele><time>2026-04-23T16:39:40Z</time></trkpt><trkpt lat="47.81236335326018" lon="-1.7397948175507978"><ele>42.0</ele><time>2026-04-23T16:39:41Z</time></trkpt><trkpt lat="47.812239002440336" lon="-1.7400607763856355"><ele>42.0</ele><time>2026-04-23T16:39:42Z</time></trkpt><trkpt lat="47.81211284423754" lon="-1.740302942468688"><ele>42.0</ele><time>2026-04-23T16:39:43Z</time></trkpt><trkpt lat="47.812016830931384" lon="-1.7405218703810348"><ele>42.0</ele><time>2026-04-23T16:39:44Z</time></trkpt><trkpt lat="47.81194033863987" lon="-1.7406965816595428"><ele>42.0</ele><time>2026-04-23T16:39:45Z</time></trkpt><trkpt lat="47.81187530074675" lon="-1.740844694282761"><ele>42.0</ele><time>2026-04-23T16:39:46Z</time></trkpt><trkpt lat="47.811821555658305" lon="-1.74096015839278"><ele>42.0</ele><time>2026-04-23T16:39:47Z</time></trkpt><trkpt lat="47.81176938684962" lon="-1.7410811852020027"><ele>42.5</ele><time>2026-04-23T16:39:49Z</time></trkpt><trkpt lat="47.81161192041502" lon="-1.7409867117020439"><ele>43.0</ele><time>2026-04-23T16:39:50Z</time></trkpt><trkpt lat="47.81147712460257" lon="-1.740988911974258"><ele>43.5</ele><time>2026-04-23T16:39:51Z</time></trkpt><trkpt lat="47.81134733903666" lon="-1.7409830444694527"><ele>44.0</ele><time>2026-04-23T16:39:52Z</time></trkpt><trkpt lat="47.811199712124704" lon="-1.7409831476161117"><ele>44.0</ele><time>2026-04-23T16:39:53.001Z</time></trkpt><trkpt lat="47.81101556597925" lon="-1.7409740801710467"><ele>44.0</ele><time>2026-04-23T16:39:54.001Z</time></trkpt><trkpt lat="47.810835684949836" lon="-1.7409831313747248"><ele>44.0</ele><time>2026-04-23T16:39:55.001Z</time></trkpt><trkpt lat="47.81064491789529" lon="-1.7409948695175461"><ele>45.33333333333333</ele><time>2026-04-23T16:39:56.001Z</time></trkpt><trkpt lat="47.810432914387405" lon="-1.7409955959007082"><ele>46.666666666666664</ele><time>2026-04-23T16:39:57.001Z</time></trkpt><trkpt lat="47.810203770013686" lon="-1.740988589648967"><ele>48.0</ele><time>2026-04-23T16:39:58.001Z</time></trkpt><trkpt lat="47.809991400546934" lon="-1.7409929548401202"><ele>49.66666666666667</ele><time>2026-04-23T16:39:59.001Z</time></trkpt><trkpt lat="47.80979118432669" lon="-1.7410065249778925"><ele>51.333333333333336</ele><time>2026-04-23T16:40:00.001Z</time></trkpt><trkpt lat="47.80958788374961" lon="-1.7410129744255534"><ele>53.0</ele><time>2026-04-23T16:40:01.001Z</time></trkpt><trkpt lat="47.809382226966974" lon="-1.7410177246671268"><ele>54.0</ele><time>2026-04-23T16:40:02.001Z</time></trkpt><trkpt lat="47.80917658329259" lon="-1.7410204494207304"><ele>55.0</ele><time>2026-04-23T16:40:03.001Z</time></trkpt><trkpt lat="47.808973563061585" lon="-1.741025661100897"><ele>56.0</ele><time>2026-04-23T16:40:04.001Z</time></trkpt><trkpt lat="47.80878013781692" lon="-1.7410237355685083"><ele>56.0</ele><time>2026-04-23T16:40:05.001Z</time></trkpt><trkpt lat="47.8086022244001" lon="-1.7410275043657288"><ele>56.0</ele><time>2026-04-23T16:40:06.001Z</time></trkpt><trkpt lat="47.80844612723572" lon="-1.7410425055251986"><ele>56.0</ele><time>2026-04-23T16:40:07.001Z</time></trkpt><trkpt lat="47.80830260732627" lon="-1.7410384791916835"><ele>56.25</ele><time>2026-04-23T16:40:08.001Z</time></trkpt><trkpt lat="47.80818015924484" lon="-1.7410382439755934"><ele>56.5</ele><time>2026-04-23T16:40:09.001Z</time></trkpt><trkpt lat="47.80804746730612" lon="-1.741037279991151"><ele>56.75</ele><time>2026-04-23T16:40:10.001Z</time></trkpt><trkpt lat="47.80793797824729" lon="-1.7410374868899792"><ele>57.0</ele><time>2026-04-23T16:40:11.001Z</time></trkpt><trkpt lat="47.807841955630664" lon="-1.7410621859945348"><ele>57.0</ele><time>2026-04-23T16:40:12.001Z</time></trkpt><trkpt lat="47.807736961248416" lon="-1.7410612607095701"><ele>57.0</ele><time>2026-04-23T16:40:13Z</time></trkpt><trkpt lat="47.807626645065135" lon="-1.7410591090113032"><ele>57.0</ele><time>2026-04-23T16:40:14Z</time></trkpt><trkpt lat="47.80752388982673" lon="-1.741062054274345"><ele>57.0</ele><time>2026-04-23T16:40:15Z</time></trkpt><trkpt lat="47.80741709273145" lon="-1.741073846661738"><ele>57.0</ele><time>2026-04-23T16:40:16Z</time></trkpt><trkpt lat="47.80732590819066" lon="-1.741082494274788"><ele>57.0</ele><time>2026-04-23T16:40:17Z</time></trkpt><trkpt lat="47.80724774506113" lon="-1.7410888014601198"><ele>57.0</ele><time>2026-04-23T16:40:18Z</time></trkpt><trkpt lat="47.807178556303924" lon="-1.741099552780653"><ele>57.0</ele><time>2026-04-23T16:40:19Z</time></trkpt><trkpt lat="47.807096464288975" lon="-1.7411072310647329"><ele>57.0</ele><time>2026-04-23T16:40:20Z</time></trkpt><trkpt lat="47.80700218689492" lon="-1.7411025578452624"><ele>57.0</ele><time>2026-04-23T16:40:21Z</time></trkpt><trkpt lat="47.80688930168044" lon="-1.741088355761305"><ele>57.0</ele><time>2026-04-23T16:40:22Z</time></trkpt><trkpt lat="47.80679359582334" lon="-1.7410816892964878"><ele>57.0</ele><time>2026-04-23T16:40:23Z</time></trkpt><trkpt lat="47.80670352703794" lon="-1.7410926589740368"><ele>57.0</ele><time>2026-04-23T16:40:24Z</time></trkpt><trkpt lat="47.806613677963774" lon="-1.7410835287701414"><ele>57.0</ele><time>2026-04-23T16:40:25Z</time></trkpt><trkpt lat="47.806519891127145" lon="-1.7410899575925938"><ele>57.0</ele><time>2026-04-23T16:40:26Z</time></trkpt><trkpt lat="47.806414551198614" lon="-1.7410886321238477"><ele>57.0</ele><time>2026-04-23T16:40:27Z</time></trkpt><trkpt lat="47.80630817344511" lon="-1.7410769000364146"><ele>57.0</ele><time>2026-04-23T16:40:28Z</time></trkpt><trkpt lat="47.80620404256285" lon="-1.7410688624932233"><ele>57.0</ele><time>2026-04-23T16:40:29Z</time></trkpt><trkpt lat="47.806090103361996" lon="-1.741087929618873"><ele>57.0</ele><time>2026-04-23T16:40:30Z</time></trkpt><trkpt lat="47.80598148189237" lon="-1.7410901920817805"><ele>57.0</ele><time>2026-04-23T16:40:31Z</time></trkpt><trkpt lat="47.80583647144136" lon="-1.7410940144723996"><ele>57.0</ele><time>2026-04-23T16:40:32Z</time></trkpt><trkpt lat="47.80569765525753" lon="-1.7410981934768108"><ele>57.0</ele><time>2026-04-23T16:40:33Z</time></trkpt><trkpt lat="47.80558412447436" lon="-1.7411188873696273"><ele>57.0</ele><time>2026-04-23T16:40:34Z</time></trkpt><trkpt lat="47.80548693256352" lon="-1.7411462019671795"><ele>57.0</ele><time>2026-04-23T16:40:35Z</time></trkpt><trkpt lat="47.80539178825454" lon="-1.741126909364403"><ele>57.0</ele><time>2026-04-23T16:40:36Z</time></trkpt><trkpt lat="47.80529070889307" lon="-1.7411283350214268"><ele>56.5</ele><time>2026-04-23T16:40:37Z</time></trkpt><trkpt lat="47.80515657704406" lon="-1.7411406821877846"><ele>56.0</ele><time>2026-04-23T16:40:38Z</time></trkpt><trkpt lat="47.80501809222603" lon="-1.7411026042219861"><ele>55.5</ele><time>2026-04-23T16:40:39Z</time></trkpt><trkpt lat="47.80489489571661" lon="-1.7411104655552936"><ele>55.0</ele><time>2026-04-23T16:40:40Z</time></trkpt><trkpt lat="47.8047820290025" lon="-1.741128392275561"><ele>54.99999999999999</ele><time>2026-04-23T16:40:41Z</time></trkpt><trkpt lat="47.804684217865386" lon="-1.7411288467974648"><ele>55.0</ele><time>2026-04-23T16:40:42Z</time></trkpt><trkpt lat="47.80459478699963" lon="-1.7411269578323267"><ele>55.0</ele><time>2026-04-23T16:40:43Z</time></trkpt><trkpt lat="47.80451625738326" lon="-1.7411344789094014"><ele>55.0</ele><time>2026-04-23T16:40:44Z</time></trkpt><trkpt lat="47.80444118024283" lon="-1.7411378083093376"><ele>54.99999999999999</ele><time>2026-04-23T16:40:45Z</time></trkpt><trkpt lat="47.80434865339783" lon="-1.741136608570937"><ele>55.0</ele><time>2026-04-23T16:40:46Z</time></trkpt><trkpt lat="47.804236278168496" lon="-1.7411232360174378"><ele>54.8</ele><time>2026-04-23T16:40:47Z</time></trkpt><trkpt lat="47.80411675250127" lon="-1.7411128983424415"><ele>54.6</ele><time>2026-04-23T16:40:48Z</time></trkpt><trkpt lat="47.80399645947411" lon="-1.7411196345707807"><ele>54.400000000000006</ele><time>2026-04-23T16:40:49Z</time></trkpt><trkpt lat="47.803883877512874" lon="-1.7411326764288135"><ele>54.2</ele><time>2026-04-23T16:40:50Z</time></trkpt><trkpt lat="47.80379739647092" lon="-1.741142143750218"><ele>54.0</ele><time>2026-04-23T16:40:51Z</time></trkpt><trkpt lat="47.803707121328415" lon="-1.7411477768928338"><ele>54.0</ele><time>2026-04-23T16:40:52Z</time></trkpt><trkpt lat="47.8036034215732" lon="-1.741159432022458"><ele>54.00000000000001</ele><time>2026-04-23T16:40:53Z</time></trkpt><trkpt lat="47.803492249330404" lon="-1.7411732059026963"><ele>54.00000000000001</ele><time>2026-04-23T16:40:54Z</time></trkpt><trkpt lat="47.803395196854034" lon="-1.7411965986042075"><ele>54.0</ele><time>2026-04-23T16:40:55Z</time></trkpt><trkpt lat="47.80332260009196" lon="-1.7412165473223957"><ele>54.0</ele><time>2026-04-23T16:40:56Z</time></trkpt><trkpt lat="47.80323817683765" lon="-1.7412100131286816"><ele>53.800000000000004</ele><time>2026-04-23T16:41:01Z</time></trkpt><trkpt lat="47.80317027232115" lon="-1.7412491359618332"><ele>53.60000000000001</ele><time>2026-04-23T16:41:03Z</time></trkpt><trkpt lat="47.80309639795103" lon="-1.7413006143993268"><ele>53.4</ele><time>2026-04-23T16:41:07Z</time></trkpt><trkpt lat="47.802950130689396" lon="-1.7413490316733864"><ele>53.2</ele><time>2026-04-23T16:41:09Z</time></trkpt><trkpt lat="47.80285081730551" lon="-1.7414174681347354"><ele>53.0</ele><time>2026-04-23T16:41:10Z</time></trkpt><trkpt lat="47.80276450261957" lon="-1.741463691896527"><ele>52.8</ele><time>2026-04-23T16:41:11Z</time></trkpt><trkpt lat="47.80265994065719" lon="-1.7414938946060827"><ele>52.599999999999994</ele><time>2026-04-23T16:41:12Z</time></trkpt><trkpt lat="47.80255613966861" lon="-1.7415304433919043"><ele>52.400000000000006</ele><time>2026-04-23T16:41:13Z</time></trkpt><trkpt lat="47.80246147721989" lon="-1.7416143829798207"><ele>52.2</ele><time>2026-04-23T16:41:14Z</time></trkpt><trkpt lat="47.802363199672605" lon="-1.7416763309171688"><ele>52.0</ele><time>2026-04-23T16:41:15Z</time></trkpt><trkpt lat="47.80225512488033" lon="-1.7417072779484863"><ele>52.0</ele><time>2026-04-23T16:41:16Z</time></trkpt><trkpt lat="47.802150703573396" lon="-1.7417582466006978"><ele>52.0</ele><time>2026-04-23T16:41:17Z</time></trkpt><trkpt lat="47.80202821422708" lon="-1.7417723668305962"><ele>52.0</ele><time>2026-04-23T16:41:18Z</time></trkpt><trkpt lat="47.801917345192884" lon="-1.7417979056245283"><ele>52.0</ele><time>2026-04-23T16:41:19Z</time></trkpt><trkpt lat="47.80181867953274" lon="-1.7418092196414012"><ele>52.0</ele><time>2026-04-23T16:41:20Z</time></trkpt><trkpt lat="47.80172363422126" lon="-1.741822175710992"><ele>52.0</ele><time>2026-04-23T16:41:21Z</time></trkpt><trkpt lat="47.80161446476704" lon="-1.7418334651959113"><ele>52.0</ele><time>2026-04-23T16:41:22Z</time></trkpt><trkpt lat="47.801478293832005" lon="-1.7418686878488274"><ele>52.0</ele><time>2026-04-23T16:41:23Z</time></trkpt><trkpt lat="47.80130191500009" lon="-1.741897202545122"><ele>52.0</ele><time>2026-04-23T16:41:24Z</time></trkpt><trkpt lat="47.801115603671384" lon="-1.7419059078569472"><ele>51.666666666666664</ele><time>2026-04-23T16:41:25Z</time></trkpt><trkpt lat="47.80090910817891" lon="-1.7418844122726738"><ele>51.33333333333333</ele><time>2026-04-23T16:41:26Z</time></trkpt><trkpt lat="47.8006795389534" lon="-1.7418591099489165"><ele>51.0</ele><time>2026-04-23T16:41:27Z</time></trkpt><trkpt lat="47.800446082294194" lon="-1.7418623809870921"><ele>49.5</ele><time>2026-04-23T16:41:28Z</time></trkpt><trkpt lat="47.800136662550095" lon="-1.7418940787110202"><ele>48.0</ele><time>2026-04-23T16:41:29Z</time></trkpt><trkpt lat="47.79986423158656" lon="-1.7418993340181097"><ele>48.0</ele><time>2026-04-23T16:41:30Z</time></trkpt><trkpt lat="47.7995861264177" lon="-1.74189517674166"><ele>48.0</ele><time>2026-04-23T16:41:31Z</time></trkpt><trkpt lat="47.79932552228855" lon="-1.7418859352664116"><ele>48.0</ele><time>2026-04-23T16:41:32Z</time></trkpt><trkpt lat="47.79906829405747" lon="-1.7418701142211848"><ele>48.0</ele><time>2026-04-23T16:41:33Z</time></trkpt><trkpt lat="47.79882779295009" lon="-1.7418906913985737"><ele>47.0</ele><time>2026-04-23T16:41:34Z</time></trkpt><trkpt lat="47.79858559989988" lon="-1.7418959288171225"><ele>46.0</ele><time>2026-04-23T16:41:35Z</time></trkpt><trkpt lat="47.798345443724465" lon="-1.7418957240410562"><ele>45.5</ele><time>2026-04-23T16:41:36Z</time></trkpt><trkpt lat="47.7981204088955" lon="-1.741897911402266"><ele>45.0</ele><time>2026-04-23T16:41:37Z</time></trkpt><trkpt lat="47.797885963005655" lon="-1.7419003860644902"><ele>44.666666666666664</ele><time>2026-04-23T16:41:38Z</time></trkpt><trkpt lat="47.79765913632716" lon="-1.741897163625579"><ele>44.33333333333333</ele><time>2026-04-23T16:41:39Z</time></trkpt><trkpt lat="47.79743703814712" lon="-1.74189492326624"><ele>44.0</ele><time>2026-04-23T16:41:40Z</time></trkpt><trkpt lat="47.79720521298531" lon="-1.7418975608089626"><ele>44.0</ele><time>2026-04-23T16:41:41Z</time></trkpt><trkpt lat="47.796988191911154" lon="-1.741916066703022"><ele>44.0</ele><time>2026-04-23T16:41:42Z</time></trkpt><trkpt lat="47.79676455677515" lon="-1.7419131441806113"><ele>44.0</ele><time>2026-04-23T16:41:43Z</time></trkpt><trkpt lat="47.79654073706152" lon="-1.7419036700183392"><ele>44.33333333333333</ele><time>2026-04-23T16:41:43.999Z</time></trkpt><trkpt lat="47.79632925032505" lon="-1.741895076278346"><ele>44.666666666666664</ele><time>2026-04-23T16:41:44.999Z</time></trkpt><trkpt lat="47.79610554346227" lon="-1.7418891420999367"><ele>45.0</ele><time>2026-04-23T16:41:45.999Z</time></trkpt><trkpt lat="47.79589695777642" lon="-1.7418717146086211"><ele>45.333333333333336</ele><time>2026-04-23T16:41:46.999Z</time></trkpt><trkpt lat="47.79568811956168" lon="-1.741854154025217"><ele>45.66666666666667</ele><time>2026-04-23T16:41:47.999Z</time></trkpt><trkpt lat="47.79547511589117" lon="-1.7418218677602642"><ele>46.0</ele><time>2026-04-23T16:41:48.999Z</time></trkpt><trkpt lat="47.79526349613355" lon="-1.7417861591889403"><ele>45.66666666666667</ele><time>2026-04-23T16:41:49.999Z</time></trkpt><trkpt lat="47.79505011249144" lon="-1.7417444424221262"><ele>45.333333333333336</ele><time>2026-04-23T16:41:50.999Z</time></trkpt><trkpt lat="47.79483203988561" lon="-1.7416950322696867"><ele>45.0</ele><time>2026-04-23T16:41:51.999Z</time></trkpt><trkpt lat="47.79461338675313" lon="-1.7416492756840747"><ele>45.0</ele><time>2026-04-23T16:41:52.999Z</time></trkpt><trkpt lat="47.79438796912441" lon="-1.7416111884694017"><ele>45.0</ele><time>2026-04-23T16:41:53.999Z</time></trkpt><trkpt lat="47.79416797664101" lon="-1.7415852063479194"><ele>45.0</ele><time>2026-04-23T16:41:54.999Z</time></trkpt><trkpt lat="47.793954373501926" lon="-1.741532873178888"><ele>45.0</ele><time>2026-04-23T16:41:55.999Z</time></trkpt><trkpt lat="47.79373543981917" lon="-1.7414950401309874"><ele>45.0</ele><time>2026-04-23T16:41:56.999Z</time></trkpt><trkpt lat="47.79351147181139" lon="-1.741437002632916"><ele>45.0</ele><time>2026-04-23T16:41:57.999Z</time></trkpt><trkpt lat="47.79331121730994" lon="-1.741390120181243"><ele>45.0</ele><time>2026-04-23T16:41:59Z</time></trkpt><trkpt lat="47.79309163350315" lon="-1.7413610116652685"><ele>45.0</ele><time>2026-04-23T16:42:00Z</time></trkpt><trkpt lat="47.792884798519076" lon="-1.7413065006456068"><ele>45.0</ele><time>2026-04-23T16:42:01Z</time></trkpt><trkpt lat="47.792673832242" lon="-1.7412725679912087"><ele>45.666666666666664</ele><time>2026-04-23T16:42:02Z</time></trkpt><trkpt lat="47.79246753268983" lon="-1.7412166242534217"><ele>46.33333333333333</ele><time>2026-04-23T16:42:03Z</time></trkpt><trkpt lat="47.79225673161893" lon="-1.7411957773680515"><ele>47.0</ele><time>2026-04-23T16:42:04Z</time></trkpt><trkpt lat="47.79204701272692" lon="-1.7411569263192903"><ele>47.0</ele><time>2026-04-23T16:42:05Z</time></trkpt><trkpt lat="47.791842252996716" lon="-1.741102520790508"><ele>47.0</ele><time>2026-04-23T16:42:06Z</time></trkpt><trkpt lat="47.79163799242525" lon="-1.7411052094337445"><ele>47.0</ele><time>2026-04-23T16:42:07Z</time></trkpt><trkpt lat="47.79144234268568" lon="-1.741108328580248"><ele>48.0</ele><time>2026-04-23T16:42:08Z</time></trkpt><trkpt lat="47.791242179695466" lon="-1.7411365527759064"><ele>49.0</ele><time>2026-04-23T16:42:09Z</time></trkpt><trkpt lat="47.79103820020843" lon="-1.7411771343943792"><ele>50.0</ele><time>2026-04-23T16:42:10Z</time></trkpt><trkpt lat="47.79081072420794" lon="-1.7412053999127877"><ele>51.0</ele><time>2026-04-23T16:42:11Z</time></trkpt><trkpt lat="47.79060153475772" lon="-1.7412673554460971"><ele>52.0</ele><time>2026-04-23T16:42:12Z</time></trkpt><trkpt lat="47.79038328482106" lon="-1.7413156120053441"><ele>53.0</ele><time>2026-04-23T16:42:13Z</time></trkpt><trkpt lat="47.79016513952873" lon="-1.741369739939919"><ele>54.0</ele><time>2026-04-23T16:42:14Z</time></trkpt><trkpt lat="47.78995694914177" lon="-1.7414230938452104"><ele>55.0</ele><time>2026-04-23T16:42:15Z</time></trkpt><trkpt lat="47.78974252062235" lon="-1.7414535574930758"><ele>56.0</ele><time>2026-04-23T16:42:16Z</time></trkpt><trkpt lat="47.789539361957104" lon="-1.7415101943429463"><ele>57.0</ele><time>2026-04-23T16:42:17Z</time></trkpt><trkpt lat="47.789330525380194" lon="-1.7415936559280343"><ele>58.0</ele><time>2026-04-23T16:42:18Z</time></trkpt><trkpt lat="47.78912783683329" lon="-1.7416390180119639"><ele>59.0</ele><time>2026-04-23T16:42:19Z</time></trkpt><trkpt lat="47.788919572163294" lon="-1.7416938580994297"><ele>59.0</ele><time>2026-04-23T16:42:20Z</time></trkpt><trkpt lat="47.78870822728065" lon="-1.7417363896462088"><ele>59.0</ele><time>2026-04-23T16:42:21Z</time></trkpt><trkpt lat="47.7884986189216" lon="-1.741777315975863"><ele>59.0</ele><time>2026-04-23T16:42:22Z</time></trkpt><trkpt lat="47.788291534643406" lon="-1.7418204993514756"><ele>59.66666666666667</ele><time>2026-04-23T16:42:23Z</time></trkpt><trkpt lat="47.788081329772275" lon="-1.7418741068897003"><ele>60.33333333333333</ele><time>2026-04-23T16:42:24Z</time></trkpt><trkpt lat="47.787870146248416" lon="-1.7419177532810641"><ele>61.0</ele><time>2026-04-23T16:42:25Z</time></trkpt><trkpt lat="47.78766648884773" lon="-1.7419582868484527"><ele>63.0</ele><time>2026-04-23T16:42:26Z</time></trkpt><trkpt lat="47.78745464520079" lon="-1.7420070616540728"><ele>65.0</ele><time>2026-04-23T16:42:27Z</time></trkpt><trkpt lat="47.78724221489159" lon="-1.7420532211811135"><ele>67.0</ele><time>2026-04-23T16:42:28Z</time></trkpt><trkpt lat="47.787034977424206" lon="-1.7421032279828752"><ele>68.33333333333333</ele><time>2026-04-23T16:42:29Z</time></trkpt><trkpt lat="47.786832501132146" lon="-1.7421378376726866"><ele>69.66666666666667</ele><time>2026-04-23T16:42:30Z</time></trkpt><trkpt lat="47.78661116697385" lon="-1.7422246719822612"><ele>71.0</ele><time>2026-04-23T16:42:31Z</time></trkpt><trkpt lat="47.786409748817" lon="-1.7422899566400585"><ele>71.0</ele><time>2026-04-23T16:42:32Z</time></trkpt><trkpt lat="47.78621037477734" lon="-1.7422953636187413"><ele>71.0</ele><time>2026-04-23T16:42:33Z</time></trkpt><trkpt lat="47.785988313440754" lon="-1.7422977581598647"><ele>71.0</ele><time>2026-04-23T16:42:34Z</time></trkpt><trkpt lat="47.78577115484852" lon="-1.7422879181618696"><ele>71.66666666666667</ele><time>2026-04-23T16:42:35Z</time></trkpt><trkpt lat="47.785554039500916" lon="-1.7422537199090458"><ele>72.33333333333333</ele><time>2026-04-23T16:42:36Z</time></trkpt><trkpt lat="47.78535724228384" lon="-1.7422053775672328"><ele>73.0</ele><time>2026-04-23T16:42:37Z</time></trkpt><trkpt lat="47.78513050308972" lon="-1.7421217233643311"><ele>71.0</ele><time>2026-04-23T16:42:38Z</time></trkpt><trkpt lat="47.78489473502244" lon="-1.7420186974180951"><ele>69.0</ele><time>2026-04-23T16:42:39Z</time></trkpt><trkpt lat="47.784659248347836" lon="-1.7419407061681735"><ele>70.0</ele><time>2026-04-23T16:42:40Z</time></trkpt><trkpt lat="47.78445907062922" lon="-1.7418322096879817"><ele>71.0</ele><time>2026-04-23T16:42:41Z</time></trkpt><trkpt lat="47.784198777051486" lon="-1.7417024447861145"><ele>71.0</ele><time>2026-04-23T16:42:42Z</time></trkpt><trkpt lat="47.784006579930455" lon="-1.7416189923567906"><ele>71.0</ele><time>2026-04-23T16:42:43Z</time></trkpt><trkpt lat="47.78379398975835" lon="-1.741508212965215"><ele>71.0</ele><time>2026-04-23T16:42:44Z</time></trkpt><trkpt lat="47.78359053311527" lon="-1.7414146647940594"><ele>73.0</ele><time>2026-04-23T16:42:45Z</time></trkpt><trkpt lat="47.78339179897252" lon="-1.741320060152334"><ele>75.0</ele><time>2026-04-23T16:42:46Z</time></trkpt><trkpt lat="47.78318508484705" lon="-1.7412249964692266"><ele>77.0</ele><time>2026-04-23T16:42:47Z</time></trkpt><trkpt lat="47.7829686828437" lon="-1.7411562623160952"><ele>77.0</ele><time>2026-04-23T16:42:48Z</time></trkpt><trkpt lat="47.78273878492717" lon="-1.741147596710144"><ele>77.0</ele><time>2026-04-23T16:42:49Z</time></trkpt><trkpt lat="47.782533176767096" lon="-1.741157341285614"><ele>77.0</ele><time>2026-04-23T16:42:50Z</time></trkpt><trkpt lat="47.7823393351612" lon="-1.7412051438387344"><ele>77.66666666666667</ele><time>2026-04-23T16:42:51Z</time></trkpt><trkpt lat="47.78213410220445" lon="-1.7412802092708395"><ele>78.33333333333333</ele><time>2026-04-23T16:42:52Z</time></trkpt><trkpt lat="47.78191659433347" lon="-1.7413887276439914"><ele>79.0</ele><time>2026-04-23T16:42:53Z</time></trkpt><trkpt lat="47.7817087570821" lon="-1.7414755455853579"><ele>77.0</ele><time>2026-04-23T16:42:54Z</time></trkpt><trkpt lat="47.78149364793791" lon="-1.7415816909592996"><ele>75.0</ele><time>2026-04-23T16:42:55Z</time></trkpt><trkpt lat="47.78127965877921" lon="-1.741690101173119"><ele>75.0</ele><time>2026-04-23T16:42:56Z</time></trkpt><trkpt lat="47.78106446871308" lon="-1.741792802296797"><ele>75.0</ele><time>2026-04-23T16:42:57Z</time></trkpt><trkpt lat="47.78085340932107" lon="-1.7418967936508007"><ele>75.0</ele><time>2026-04-23T16:42:58Z</time></trkpt><trkpt lat="47.7806383442323" lon="-1.7419966186334526"><ele>76.66666666666667</ele><time>2026-04-23T16:42:59Z</time></trkpt><trkpt lat="47.780420132773486" lon="-1.7420941960016747"><ele>78.33333333333334</ele><time>2026-04-23T16:43:00Z</time></trkpt><trkpt lat="47.78021620269137" lon="-1.7422027982700563"><ele>80.0</ele><time>2026-04-23T16:43:01Z</time></trkpt><trkpt lat="47.7800057748731" lon="-1.7423199885414673"><ele>80.33333333333334</ele><time>2026-04-23T16:43:02Z</time></trkpt><trkpt lat="47.779789359827" lon="-1.7424172547270063"><ele>80.66666666666667</ele><time>2026-04-23T16:43:03Z</time></trkpt><trkpt lat="47.77958222156238" lon="-1.742518425117105"><ele>81.0</ele><time>2026-04-23T16:43:04Z</time></trkpt><trkpt lat="47.77940808452913" lon="-1.7426313309213708"><ele>81.0</ele><time>2026-04-23T16:43:05Z</time></trkpt><trkpt lat="47.77922699790658" lon="-1.7427046644562936"><ele>81.0</ele><time>2026-04-23T16:43:06Z</time></trkpt><trkpt lat="47.77903726262687" lon="-1.7427862835474628"><ele>81.0</ele><time>2026-04-23T16:43:07Z</time></trkpt><trkpt lat="47.77885064590626" lon="-1.7428698856908025"><ele>81.0</ele><time>2026-04-23T16:43:08Z</time></trkpt><trkpt lat="47.77866197277102" lon="-1.7429596352746282"><ele>81.0</ele><time>2026-04-23T16:43:09Z</time></trkpt><trkpt lat="47.778467557229156" lon="-1.7430450420005486"><ele>81.0</ele><time>2026-04-23T16:43:10Z</time></trkpt><trkpt lat="47.77828307023285" lon="-1.7431350507200556"><ele>80.66666666666667</ele><time>2026-04-23T16:43:11Z</time></trkpt><trkpt lat="47.778119930320635" lon="-1.7432153743126504"><ele>80.33333333333334</ele><time>2026-04-23T16:43:12Z</time></trkpt><trkpt lat="47.777961054287395" lon="-1.743273934880641"><ele>80.0</ele><time>2026-04-23T16:43:13Z</time></trkpt><trkpt lat="47.77780129367646" lon="-1.7433420885820246"><ele>80.0</ele><time>2026-04-23T16:43:14Z</time></trkpt><trkpt lat="47.777640668375675" lon="-1.7434194447194233"><ele>80.0</ele><time>2026-04-23T16:43:15Z</time></trkpt><trkpt lat="47.77750102688311" lon="-1.7434940696262495"><ele>80.0</ele><time>2026-04-23T16:43:16Z</time></trkpt><trkpt lat="47.777376659806684" lon="-1.7435576148299166"><ele>80.0</ele><time>2026-04-23T16:43:17Z</time></trkpt><trkpt lat="47.7772452945871" lon="-1.7436022656901484"><ele>79.75</ele><time>2026-04-23T16:43:18Z</time></trkpt><trkpt lat="47.7771240918811" lon="-1.7436834197092754"><ele>79.5</ele><time>2026-04-23T16:43:19Z</time></trkpt><trkpt lat="47.777005828289276" lon="-1.7437410917381289"><ele>79.25</ele><time>2026-04-23T16:43:20Z</time></trkpt><trkpt lat="47.77688460231789" lon="-1.7437774553099399"><ele>79.0</ele><time>2026-04-23T16:43:21Z</time></trkpt><trkpt lat="47.776760726927314" lon="-1.7438348115673512"><ele>78.66666666666666</ele><time>2026-04-23T16:43:22Z</time></trkpt><trkpt lat="47.776635365667005" lon="-1.7439198134570961"><ele>78.33333333333333</ele><time>2026-04-23T16:43:23Z</time></trkpt><trkpt lat="47.776497568035495" lon="-1.7439850551832714"><ele>78.0</ele><time>2026-04-23T16:43:24Z</time></trkpt><trkpt lat="47.776336562131675" lon="-1.7440603580217868"><ele>78.0</ele><time>2026-04-23T16:43:25Z</time></trkpt><trkpt lat="47.77616850474368" lon="-1.7441411207166526"><ele>78.0</ele><time>2026-04-23T16:43:25.999Z</time></trkpt><trkpt lat="47.77599092879814" lon="-1.744224087690016"><ele>78.0</ele><time>2026-04-23T16:43:26.999Z</time></trkpt><trkpt lat="47.77580592017328" lon="-1.7442940165640946"><ele>77.33333333333333</ele><time>2026-04-23T16:43:27.999Z</time></trkpt><trkpt lat="47.77561821278509" lon="-1.7443777404806171"><ele>76.66666666666666</ele><time>2026-04-23T16:43:28.999Z</time></trkpt><trkpt lat="47.775419499186086" lon="-1.7444530819929631"><ele>76.0</ele><time>2026-04-23T16:43:29.999Z</time></trkpt><trkpt lat="47.775228351412295" lon="-1.744515651474769"><ele>75.33333333333333</ele><time>2026-04-23T16:43:30.999Z</time></trkpt><trkpt lat="47.77503258126961" lon="-1.7445959523337569"><ele>74.66666666666667</ele><time>2026-04-23T16:43:31.999Z</time></trkpt><trkpt lat="47.77483498575933" lon="-1.744655767223667"><ele>74.0</ele><time>2026-04-23T16:43:32.999Z</time></trkpt><trkpt lat="47.77464051066958" lon="-1.7447077377974802"><ele>74.0</ele><time>2026-04-23T16:43:33.999Z</time></trkpt><trkpt lat="47.77444691850466" lon="-1.7447827682052712"><ele>74.0</ele><time>2026-04-23T16:43:34.999Z</time></trkpt><trkpt lat="47.77426252736773" lon="-1.7448607492451136"><ele>74.0</ele><time>2026-04-23T16:43:35.999Z</time></trkpt><trkpt lat="47.7740729351984" lon="-1.744933754678149"><ele>75.0</ele><time>2026-04-23T16:43:36.999Z</time></trkpt><trkpt lat="47.77389000640831" lon="-1.7450039572885887"><ele>76.0</ele><time>2026-04-23T16:43:37.999Z</time></trkpt><trkpt lat="47.77370599224916" lon="-1.7450800219182785"><ele>77.0</ele><time>2026-04-23T16:43:38.999Z</time></trkpt><trkpt lat="47.773516146230065" lon="-1.745139345272742"><ele>78.0</ele><time>2026-04-23T16:43:39.999Z</time></trkpt><trkpt lat="47.773336944139274" lon="-1.745203548845175"><ele>79.0</ele><time>2026-04-23T16:43:40.999Z</time></trkpt><trkpt lat="47.773153323758486" lon="-1.745263300070134"><ele>80.0</ele><time>2026-04-23T16:43:41.999Z</time></trkpt><trkpt lat="47.772969394548134" lon="-1.745325787443133"><ele>80.33333333333334</ele><time>2026-04-23T16:43:42.999Z</time></trkpt><trkpt lat="47.772784873764856" lon="-1.7453962345891834"><ele>80.66666666666667</ele><time>2026-04-23T16:43:43.999Z</time></trkpt><trkpt lat="47.77259903482792" lon="-1.745475177325451"><ele>81.0</ele><time>2026-04-23T16:43:44.999Z</time></trkpt><trkpt lat="47.772415648954194" lon="-1.7455271683514328"><ele>81.75</ele><time>2026-04-23T16:43:45.999Z</time></trkpt><trkpt lat="47.772254102587254" lon="-1.7455801646779388"><ele>82.5</ele><time>2026-04-23T16:43:46.999Z</time></trkpt><trkpt lat="47.772111684936455" lon="-1.7456311367368162"><ele>83.25</ele><time>2026-04-23T16:43:47.999Z</time></trkpt><trkpt lat="47.77198432460585" lon="-1.7456726376286908"><ele>84.0</ele><time>2026-04-23T16:43:48.999Z</time></trkpt><trkpt lat="47.77188269708766" lon="-1.745700907039405"><ele>84.4</ele><time>2026-04-23T16:43:49.999Z</time></trkpt><trkpt lat="47.77178557240225" lon="-1.745733444853167"><ele>84.80000000000001</ele><time>2026-04-23T16:43:50.999Z</time></trkpt><trkpt lat="47.77170369354171" lon="-1.7457677583720457"><ele>85.19999999999999</ele><time>2026-04-23T16:43:51.999Z</time></trkpt><trkpt lat="47.77162164528355" lon="-1.7457823899073512"><ele>85.6</ele><time>2026-04-23T16:43:52.999Z</time></trkpt><trkpt lat="47.77153696583454" lon="-1.7458119877930416"><ele>86.0</ele><time>2026-04-23T16:43:54.999Z</time></trkpt><trkpt lat="47.77148731141944" lon="-1.745438198449877"><ele>86.0</ele><time>2026-04-23T16:43:56.999Z</time></trkpt><trkpt lat="47.771481798230745" lon="-1.7452950803469458"><ele>86.0</ele><time>2026-04-23T16:43:57.999Z</time></trkpt><trkpt lat="47.77146069578994" lon="-1.7451460617563104"><ele>86.0</ele><time>2026-04-23T16:43:58.999Z</time></trkpt><trkpt lat="47.77145266261191" lon="-1.7449863054285397"><ele>86.0</ele><time>2026-04-23T16:43:59.999Z</time></trkpt><trkpt lat="47.77144260835893" lon="-1.7447931525798306"><ele>86.0</ele><time>2026-04-23T16:44:00.999Z</time></trkpt><trkpt lat="47.77144408509811" lon="-1.7445884796667552"><ele>85.25</ele><time>2026-04-23T16:44:01.999Z</time></trkpt><trkpt lat="47.77141739771112" lon="-1.744370087583553"><ele>84.5</ele><time>2026-04-23T16:44:02.999Z</time></trkpt><trkpt lat="47.77140466862823" lon="-1.744140496307385"><ele>83.75</ele><time>2026-04-23T16:44:03.999Z</time></trkpt><trkpt lat="47.77141062120353" lon="-1.743927604092339"><ele>83.0</ele><time>2026-04-23T16:44:05Z</time></trkpt><trkpt lat="47.77138217904869" lon="-1.743707046577575"><ele>83.0</ele><time>2026-04-23T16:44:06Z</time></trkpt><trkpt lat="47.771374053789565" lon="-1.7434888526918098"><ele>83.0</ele><time>2026-04-23T16:44:07Z</time></trkpt><trkpt lat="47.77134565841189" lon="-1.7433074692690678"><ele>83.0</ele><time>2026-04-23T16:44:08Z</time></trkpt><trkpt lat="47.771290380627136" lon="-1.7431364736785349"><ele>83.0</ele><time>2026-04-23T16:44:09Z</time></trkpt><trkpt lat="47.77119451532085" lon="-1.7429766900344092"><ele>83.0</ele><time>2026-04-23T16:44:10Z</time></trkpt><trkpt lat="47.771083901437045" lon="-1.7428105868496948"><ele>83.0</ele><time>2026-04-23T16:44:11Z</time></trkpt><trkpt lat="47.77096667256115" lon="-1.7426482072700626"><ele>83.0</ele><time>2026-04-23T16:44:12Z</time></trkpt><trkpt lat="47.77086671544264" lon="-1.7424851875813268"><ele>82.33333333333334</ele><time>2026-04-23T16:44:13Z</time></trkpt><trkpt lat="47.7707772327484" lon="-1.7422829188336566"><ele>81.66666666666667</ele><time>2026-04-23T16:44:14Z</time></trkpt><trkpt lat="47.77070123238403" lon="-1.7420708086021195"><ele>81.0</ele><time>2026-04-23T16:44:15Z</time></trkpt><trkpt lat="47.7706236704188" lon="-1.741871651272137"><ele>81.0</ele><time>2026-04-23T16:44:16Z</time></trkpt><trkpt lat="47.77054360512459" lon="-1.7416308508847878"><ele>81.0</ele><time>2026-04-23T16:44:17Z</time></trkpt><trkpt lat="47.77046556817948" lon="-1.7413843291513493"><ele>81.0</ele><time>2026-04-23T16:44:18Z</time></trkpt><trkpt lat="47.77039713128225" lon="-1.7411271928051502"><ele>79.66666666666667</ele><time>2026-04-23T16:44:19Z</time></trkpt><trkpt lat="47.77033644322321" lon="-1.740869105090751"><ele>78.33333333333334</ele><time>2026-04-23T16:44:20Z</time></trkpt><trkpt lat="47.77026639302514" lon="-1.7406125293055734"><ele>77.0</ele><time>2026-04-23T16:44:21Z</time></trkpt><trkpt lat="47.7701913634402" lon="-1.7403909134186935"><ele>76.0</ele><time>2026-04-23T16:44:22Z</time></trkpt><trkpt lat="47.770125206895344" lon="-1.7401534390524145"><ele>75.0</ele><time>2026-04-23T16:44:23Z</time></trkpt><trkpt lat="47.77007870371745" lon="-1.7399239124552597"><ele>74.0</ele><time>2026-04-23T16:44:24Z</time></trkpt><trkpt lat="47.770021497522066" lon="-1.739673607881766"><ele>74.0</ele><time>2026-04-23T16:44:25Z</time></trkpt><trkpt lat="47.76997145572752" lon="-1.7393995852301882"><ele>74.0</ele><time>2026-04-23T16:44:26Z</time></trkpt><trkpt lat="47.76995754894359" lon="-1.7391114685712297"><ele>74.0</ele><time>2026-04-23T16:44:27Z</time></trkpt><trkpt lat="47.7699539334112" lon="-1.7388181241487302"><ele>73.66666666666667</ele><time>2026-04-23T16:44:28Z</time></trkpt><trkpt lat="47.76992175070886" lon="-1.7385724709312746"><ele>73.33333333333333</ele><time>2026-04-23T16:44:29Z</time></trkpt><trkpt lat="47.7698682087366" lon="-1.7383451788811264"><ele>73.0</ele><time>2026-04-23T16:44:30Z</time></trkpt><trkpt lat="47.76980648018256" lon="-1.7381045825187882"><ele>72.66666666666666</ele><time>2026-04-23T16:44:31Z</time></trkpt><trkpt lat="47.76974655730388" lon="-1.7378667779047583"><ele>72.33333333333333</ele><time>2026-04-23T16:44:32Z</time></trkpt><trkpt lat="47.769697180942146" lon="-1.7376127866223021"><ele>72.0</ele><time>2026-04-23T16:44:33Z</time></trkpt><trkpt lat="47.769620511505174" lon="-1.7373779764389603"><ele>72.0</ele><time>2026-04-23T16:44:34Z</time></trkpt><trkpt lat="47.76955389894797" lon="-1.7371283609023906"><ele>72.0</ele><time>2026-04-23T16:44:35Z</time></trkpt><trkpt lat="47.769496156354315" lon="-1.7369057850666745"><ele>72.0</ele><time>2026-04-23T16:44:36Z</time></trkpt><trkpt lat="47.76945487257445" lon="-1.7366948634322499"><ele>71.75</ele><time>2026-04-23T16:44:37Z</time></trkpt><trkpt lat="47.76939929705184" lon="-1.7365179122779717"><ele>71.5</ele><time>2026-04-23T16:44:38Z</time></trkpt><trkpt lat="47.7693163960755" lon="-1.7364019482591873"><ele>71.25</ele><time>2026-04-23T16:44:39Z</time></trkpt><trkpt lat="47.769233745258184" lon="-1.736251374416279"><ele>71.0</ele><time>2026-04-23T16:44:40Z</time></trkpt><trkpt lat="47.76914882823918" lon="-1.7361025050476613"><ele>73.0</ele><time>2026-04-23T16:44:41Z</time></trkpt><trkpt lat="47.76905590801805" lon="-1.735956627030636"><ele>75.0</ele><time>2026-04-23T16:44:42Z</time></trkpt><trkpt lat="47.76895551070031" lon="-1.73580070808303"><ele>77.0</ele><time>2026-04-23T16:44:43Z</time></trkpt><trkpt lat="47.76885211225248" lon="-1.7356394584763195"><ele>79.0</ele><time>2026-04-23T16:44:44Z</time></trkpt><trkpt lat="47.76876066993848" lon="-1.7354592859714035"><ele>79.0</ele><time>2026-04-23T16:44:45Z</time></trkpt><trkpt lat="47.76865208495364" lon="-1.7352887617720585"><ele>79.0</ele><time>2026-04-23T16:44:46Z</time></trkpt><trkpt lat="47.768541305873356" lon="-1.735109098166576"><ele>79.0</ele><time>2026-04-23T16:44:47Z</time></trkpt><trkpt lat="47.768428823998576" lon="-1.7349545832142272"><ele>79.66666666666666</ele><time>2026-04-23T16:44:48Z</time></trkpt><trkpt lat="47.76831391657695" lon="-1.734802057469848"><ele>80.33333333333333</ele><time>2026-04-23T16:44:49Z</time></trkpt><trkpt lat="47.76819657071267" lon="-1.734639949578082"><ele>81.0</ele><time>2026-04-23T16:44:50Z</time></trkpt><trkpt lat="47.76808689259838" lon="-1.7344829544791232"><ele>80.33333333333333</ele><time>2026-04-23T16:44:51Z</time></trkpt><trkpt lat="47.76797658274406" lon="-1.734327993445826"><ele>79.66666666666666</ele><time>2026-04-23T16:44:52Z</time></trkpt><trkpt lat="47.76786064836251" lon="-1.7341778741380578"><ele>79.0</ele><time>2026-04-23T16:44:53Z</time></trkpt><trkpt lat="47.76776321462398" lon="-1.7339905437484462"><ele>79.0</ele><time>2026-04-23T16:44:54Z</time></trkpt><trkpt lat="47.76764886531593" lon="-1.733787838938056"><ele>79.0</ele><time>2026-04-23T16:44:55Z</time></trkpt><trkpt lat="47.76755458636707" lon="-1.7335734099348492"><ele>79.0</ele><time>2026-04-23T16:44:56Z</time></trkpt><trkpt lat="47.76746617973196" lon="-1.733357021534021"><ele>77.75</ele><time>2026-04-23T16:44:57Z</time></trkpt><trkpt lat="47.76738369236884" lon="-1.7331569364251311"><ele>76.5</ele><time>2026-04-23T16:44:58Z</time></trkpt><trkpt lat="47.76729055035145" lon="-1.7329961173207946"><ele>75.25</ele><time>2026-04-23T16:44:59Z</time></trkpt><trkpt lat="47.76721184393928" lon="-1.732899671078183"><ele>74.0</ele><time>2026-04-23T16:45:00Z</time></trkpt><trkpt lat="47.767105717819405" lon="-1.732767608681064"><ele>73.0</ele><time>2026-04-23T16:45:01Z</time></trkpt><trkpt lat="47.766955061232466" lon="-1.7326823108859453"><ele>72.0</ele><time>2026-04-23T16:45:02Z</time></trkpt><trkpt lat="47.76679846461454" lon="-1.7325727379483409"><ele>71.0</ele><time>2026-04-23T16:45:03Z</time></trkpt><trkpt lat="47.766653040233514" lon="-1.7324890265666395"><ele>70.66666666666667</ele><time>2026-04-23T16:45:04Z</time></trkpt><trkpt lat="47.76648485847789" lon="-1.732403813270654"><ele>70.33333333333333</ele><time>2026-04-23T16:45:05Z</time></trkpt><trkpt lat="47.766318593608396" lon="-1.7323203905646924"><ele>70.0</ele><time>2026-04-23T16:45:06Z</time></trkpt><trkpt lat="47.76615211752885" lon="-1.7322193681338027"><ele>68.66666666666666</ele><time>2026-04-23T16:45:07Z</time></trkpt><trkpt lat="47.76597934130175" lon="-1.732147228226903"><ele>67.33333333333333</ele><time>2026-04-23T16:45:08Z</time></trkpt><trkpt lat="47.76580644891725" lon="-1.732050762812087"><ele>66.0</ele><time>2026-04-23T16:45:09Z</time></trkpt><trkpt lat="47.765631980752396" lon="-1.7319671735700704"><ele>65.0</ele><time>2026-04-23T16:45:10Z</time></trkpt><trkpt lat="47.7654561576297" lon="-1.731878842286794"><ele>64.0</ele><time>2026-04-23T16:45:11Z</time></trkpt><trkpt lat="47.76528156050297" lon="-1.7317902355246135"><ele>63.0</ele><time>2026-04-23T16:45:12Z</time></trkpt><trkpt lat="47.76509649534363" lon="-1.7316989723052516"><ele>61.66666666666667</ele><time>2026-04-23T16:45:13Z</time></trkpt><trkpt lat="47.7649174633437" lon="-1.7316041381108565"><ele>60.333333333333336</ele><time>2026-04-23T16:45:14Z</time></trkpt><trkpt lat="47.76473002496595" lon="-1.7314578049057376"><ele>59.0</ele><time>2026-04-23T16:45:15Z</time></trkpt><trkpt lat="47.76454658300822" lon="-1.731324561428143"><ele>57.333333333333336</ele><time>2026-04-23T16:45:16Z</time></trkpt><trkpt lat="47.76435543736965" lon="-1.7311591071668082"><ele>55.66666666666667</ele><time>2026-04-23T16:45:17Z</time></trkpt><trkpt lat="47.76416846399095" lon="-1.7310245213975837"><ele>54.0</ele><time>2026-04-23T16:45:18Z</time></trkpt><trkpt lat="47.76397858290072" lon="-1.7308740044512447"><ele>53.0</ele><time>2026-04-23T16:45:19Z</time></trkpt><trkpt lat="47.763795440960074" lon="-1.7307317790937726"><ele>52.0</ele><time>2026-04-23T16:45:19.999Z</time></trkpt><trkpt lat="47.76361086631765" lon="-1.730594821421656"><ele>51.0</ele><time>2026-04-23T16:45:20.999Z</time></trkpt><trkpt lat="47.76342371287104" lon="-1.7304435151520776"><ele>48.333333333333336</ele><time>2026-04-23T16:45:21.999Z</time></trkpt><trkpt lat="47.76323253841427" lon="-1.730325130724026"><ele>45.66666666666667</ele><time>2026-04-23T16:45:22.999Z</time></trkpt><trkpt lat="47.76306708349418" lon="-1.7301945187709673"><ele>43.0</ele><time>2026-04-23T16:45:23.999Z</time></trkpt><trkpt lat="47.762895709545965" lon="-1.7300594396622262"><ele>42.333333333333336</ele><time>2026-04-23T16:45:24.999Z</time></trkpt><trkpt lat="47.76271658403558" lon="-1.729921094287175"><ele>41.666666666666664</ele><time>2026-04-23T16:45:25.999Z</time></trkpt><trkpt lat="47.76253599097237" lon="-1.7297844974735594"><ele>41.0</ele><time>2026-04-23T16:45:26.999Z</time></trkpt><trkpt lat="47.76236172612796" lon="-1.729651190080278"><ele>39.33333333333333</ele><time>2026-04-23T16:45:27.999Z</time></trkpt><trkpt lat="47.76219859881298" lon="-1.729527215873131"><ele>37.666666666666664</ele><time>2026-04-23T16:45:28.999Z</time></trkpt><trkpt lat="47.76204653461149" lon="-1.729397850261313"><ele>36.0</ele><time>2026-04-23T16:45:29.999Z</time></trkpt><trkpt lat="47.76186886339829" lon="-1.729323215005876"><ele>34.333333333333336</ele><time>2026-04-23T16:45:30.999Z</time></trkpt><trkpt lat="47.76168579710436" lon="-1.7292584954368657"><ele>32.66666666666667</ele><time>2026-04-23T16:45:31.999Z</time></trkpt><trkpt lat="47.76150084760112" lon="-1.7292163459878063"><ele>31.0</ele><time>2026-04-23T16:45:32.999Z</time></trkpt><trkpt lat="47.76131113862427" lon="-1.7291710936728464"><ele>31.0</ele><time>2026-04-23T16:45:33.999Z</time></trkpt><trkpt lat="47.76110976201686" lon="-1.7291187588318733"><ele>31.0</ele><time>2026-04-23T16:45:34.999Z</time></trkpt><trkpt lat="47.760915018397" lon="-1.7290625801390933"><ele>31.0</ele><time>2026-04-23T16:45:35.999Z</time></trkpt><trkpt lat="47.7607100264965" lon="-1.7290086238387317"><ele>31.0</ele><time>2026-04-23T16:45:36.999Z</time></trkpt><trkpt lat="47.76049801392884" lon="-1.7289256407722369"><ele>31.0</ele><time>2026-04-23T16:45:37.999Z</time></trkpt><trkpt lat="47.76028824639344" lon="-1.7288645325182892"><ele>31.0</ele><time>2026-04-23T16:45:38.999Z</time></trkpt><trkpt lat="47.76007767688526" lon="-1.7287830484578781"><ele>31.0</ele><time>2026-04-23T16:45:39.999Z</time></trkpt><trkpt lat="47.759866066131785" lon="-1.7287404672724522"><ele>31.0</ele><time>2026-04-23T16:45:40.999Z</time></trkpt><trkpt lat="47.75966556827852" lon="-1.7286916078800145"><ele>31.0</ele><time>2026-04-23T16:45:41.999Z</time></trkpt><trkpt lat="47.75948337019286" lon="-1.728613967084925"><ele>32.0</ele><time>2026-04-23T16:45:42.999Z</time></trkpt><trkpt lat="47.759290824261576" lon="-1.7285332235002964"><ele>33.0</ele><time>2026-04-23T16:45:43.999Z</time></trkpt><trkpt lat="47.75909188631832" lon="-1.7284596461685988"><ele>34.0</ele><time>2026-04-23T16:45:44.999Z</time></trkpt><trkpt lat="47.758900893407784" lon="-1.7284068776522092"><ele>34.0</ele><time>2026-04-23T16:45:45.999Z</time></trkpt><trkpt lat="47.758708857929975" lon="-1.7283395081112118"><ele>34.0</ele><time>2026-04-23T16:45:46.999Z</time></trkpt><trkpt lat="47.75851567073888" lon="-1.728271425788663"><ele>34.0</ele><time>2026-04-23T16:45:47.999Z</time></trkpt><trkpt lat="47.758319069453954" lon="-1.7282015594370552"><ele>35.0</ele><time>2026-04-23T16:45:48.999Z</time></trkpt><trkpt lat="47.758117791282224" lon="-1.7281432837347672"><ele>36.0</ele><time>2026-04-23T16:45:49.999Z</time></trkpt><trkpt lat="47.75791776831952" lon="-1.7280703694700168"><ele>37.0</ele><time>2026-04-23T16:45:50.999Z</time></trkpt><trkpt lat="47.757719526708954" lon="-1.7279751765578655"><ele>38.66666666666667</ele><time>2026-04-23T16:45:51.999Z</time></trkpt><trkpt lat="47.757507777908444" lon="-1.7278925685472746"><ele>40.333333333333336</ele><time>2026-04-23T16:45:52.999Z</time></trkpt><trkpt lat="47.757303785270985" lon="-1.7277841014865505"><ele>42.0</ele><time>2026-04-23T16:45:53.999Z</time></trkpt><trkpt lat="47.75710801962719" lon="-1.7276779601308796"><ele>42.0</ele><time>2026-04-23T16:45:54.999Z</time></trkpt><trkpt lat="47.756915545122936" lon="-1.7275819422168015"><ele>42.0</ele><time>2026-04-23T16:45:55.999Z</time></trkpt><trkpt lat="47.75672292516348" lon="-1.7274917114663086"><ele>42.0</ele><time>2026-04-23T16:45:56.999Z</time></trkpt><trkpt lat="47.756538560939454" lon="-1.7274049241564022"><ele>43.666666666666664</ele><time>2026-04-23T16:45:57.999Z</time></trkpt><trkpt lat="47.756353503160966" lon="-1.727324737647941"><ele>45.33333333333333</ele><time>2026-04-23T16:45:58.999Z</time></trkpt><trkpt lat="47.75617271510874" lon="-1.7272325988064627"><ele>47.0</ele><time>2026-04-23T16:45:59.999Z</time></trkpt><trkpt lat="47.755975806844404" lon="-1.727135361672191"><ele>49.33333333333333</ele><time>2026-04-23T16:46:00.999Z</time></trkpt><trkpt lat="47.75578639891732" lon="-1.727052133141194"><ele>51.666666666666664</ele><time>2026-04-23T16:46:01.999Z</time></trkpt><trkpt lat="47.75559045107566" lon="-1.7269577191457761"><ele>54.0</ele><time>2026-04-23T16:46:02.999Z</time></trkpt><trkpt lat="47.75539821993313" lon="-1.7268489715583295"><ele>54.0</ele><time>2026-04-23T16:46:03.999Z</time></trkpt><trkpt lat="47.75521326807319" lon="-1.7267359815407595"><ele>54.0</ele><time>2026-04-23T16:46:04.999Z</time></trkpt><trkpt lat="47.75503457944226" lon="-1.7266130055340563"><ele>54.0</ele><time>2026-04-23T16:46:05.999Z</time></trkpt><trkpt lat="47.754849823997425" lon="-1.7264890234401071"><ele>57.0</ele><time>2026-04-23T16:46:06.999Z</time></trkpt><trkpt lat="47.754673011470324" lon="-1.7263194908232684"><ele>60.0</ele><time>2026-04-23T16:46:07.999Z</time></trkpt><trkpt lat="47.75449246698708" lon="-1.7261988748922117"><ele>63.0</ele><time>2026-04-23T16:46:08.999Z</time></trkpt><trkpt lat="47.7543427820628" lon="-1.726072274394403"><ele>65.33333333333333</ele><time>2026-04-23T16:46:09.999Z</time></trkpt><trkpt lat="47.754198177016725" lon="-1.725961927124284"><ele>67.66666666666666</ele><time>2026-04-23T16:46:11Z</time></trkpt><trkpt lat="47.75405504860257" lon="-1.7258743462537491"><ele>70.0</ele><time>2026-04-23T16:46:12Z</time></trkpt><trkpt lat="47.75388491054281" lon="-1.7258268846849003"><ele>70.0</ele><time>2026-04-23T16:46:13Z</time></trkpt><trkpt lat="47.75372145488155" lon="-1.7258151362490155"><ele>70.0</ele><time>2026-04-23T16:46:14Z</time></trkpt><trkpt lat="47.75354657559365" lon="-1.7258116121119513"><ele>70.0</ele><time>2026-04-23T16:46:15Z</time></trkpt><trkpt lat="47.75335097209446" lon="-1.7258082522481377"><ele>71.0</ele><time>2026-04-23T16:46:16Z</time></trkpt><trkpt lat="47.75315942463999" lon="-1.7258049620495042"><ele>72.0</ele><time>2026-04-23T16:46:17Z</time></trkpt><trkpt lat="47.75295326777527" lon="-1.7258014209096577"><ele>73.0</ele><time>2026-04-23T16:46:18Z</time></trkpt><trkpt lat="47.752739834235086" lon="-1.7257892290971486"><ele>72.33333333333333</ele><time>2026-04-23T16:46:19Z</time></trkpt><trkpt lat="47.752538426425346" lon="-1.725784891876183"><ele>71.66666666666667</ele><time>2026-04-23T16:46:20Z</time></trkpt><trkpt lat="47.75234146514676" lon="-1.725736151020786"><ele>71.0</ele><time>2026-04-23T16:46:21Z</time></trkpt><trkpt lat="47.752153014105005" lon="-1.7256609491672725"><ele>71.0</ele><time>2026-04-23T16:46:22Z</time></trkpt><trkpt lat="47.75196031547195" lon="-1.7255834431665498"><ele>71.0</ele><time>2026-04-23T16:46:23Z</time></trkpt><trkpt lat="47.75176827402977" lon="-1.7255170996948805"><ele>71.0</ele><time>2026-04-23T16:46:24Z</time></trkpt><trkpt lat="47.75157341053808" lon="-1.7254499228087876"><ele>73.0</ele><time>2026-04-23T16:46:25Z</time></trkpt><trkpt lat="47.751379946856844" lon="-1.7253734215506544"><ele>75.0</ele><time>2026-04-23T16:46:26Z</time></trkpt><trkpt lat="47.751182670753565" lon="-1.7252998702724827"><ele>77.0</ele><time>2026-04-23T16:46:27Z</time></trkpt><trkpt lat="47.75097257168786" lon="-1.7252156976835749"><ele>77.0</ele><time>2026-04-23T16:46:28Z</time></trkpt><trkpt lat="47.75077680542106" lon="-1.7251407065754638"><ele>77.0</ele><time>2026-04-23T16:46:29Z</time></trkpt><trkpt lat="47.75060550308262" lon="-1.7250556574149352"><ele>77.0</ele><time>2026-04-23T16:46:30Z</time></trkpt><trkpt lat="47.7504249002174" lon="-1.725002595832"><ele>77.0</ele><time>2026-04-23T16:46:31Z</time></trkpt><trkpt lat="47.75024345227508" lon="-1.7249579714953516"><ele>77.0</ele><time>2026-04-23T16:46:32Z</time></trkpt><trkpt lat="47.750052686701444" lon="-1.7249410608761584"><ele>77.0</ele><time>2026-04-23T16:46:33Z</time></trkpt><trkpt lat="47.7498471764948" lon="-1.7249405357750551"><ele>76.66666666666667</ele><time>2026-04-23T16:46:34Z</time></trkpt><trkpt lat="47.74964504873501" lon="-1.7249667048461177"><ele>76.33333333333333</ele><time>2026-04-23T16:46:35Z</time></trkpt><trkpt lat="47.7494378209502" lon="-1.7249839276287442"><ele>76.0</ele><time>2026-04-23T16:46:36Z</time></trkpt><trkpt lat="47.74922141623212" lon="-1.7250050200447213"><ele>74.66666666666666</ele><time>2026-04-23T16:46:37Z</time></trkpt><trkpt lat="47.74899636945109" lon="-1.725015159963783"><ele>73.33333333333333</ele><time>2026-04-23T16:46:38Z</time></trkpt><trkpt lat="47.74877666521289" lon="-1.725028741154976"><ele>72.0</ele><time>2026-04-23T16:46:39Z</time></trkpt><trkpt lat="47.74856612412889" lon="-1.7250381955040193"><ele>71.0</ele><time>2026-04-23T16:46:40Z</time></trkpt><trkpt lat="47.74834436394889" lon="-1.72504482841559"><ele>70.0</ele><time>2026-04-23T16:46:41Z</time></trkpt><trkpt lat="47.74813510415355" lon="-1.72504459305282"><ele>69.0</ele><time>2026-04-23T16:46:42Z</time></trkpt><trkpt lat="47.74792441638889" lon="-1.725070618947299"><ele>69.0</ele><time>2026-04-23T16:46:43Z</time></trkpt><trkpt lat="47.747709043710564" lon="-1.7250741296284728"><ele>69.0</ele><time>2026-04-23T16:46:44Z</time></trkpt><trkpt lat="47.74749333799996" lon="-1.7250871915430468"><ele>69.0</ele><time>2026-04-23T16:46:45Z</time></trkpt><trkpt lat="47.74728104070426" lon="-1.7250998564163087"><ele>69.0</ele><time>2026-04-23T16:46:46Z</time></trkpt><trkpt lat="47.747074875951505" lon="-1.7251110263530889"><ele>69.0</ele><time>2026-04-23T16:46:47Z</time></trkpt><trkpt lat="47.74686785046376" lon="-1.7251210204486467"><ele>69.0</ele><time>2026-04-23T16:46:48Z</time></trkpt><trkpt lat="47.7466601553946" lon="-1.7251287590623503"><ele>69.33333333333333</ele><time>2026-04-23T16:46:49Z</time></trkpt><trkpt lat="47.7464469159581" lon="-1.7251431544783744"><ele>69.66666666666666</ele><time>2026-04-23T16:46:50Z</time></trkpt><trkpt lat="47.74622526649355" lon="-1.725159572826484"><ele>70.0</ele><time>2026-04-23T16:46:51Z</time></trkpt><trkpt lat="47.746001366201284" lon="-1.7251888427333635"><ele>70.0</ele><time>2026-04-23T16:46:52Z</time></trkpt><trkpt lat="47.745778445606106" lon="-1.7251854730715221"><ele>70.0</ele><time>2026-04-23T16:46:53Z</time></trkpt><trkpt lat="47.74556784051833" lon="-1.7251972054049047"><ele>70.0</ele><time>2026-04-23T16:46:54Z</time></trkpt><trkpt lat="47.74535119351674" lon="-1.7252120876379766"><ele>69.66666666666666</ele><time>2026-04-23T16:46:55Z</time></trkpt><trkpt lat="47.74512490861129" lon="-1.7252228296161398"><ele>69.33333333333333</ele><time>2026-04-23T16:46:56Z</time></trkpt><trkpt lat="47.744904421217974" lon="-1.7252300473054145"><ele>69.0</ele><time>2026-04-23T16:46:57Z</time></trkpt><trkpt lat="47.7447010757133" lon="-1.7252554398791013"><ele>69.0</ele><time>2026-04-23T16:46:58Z</time></trkpt><trkpt lat="47.7444860879563" lon="-1.7252662902561426"><ele>69.0</ele><time>2026-04-23T16:46:59Z</time></trkpt><trkpt lat="47.74427915561984" lon="-1.7252796099567838"><ele>69.0</ele><time>2026-04-23T16:47:00Z</time></trkpt><trkpt lat="47.74406697053154" lon="-1.725285471108916"><ele>69.33333333333333</ele><time>2026-04-23T16:47:01Z</time></trkpt><trkpt lat="47.74385873118807" lon="-1.7253073377772203"><ele>69.66666666666666</ele><time>2026-04-23T16:47:02Z</time></trkpt><trkpt lat="47.7436407821146" lon="-1.7253258659918205"><ele>70.0</ele><time>2026-04-23T16:47:03Z</time></trkpt><trkpt lat="47.74342972710568" lon="-1.7253308284456508"><ele>70.0</ele><time>2026-04-23T16:47:04Z</time></trkpt><trkpt lat="47.74321402666435" lon="-1.7253515053247095"><ele>70.0</ele><time>2026-04-23T16:47:05Z</time></trkpt><trkpt lat="47.74300237741235" lon="-1.725373166727524"><ele>70.0</ele><time>2026-04-23T16:47:06Z</time></trkpt><trkpt lat="47.742798629356756" lon="-1.7253980172593655"><ele>70.33333333333333</ele><time>2026-04-23T16:47:07Z</time></trkpt><trkpt lat="47.74259400832856" lon="-1.7254354168110306"><ele>70.66666666666667</ele><time>2026-04-23T16:47:08Z</time></trkpt><trkpt lat="47.74237459196574" lon="-1.7254961425676703"><ele>71.0</ele><time>2026-04-23T16:47:09Z</time></trkpt><trkpt lat="47.74215764021844" lon="-1.725514500658814"><ele>71.0</ele><time>2026-04-23T16:47:10Z</time></trkpt><trkpt lat="47.74195093297039" lon="-1.7255783998469978"><ele>71.0</ele><time>2026-04-23T16:47:11Z</time></trkpt><trkpt lat="47.74173595374803" lon="-1.7256229415155568"><ele>71.0</ele><time>2026-04-23T16:47:12Z</time></trkpt><trkpt lat="47.741520360745355" lon="-1.7256668790227456"><ele>71.33333333333334</ele><time>2026-04-23T16:47:13Z</time></trkpt><trkpt lat="47.74129986384561" lon="-1.725700816637643"><ele>71.66666666666667</ele><time>2026-04-23T16:47:14Z</time></trkpt><trkpt lat="47.74108394616127" lon="-1.7257462157712624"><ele>72.0</ele><time>2026-04-23T16:47:14.999Z</time></trkpt><trkpt lat="47.74087587240594" lon="-1.725794167115963"><ele>72.0</ele><time>2026-04-23T16:47:15.999Z</time></trkpt><trkpt lat="47.740666969010235" lon="-1.7258396935787452"><ele>72.0</ele><time>2026-04-23T16:47:16.999Z</time></trkpt><trkpt lat="47.74044595632497" lon="-1.725894428589812"><ele>72.0</ele><time>2026-04-23T16:47:17.999Z</time></trkpt><trkpt lat="47.740244528648944" lon="-1.7259351678025776"><ele>71.33333333333333</ele><time>2026-04-23T16:47:18.999Z</time></trkpt><trkpt lat="47.74002135209979" lon="-1.7259733330697244"><ele>70.66666666666666</ele><time>2026-04-23T16:47:19.999Z</time></trkpt><trkpt lat="47.73981327392448" lon="-1.726015230553581"><ele>70.0</ele><time>2026-04-23T16:47:20.999Z</time></trkpt><trkpt lat="47.73961868109415" lon="-1.7260562617260982"><ele>71.0</ele><time>2026-04-23T16:47:21.999Z</time></trkpt><trkpt lat="47.73944104165972" lon="-1.7260953634999592"><ele>72.0</ele><time>2026-04-23T16:47:22.999Z</time></trkpt><trkpt lat="47.73925506642162" lon="-1.7261308367133767"><ele>73.0</ele><time>2026-04-23T16:47:23.999Z</time></trkpt><trkpt lat="47.7390771534389" lon="-1.7261648349644019"><ele>73.33333333333333</ele><time>2026-04-23T16:47:24.999Z</time></trkpt><trkpt lat="47.73889807003757" lon="-1.7262044457927175"><ele>73.66666666666667</ele><time>2026-04-23T16:47:25.999Z</time></trkpt><trkpt lat="47.738720981996956" lon="-1.726247846120648"><ele>74.0</ele><time>2026-04-23T16:47:26.999Z</time></trkpt><trkpt lat="47.73854169250267" lon="-1.726278723496083"><ele>73.33333333333334</ele><time>2026-04-23T16:47:27.999Z</time></trkpt><trkpt lat="47.738358204480036" lon="-1.7263213243891493"><ele>72.66666666666667</ele><time>2026-04-23T16:47:28.999Z</time></trkpt><trkpt lat="47.738137662550656" lon="-1.7263640059088134"><ele>72.0</ele><time>2026-04-23T16:47:29.999Z</time></trkpt><trkpt lat="47.7379143900533" lon="-1.7264168782333793"><ele>71.66666666666667</ele><time>2026-04-23T16:47:30.999Z</time></trkpt><trkpt lat="47.73769668253501" lon="-1.726463155280515"><ele>71.33333333333334</ele><time>2026-04-23T16:47:31.999Z</time></trkpt><trkpt lat="47.73748609257562" lon="-1.7265014743318565"><ele>71.0</ele><time>2026-04-23T16:47:32.999Z</time></trkpt><trkpt lat="47.73726803870881" lon="-1.7265434173216727"><ele>71.0</ele><time>2026-04-23T16:47:33.999Z</time></trkpt><trkpt lat="47.737050129023366" lon="-1.7265813813533406"><ele>71.0</ele><time>2026-04-23T16:47:34.999Z</time></trkpt><trkpt lat="47.73681828622467" lon="-1.7266191303946092"><ele>71.0</ele><time>2026-04-23T16:47:35.999Z</time></trkpt><trkpt lat="47.73659227617419" lon="-1.726671521549604"><ele>71.0</ele><time>2026-04-23T16:47:36.999Z</time></trkpt><trkpt lat="47.73635305351083" lon="-1.7267255330409252"><ele>71.0</ele><time>2026-04-23T16:47:37.999Z</time></trkpt><trkpt lat="47.73612172918223" lon="-1.726773463747119"><ele>71.0</ele><time>2026-04-23T16:47:38.999Z</time></trkpt><trkpt lat="47.735903476620614" lon="-1.7268337119101307"><ele>70.0</ele><time>2026-04-23T16:47:39.999Z</time></trkpt><trkpt lat="47.73568173925837" lon="-1.7268747786854217"><ele>69.0</ele><time>2026-04-23T16:47:40.999Z</time></trkpt><trkpt lat="47.7354684065432" lon="-1.7269185632154254"><ele>68.0</ele><time>2026-04-23T16:47:41.999Z</time></trkpt><trkpt lat="47.73525631603072" lon="-1.726967746368376"><ele>67.0</ele><time>2026-04-23T16:47:42.999Z</time></trkpt><trkpt lat="47.735043034783786" lon="-1.7270201326493757"><ele>66.0</ele><time>2026-04-23T16:47:43.999Z</time></trkpt><trkpt lat="47.73483060565304" lon="-1.727064701227625"><ele>65.0</ele><time>2026-04-23T16:47:44.999Z</time></trkpt><trkpt lat="47.73461889034994" lon="-1.7271333387508958"><ele>65.0</ele><time>2026-04-23T16:47:45.999Z</time></trkpt><trkpt lat="47.73440773196646" lon="-1.7272556199626798"><ele>65.0</ele><time>2026-04-23T16:47:46.999Z</time></trkpt><trkpt lat="47.734194304012405" lon="-1.7273559230789357"><ele>66.0</ele><time>2026-04-23T16:47:47.999Z</time></trkpt><trkpt lat="47.73397675828199" lon="-1.7274590636497165"><ele>67.0</ele><time>2026-04-23T16:47:48.999Z</time></trkpt><trkpt lat="47.73375754091948" lon="-1.7275554313224206"><ele>67.0</ele><time>2026-04-23T16:47:49.999Z</time></trkpt><trkpt lat="47.73354999910261" lon="-1.7276673420659132"><ele>67.0</ele><time>2026-04-23T16:47:50.999Z</time></trkpt><trkpt lat="47.73333919314572" lon="-1.7277756054712148"><ele>67.0</ele><time>2026-04-23T16:47:51.999Z</time></trkpt><trkpt lat="47.7331275436005" lon="-1.7278793957014373"><ele>66.66666666666666</ele><time>2026-04-23T16:47:52.999Z</time></trkpt><trkpt lat="47.732923352322935" lon="-1.7279821108115796"><ele>66.33333333333333</ele><time>2026-04-23T16:47:53.999Z</time></trkpt><trkpt lat="47.73271415184423" lon="-1.7281017596159687"><ele>66.0</ele><time>2026-04-23T16:47:54.999Z</time></trkpt><trkpt lat="47.73251129114284" lon="-1.7282502914288822"><ele>66.0</ele><time>2026-04-23T16:47:55.999Z</time></trkpt><trkpt lat="47.73230522567567" lon="-1.7283659007538048"><ele>66.0</ele><time>2026-04-23T16:47:56.999Z</time></trkpt><trkpt lat="47.732102350198545" lon="-1.7285246952574393"><ele>65.5</ele><time>2026-04-23T16:47:57.999Z</time></trkpt><trkpt lat="47.73190029300346" lon="-1.728669040333294"><ele>65.0</ele><time>2026-04-23T16:47:58.999Z</time></trkpt><trkpt lat="47.73168930283236" lon="-1.728795244406147"><ele>63.66666666666667</ele><time>2026-04-23T16:47:59.999Z</time></trkpt><trkpt lat="47.73148665024682" lon="-1.7289353838066277"><ele>62.33333333333333</ele><time>2026-04-23T16:48:00.999Z</time></trkpt><trkpt lat="47.73128669965751" lon="-1.7290738399945063"><ele>61.0</ele><time>2026-04-23T16:48:01.999Z</time></trkpt><trkpt lat="47.73108492328841" lon="-1.7292175914063614"><ele>60.666666666666664</ele><time>2026-04-23T16:48:02.999Z</time></trkpt><trkpt lat="47.73089098160021" lon="-1.729355006296401"><ele>60.33333333333333</ele><time>2026-04-23T16:48:03.999Z</time></trkpt><trkpt lat="47.73070516455148" lon="-1.729471863169088"><ele>60.0</ele><time>2026-04-23T16:48:04.999Z</time></trkpt><trkpt lat="47.73054445465378" lon="-1.7295882080406664"><ele>59.66666666666667</ele><time>2026-04-23T16:48:05.999Z</time></trkpt><trkpt lat="47.73039409551514" lon="-1.7296913761536596"><ele>59.333333333333336</ele><time>2026-04-23T16:48:06.999Z</time></trkpt><trkpt lat="47.73022759763075" lon="-1.729807145773261"><ele>59.0</ele><time>2026-04-23T16:48:07.999Z</time></trkpt><trkpt lat="47.73004724531553" lon="-1.7298861103720076"><ele>59.0</ele><time>2026-04-23T16:48:08.999Z</time></trkpt><trkpt lat="47.72987167299859" lon="-1.7299434413877286"><ele>59.0</ele><time>2026-04-23T16:48:09.999Z</time></trkpt><trkpt lat="47.72970900151337" lon="-1.7299720138724588"><ele>59.0</ele><time>2026-04-23T16:48:10.999Z</time></trkpt><trkpt lat="47.72953931051978" lon="-1.729970793016717"><ele>58.333333333333336</ele><time>2026-04-23T16:48:11.999Z</time></trkpt><trkpt lat="47.729356892763846" lon="-1.7299489667545804"><ele>57.66666666666667</ele><time>2026-04-23T16:48:12.999Z</time></trkpt><trkpt lat="47.729162253584335" lon="-1.7299150583161136"><ele>57.0</ele><time>2026-04-23T16:48:13.999Z</time></trkpt><trkpt lat="47.72899508137578" lon="-1.7298876603541107"><ele>57.0</ele><time>2026-04-23T16:48:14.999Z</time></trkpt><trkpt lat="47.72886007787417" lon="-1.7298520355541238"><ele>57.0</ele><time>2026-04-23T16:48:15.999Z</time></trkpt><trkpt lat="47.72875285789591" lon="-1.7299067528598353"><ele>57.0</ele><time>2026-04-23T16:48:17Z</time></trkpt><trkpt lat="47.728641417748186" lon="-1.7299251110967224"><ele>57.0</ele><time>2026-04-23T16:48:18Z</time></trkpt><trkpt lat="47.72854766934029" lon="-1.7299780144084946"><ele>57.0</ele><time>2026-04-23T16:48:19Z</time></trkpt><trkpt lat="47.72847012757068" lon="-1.7300111652085215"><ele>57.0</ele><time>2026-04-23T16:48:20Z</time></trkpt><trkpt lat="47.72840728780347" lon="-1.7300396522756962"><ele>57.0</ele><time>2026-04-23T16:48:23Z</time></trkpt><trkpt lat="47.72837902972151" lon="-1.7297656952811975"><ele>57.0</ele><time>2026-04-23T16:48:24Z</time></trkpt><trkpt lat="47.728337912332485" lon="-1.7296451683446308"><ele>57.0</ele><time>2026-04-23T16:48:26Z</time></trkpt><trkpt lat="47.7283152733018" lon="-1.7295362590351195"><ele>57.0</ele><time>2026-04-23T16:48:28Z</time></trkpt><trkpt lat="47.72807433652963" lon="-1.7296607627710698"><ele>57.0</ele><time>2026-04-23T16:48:31Z</time></trkpt><trkpt lat="47.727969932071005" lon="-1.729686780715675"><ele>57.0</ele><time>2026-04-23T16:48:32Z</time></trkpt><trkpt lat="47.7278995560553" lon="-1.7297017469164644"><ele>57.0</ele><time>2026-04-23T16:48:33Z</time></trkpt><trkpt lat="47.72780152587897" lon="-1.7297141551308177"><ele>57.0</ele><time>2026-04-23T16:48:35Z</time></trkpt><trkpt lat="47.727718455128354" lon="-1.7296913540328007"><ele>54.0</ele><time>2026-04-23T16:48:38Z</time></trkpt><trkpt lat="47.72772462135694" lon="-1.729557337852069"><ele>54.0</ele><time>2026-04-23T16:48:48Z</time></trkpt></trkseg></trk></gpx>